GFSSE_con_sbcape_000.txt.gz
CAPE
1363 1103 1222 1081 1298 1639 1729 1880 2003 2063 2196 1927 1900 2341 2314 2378 2140 2122 2119 1894 1878 1894 2165 2137 1923 1530 1262 1138 1547 1865 1978 2022 1963 1775 1311 975 810 757 714 757 660 349 975
1546 1238 1211 1161 1235 1566 1841 2035 2283 2529 2375 1933 2277 1653 1719 1758 1830 1814 2072 2229 1938 1772 2022 2122 1978 1911 1537 1815 2272 2297 2166 1798 1698 1743 1600 1286 823 665 722 673 549 467 839
1477 1249 1095 1232 1194 1352 1665 1970 2274 2208 2273 2241 2037 1873 2094 2051 1510 1021 1470 1874 2147 1825 1848 2006 1943 2121 1909 2078 2166 2054 1775 1565 1626 1706 1706 746 519 599 662 638 591 886 535
1495 1390 1196 1342 1481 1457 1726 1849 2004 2023 1921 1978 1992 1904 1598 1362 325 0 1160 1475 1557 1834 1966 2006 1878 1853 1783 2045 2114 2062 1768 1543 1519 1342 609 285 187 900 878 715 709 520 511
1741 1526 1266 1500 1615 1719 1769 1899 1942 2006 1799 1785 1831 1826 1686 1866 1091 364 1564 2123 2141 2257 1945 1897 1793 1961 1844 1633 1811 1879 1785 1596 1402 906 227 159 189 1123 1158 1038 1007 1026 1015
1848 1627 1430 1444 1635 1652 1512 1622 1911 1921 1693 1580 1589 1753 1829 1729 1676 1739 1538 1800 1535 1719 1426 1494 1543 1498 1227 1280 1442 1641 1646 1480 1127 519 163 344 424 1369 1335 1392 1534 1116 871
1817 1727 1953 1533 1610 1560 1407 1351 1535 1623 1370 1351 1581 1700 1755 1774 1767 1897 1772 1440 1662 1568 1531 1450 1714 1129 890 997 1267 1248 1378 1233 758 114 181 260 383 1432 1254 1067 1240 1010 879
1829 1832 2013 1594 1514 1599 1511 1401 1406 1452 1439 1337 1439 1556 1626 1691 1656 1580 1836 1867 1860 1766 1566 1502 1373 1035 739 816 940 750 724 971 485 92 128 178 979 1377 1250 1112 1123 833 817
1169 1331 1618 1730 1547 1253 1029 935 991 1090 1231 1319 1340 1383 1539 1559 1579 1577 1386 1325 1275 1246 1155 1213 975 709 436 337 571 490 512 506 538 161 95 94 1117 1115 1200 1056 1010 687 736
934 1018 1452 1697 1614 1602 1418 260 286 448 732 936 1282 1083 889 1048 1222 1023 779 812 1112 1077 1062 1050 756 539 347 249 119 50 117 316 643 219 101 123 652 898 1107 1049 926 710 411
268 231 1012 1545 1444 1097 656 199 527 545 427 482 697 524 666 969 702 578 4 0 230 629 686 837 680 386 238 70 0 0 0 158 360 272 125 103 103 165 821 1053 814 679 218
0 0 20 575 770 752 152 266 1351 1430 1322 1118 1036 900 732 648 329 28 0 0 0 0 0 337 270 148 31 120 2 0 0 0 0 7 24 83 71 137 362 684 808 466 163
0 0 0 0 38 476 597 693 1065 693 664 431 491 445 443 5 3 122 1 2 0 0 10 6 131 266 260 268 17 0 0 0 1 0 0 9 41 154 290 758 595 271 149
0 0 0 0 0 24 98 158 155 27 0 4 198 426 409 282 145 13 23 10 6 9 4 27 119 93 227 366 77 1 1 0 3 0 0 0 2 19 293 434 499 202 153
0 0 0 0 0 0 0 0 0 0 0 0 0 0 19 126 135 21 0 0 0 4 19 2 0 90 135 143 81 15 36 7 3 0 0 0 5 0 73 282 399 394 136
0 0 0 0 0 0 0 0 0 0 0 0 0 0 0 1 103 214 3 1 83 120 165 54 148 36 116 85 158 169 181 126 21 12 13 0 0 0 0 92 338 369 292
0 0 0 0 0 0 0 0 0 0 0 0 0 0 0 0 8 4 0 0 0 9 65 191 144 177 303 217 163 125 91 116 92 21 20 6 0 0 0 0 204 357 624
0 0 0 0 0 0 0 0 0 0 0 0 0 0 0 0 0 0 0 0 0 0 0 0 0 0 42 81 93 69 65 77 93 69 17 6 0 0 0 0 3 235 285
0 0 0 0 0 0 0 0 0 0 0 0 0 0 0 0 0 0 0 0 0 0 0 0 0 0 0 2 5 161 76 13 148 29 8 4 2 0 0 0 0 0 168
0 0 0 0 0 0 0 0 0 0 0 0 0 0 0 0 0 0 0 0 0 0 0 0 0 0 0 5 0 0 177 305 304 120 66 9 7 2 0 0 0 0 23
0 0 0 0 0 0 0 0 0 0 0 0 0 0 0 0 0 0 0 0 0 0 0 0 0 0 0 0 0 0 0 159 283 135 36 149 13 3 1 0 0 0 49
0 0 0 0 0 0 0 0 0 0 0 0 0 0 0 0 0 0 0 0 0 0 0 0 0 0 0 0 0 0 4 47 162 107 115 141 117 7 2 0 0 0 0
0 0 0 0 0 0 0 0 0 0 0 0 0 0 0 0 0 0 0 0 0 0 0 0 0 0 0 0 0 0 0 8 3 3 105 155 181 26 21 1 0 0 0
0 0 0 0 0 0 0 0 0 0 0 0 0 0 0 0 0 0 0 0 7 10 8 5 0 0 0 0 0 0 7 0 0 0 0 0 56 44 61 26 1 0 4
0 0 0 0 0 0 0 0 0 0 0 0 0 0 0 0 0 0 0 16 48 55 39 44 40 14 6 4 0 0 0 0 0 2 0 0 0 1 6 73 21 0 1
0 0 0 0 0 0 0 0 0 0 0 0 0 0 0 0 0 0 0 0 0 18 35 48 57 62 58 38 23 13 3 0 0 0 11 1 0 0 0 11 12 2 0

GFSSE_con_sbcape_003.txt.gz
CAPE
1351 1101 903 904 1216 1493 1629 1871 2226 2165 2114 2131 1905 1783 1790 1769 1935 1675 1432 1664 1891 1827 1570 1719 1732 1592 1284 1272 1323 1514 1861 2031 2021 1794 1378 1087 978 908 1100 1015 1120 588 1607
1355 1152 950 860 1091 1461 1758 1890 2037 2515 2210 2234 2193 1899 1766 1818 1259 1149 1333 1269 1097 1373 1441 1353 1565 1516 1405 1627 1849 1716 1703 1777 1940 1894 1651 1287 959 798 876 940 834 766 1563
1359 1131 911 841 886 1318 1700 1994 2112 2252 2459 2293 2212 2219 1969 1307 376 956 883 738 659 928 1165 1754 1731 1642 1663 1813 1886 2008 1722 1813 1747 1823 1663 731 651 917 714 767 672 1400 1483
1347 1222 1062 938 1038 1109 1508 1717 2021 2138 2085 2328 2274 2112 1570 1124 361 70 74 49 651 867 1077 1206 1355 1583 1624 1761 1841 1892 1713 1592 1632 1600 661 344 770 1019 783 499 733 852 921
1510 1260 1096 1362 1372 1254 1305 1545 1757 1854 1882 1942 2179 2202 1702 1450 284 93 68 269 680 1302 1373 1390 1273 1671 1587 1451 1326 1689 1795 1555 1485 1018 374 223 82 1105 1061 712 743 919 936
1664 1586 1200 1487 1476 1193 805 1119 1580 1608 1493 1697 1943 2105 1909 1661 585 239 121 820 1247 1236 1000 1175 1271 1288 1096 1020 1240 1229 1569 1501 1162 714 176 291 157 1465 1241 1134 1502 1162 1159
1845 1813 1703 1585 1642 1413 1142 867 1189 1597 1462 1411 1591 1872 1725 1430 1409 1301 1148 1077 1080 630 389 927 1119 732 637 861 1015 1031 1217 1366 991 435 94 82 106 1597 1268 1283 1493 1213 1076
1806 1796 1991 1482 1481 1364 1243 1220 1129 1216 1391 1439 1398 1474 1492 1454 1208 989 1072 1385 1300 1184 1287 1589 1223 768 558 534 647 674 689 989 734 256 68 124 1182 1628 1288 1132 1273 1073 897
1318 1585 1767 1861 1511 1175 820 533 597 874 875 1152 1366 1351 1310 1391 1264 926 276 350 520 739 650 804 892 567 250 376 459 497 453 489 511 573 73 81 1384 1528 1248 1212 1303 1127 953
1665 1460 1573 1642 1594 1614 1522 279 337 551 695 825 1014 824 775 985 901 87 77 0 0 3 0 79 474 484 297 250 286 214 166 279 476 221 314 271 1170 808 1016 993 1075 1145 883
983 994 1696 1885 1818 1316 791 300 703 945 616 670 713 396 372 1257 858 651 7 0 0 0 0 0 0 74 180 126 80 60 30 52 151 375 327 262 505 200 312 916 871 942 773
197 122 314 1187 1542 1290 609 323 1283 1388 1076 1041 1036 1010 747 785 802 575 203 4 0 0 0 0 0 0 67 311 190 0 1 0 34 160 101 266 248 105 153 793 771 714 579
0 0 9 448 1000 1429 1069 1075 1370 1089 1037 735 743 564 610 182 140 351 371 316 85 0 5 1 0 0 0 0 5 132 6 0 0 5 4 50 393 153 144 180 735 502 487
0 0 0 216 518 569 512 590 717 422 235 207 469 447 357 193 211 175 166 65 63 17 5 0 0 5 0 0 0 52 66 20 47 70 21 0 75 20 35 200 333 573 518
0 0 0 0 80 269 154 78 14 0 0 0 0 0 3 0 49 23 2 1 1 0 7 22 0 0 56 25 31 5 83 157 55 21 1 0 0 0 0 2 200 359 399
0 0 0 0 0 0 2 0 0 0 0 0 0 0 0 0 1 10 3 2 2 11 57 246 187 169 137 103 98 99 150 175 214 70 21 1 0 0 0 0 13 266 355
0 0 0 0 0 0 0 0 0 0 0 0 0 0 0 0 0 0 0 0 0 0 1 0 0 13 269 299 323 233 167 207 288 182 77 44 7 0 0 0 0 76 471
0 0 0 0 0 0 0 0 0 0 0 0 0 0 0 0 0 0 0 0 0 0 0 0 0 0 0 30 7 77 184 204 151 119 127 36 68 15 0 0 0 0 96
0 0 0 0 0 0 0 0 0 0 0 0 0 0 0 0 0 0 0 0 0 0 0 0 0 0 0 0 0 0 0 233 262 135 138 154 133 55 24 0 0 0 8
0 0 0 0 0 0 0 0 0 0 0 0 0 0 0 0 0 0 0 0 0 0 0 0 0 0 0 0 0 0 0 76 293 343 234 234 141 62 13 5 0 0 0
0 0 0 0 0 0 0 0 0 0 0 0 0 0 0 0 0 0 0 0 0 0 0 0 0 0 0 0 0 0 0 0 0 417 503 264 238 89 30 17 16 0 0
0 0 0 0 0 0 0 0 0 0 0 0 0 0 0 0 0 0 0 0 0 0 0 0 0 0 0 1 0 0 0 0 0 1 18 308 432 319 93 19 16 1 0
0 0 0 0 0 0 0 0 0 0 0 0 0 0 0 0 0 0 0 0 0 2 2 6 4 4 0 5 13 0 0 0 0 0 2 0 63 295 258 35 11 11 0
0 0 0 0 0 0 0 0 0 0 0 0 0 0 0 0 6 14 7 4 7 7 17 39 21 33 53 24 24 5 34 10 0 0 0 0 3 0 7 38 17 15 10
0 0 0 0 0 0 0 0 0 0 0 0 0 0 0 0 0 0 0 5 11 11 38 91 111 125 78 88 69 54 59 41 39 23 0 0 0 5 11 0 0 91 29
0 0 0 0 0 0 0 0 0 0 0 0 0 0 0 1 2 2 0 0 0 0 0 62 101 92 118 108 108 91 80 72 30 44 27 13 2 5 8 0 0 12 50

GFSSE_con_sbcape_006.txt.gz
CAPE
940 504 784 823 1268 1622 1845 2112 2383 2207 2135 2017 1915 1998 2097 2084 1867 1775 1571 1458 1400 1279 1215 1538 1769 1454 990 1104 1183 1829 1942 1879 1675 1661 1548 1173 946 1042 848 894 1223 937 1574
1025 512 706 799 1104 1550 1890 2121 2485 2653 2415 2402 2215 2038 1811 1896 1778 1849 1525 1290 1074 758 192 964 1273 1547 1557 1714 1684 1634 1683 1756 1691 1627 1530 1394 1096 740 914 1037 710 882 1668
1144 863 196 886 828 1072 1531 2018 2251 2433 2158 2389 2439 1943 1852 1257 1318 1313 1000 656 677 38 3 500 979 1196 1425 1588 1695 1617 1697 1766 1657 1623 1561 883 730 1036 744 713 684 1394 1361
1170 801 536 1180 1104 852 1076 1397 1981 2209 2171 2187 2275 1989 1660 1255 885 1059 376 91 113 296 219 641 707 778 1191 913 1361 1632 1574 1629 1454 1527 1061 508 790 1211 545 460 603 939 1505
1350 1146 917 1285 1216 1065 1208 1485 1683 1851 2033 2189 2194 2001 1864 1627 946 792 805 417 596 1057 1394 753 160 523 735 694 1039 1340 1252 1363 1395 1259 686 282 611 1064 733 400 658 690 803
1555 1397 1135 1417 1401 1209 937 1341 1734 1727 1817 2117 2182 2233 2304 1065 674 360 231 244 894 912 525 60 3 355 643 548 813 1045 1201 1241 1109 723 538 202 208 1430 1031 1134 947 586 672
1642 1780 1363 1494 1642 1576 1388 1470 1573 1752 1669 1668 1989 2010 1917 1830 1689 1270 1243 1258 959 419 0 2 0 70 233 743 777 1100 1225 1157 1087 682 562 113 828 1877 1222 1201 1324 1248 1012
1783 1955 1711 1555 1629 1507 1362 1227 1152 1323 1445 1592 1623 1594 1800 1676 1497 1288 1206 1228 994 687 426 253 463 762 871 547 661 776 744 712 717 511 291 52 1269 1963 1409 1346 1497 1126 1071
1278 1547 1972 1880 1607 1344 1053 866 887 932 1103 1372 1440 1351 1446 1548 993 659 654 391 181 169 310 624 697 752 631 709 668 536 430 364 267 218 314 196 1724 1972 1492 1260 1235 1215 1073
1547 1478 1624 1711 2056 1279 621 526 617 912 988 1127 1345 1180 1412 1186 482 238 209 102 24 83 0 0 0 68 452 406 417 420 266 210 173 207 175 563 1388 1556 1383 1356 1253 1181 959
913 1184 1805 1768 2042 1668 1418 700 883 974 1068 974 789 853 570 1272 789 225 16 0 0 0 0 0 0 0 0 52 293 314 156 47 9 85 151 343 1116 838 962 1411 1102 1205 1113
297 172 426 1060 1541 1670 1180 642 1833 1497 1300 1141 1159 939 932 890 307 231 46 3 0 0 0 0 0 0 0 0 0 43 9 2 0 51 262 252 778 443 448 1101 1364 1149 1097
31 41 52 738 1332 1788 1623 1551 1436 1200 1204 1070 990 849 512 284 249 273 271 229 104 0 0 0 0 0 0 0 0 0 0 0 0 0 1 218 539 397 392 710 1347 1152 995
0 0 9 555 922 980 855 753 864 516 539 439 422 492 458 339 186 162 41 13 0 2 1 1 0 0 0 0 0 0 0 2 3 1 8 6 33 449 301 445 775 1025 1003
0 0 0 110 469 727 463 357 176 46 0 0 5 0 85 79 109 38 0 0 0 1 0 0 0 0 0 0 0 0 0 0 22 4 1 5 0 0 49 272 541 662 798
0 0 0 0 49 46 252 79 3 0 0 0 0 0 0 2 11 3 0 0 0 0 0 4 12 11 4 0 0 6 7 0 1 15 43 6 0 0 0 0 179 582 880
0 0 0 0 0 0 0 0 0 0 0 0 0 0 0 0 0 0 0 0 0 0 0 0 0 0 0 12 40 60 54 12 24 91 114 69 16 0 0 0 0 12 474
0 0 0 0 0 0 0 0 0 0 0 0 0 0 0 0 0 0 0 0 0 0 0 0 0 0 0 0 0 0 0 0 69 69 98 144 67 26 2 0 0 0 0
0 0 0 0 0 0 0 0 0 0 0 0 0 0 0 0 0 0 0 0 0 0 0 0 0 0 0 0 0 0 0 0 0 7 86 117 118 52 28 26 0 0 0
0 0 0 0 0 0 0 0 0 0 0 0 0 0 0 0 0 0 0 0 0 0 0 0 0 0 0 0 0 0 0 0 0 0 28 147 145 134 58 23 4 0 0
0 0 0 0 0 0 0 0 0 0 0 0 0 0 0 0 0 0 0 0 0 0 0 0 0 0 0 0 0 0 0 0 0 0 0 73 160 147 82 22 6 1 0
0 0 0 0 0 0 0 0 0 0 0 0 0 0 0 0 0 0 0 0 0 0 0 0 2 0 0 0 0 0 0 0 0 0 0 0 2 21 57 70 10 4 1
0 0 0 0 0 0 0 0 0 0 0 0 0 0 0 0 0 0 0 0 0 0 0 0 0 0 0 0 0 0 0 0 0 0 0 0 0 0 2 16 26 10 0
0 0 0 0 0 0 0 0 0 0 0 0 0 0 0 6 7 13 23 41 43 26 3 3 3 22 13 1 3 7 0 0 1 0 0 0 0 0 0 0 2 26 13
0 0 0 0 0 0 0 0 0 0 0 0 0 0 0 0 0 0 0 9 28 30 24 10 3 0 0 5 9 19 9 0 0 0 0 0 0 0 0 0 0 0 0
0 0 0 0 0 0 0 0 0 0 0 0 0 0 0 0 0 0 0 0 0 0 0 0 0 0 0 0 0 0 0 4 1 0 0 0 0 0 0 0 0 0 0

GFSSE_con_sbcape_009.txt.gz
CAPE
330 448 722 1089 1471 1603 1710 1831 1984 2117 2146 2045 1938 1918 1882 1943 1833 1719 1630 1512 1474 1189 796 829 1175 1542 1197 1166 1377 1730 1718 1612 1594 1762 1672 959 1154 961 1030 1362 997 942 1561
306 351 621 855 1201 1566 1785 1937 1911 1931 2452 2396 2150 1945 1776 1899 1843 1743 1597 1381 1471 1609 726 399 1043 1133 992 1209 1067 1321 1515 1441 1274 1245 1290 1377 1186 971 1036 871 499 796 1561
374 196 594 852 984 1210 1564 1989 2139 2025 2269 2426 2334 2129 2112 2003 1816 1478 1344 1424 1637 593 439 472 1032 831 791 793 953 1098 1270 1436 1456 1298 1216 654 664 823 916 557 968 1384 1354
512 577 748 976 1093 1298 1500 1780 2000 2005 2020 2126 2326 2375 1779 1676 1607 1403 972 375 394 420 527 947 982 398 450 609 677 1068 1111 1401 1342 1338 1120 928 665 1089 638 545 886 1528 1520
559 768 1005 1047 955 1069 1569 1756 1864 2007 1961 1946 2223 2283 2124 1227 1018 1088 1094 696 749 834 1044 505 322 687 647 682 245 531 702 1163 1252 1156 766 357 197 1006 559 502 876 1248 1394
694 832 1047 1167 1167 1131 1674 1867 1842 1808 1939 1930 2053 2439 1923 1429 990 669 462 398 842 1129 1326 732 102 328 616 281 1 176 664 1018 1049 868 527 287 563 1382 770 958 739 698 705
1043 926 1108 1257 1340 1519 1391 1447 1642 1631 1593 1900 2018 2023 2110 1869 1374 1002 835 1159 1352 488 419 416 435 60 10 339 643 538 855 1100 1148 762 396 220 767 1951 1224 870 1115 829 713
1360 1011 1180 1357 1356 1370 1260 1091 1157 1330 1445 1446 1579 1945 1848 1787 1747 1518 1587 1308 1393 553 122 23 23 36 0 7 285 673 782 980 1075 652 321 156 195 1961 1516 1438 1316 1208 993
1524 1466 1106 1329 1314 1072 934 891 824 908 1252 1477 1442 1348 1451 984 913 890 785 616 721 633 697 503 523 547 516 423 434 411 404 353 261 85 75 74 1444 1964 1671 1589 1552 1347 1156
835 797 1306 1274 1009 637 473 624 715 768 885 1321 1420 1347 858 589 523 491 316 450 316 251 99 31 149 334 260 191 223 226 231 145 84 6 0 114 1542 1785 1496 1372 1360 1497 1255
390 717 344 528 1101 580 273 399 634 849 898 975 1003 901 888 333 279 15 158 105 10 0 0 0 0 0 0 0 0 8 56 0 0 0 0 289 1135 1269 1449 1748 1511 1408 1116
0 41 158 332 628 855 831 514 515 789 690 623 719 398 452 525 173 15 60 36 5 0 0 0 0 0 0 0 0 0 0 0 0 0 0 172 997 761 1085 1640 1219 1400 1169
0 0 8 404 589 534 569 868 781 483 509 381 310 316 64 38 28 55 0 11 0 0 0 0 0 0 0 0 0 0 0 0 0 0 0 92 347 499 634 857 1322 1460 1131
0 0 0 150 324 236 3 215 197 289 25 73 113 92 7 9 0 0 0 0 0 0 0 0 0 0 0 0 0 0 0 0 0 0 0 4 17 100 255 390 735 1021 1210
0 0 0 1 56 140 0 0 0 0 0 0 0 0 0 0 0 0 0 0 0 0 0 0 0 0 0 0 0 0 0 0 0 0 0 3 8 10 42 231 370 553 815
0 0 0 0 0 0 0 0 0 0 0 0 0 0 0 0 0 0 0 0 0 0 0 0 0 0 0 0 0 0 0 0 0 0 0 1 21 48 81 36 97 335 462
0 0 0 0 0 0 0 0 0 0 0 0 0 0 0 0 0 0 0 0 0 0 0 0 0 0 0 0 0 0 1 9 9 0 0 17 40 39 12 47 36 16 58
0 0 0 0 0 0 0 0 0 0 0 0 0 0 0 0 0 0 0 0 0 0 0 0 0 0 0 0 0 0 0 0 0 0 0 18 66 113 5 13 3 13 1
0 0 0 0 0 0 0 0 0 0 0 0 0 0 0 0 0 0 0 0 0 0 0 0 0 0 0 0 0 0 0 0 0 0 0 0 4 94 56 27 41 47 32
0 0 0 0 0 0 0 0 0 0 0 0 0 0 0 0 0 0 0 0 0 0 0 0 0 0 0 0 0 0 0 0 0 0 0 0 1 23 53 50 28 2 3
0 0 0 0 0 0 0 0 0 0 0 0 0 0 0 0 0 0 0 0 0 0 0 0 0 0 0 0 0 0 0 0 0 0 0 0 0 0 21 52 14 0 0
0 0 0 0 0 0 0 0 0 0 0 0 0 0 0 0 0 0 0 0 0 0 0 0 0 0 0 0 0 0 0 0 0 0 0 0 0 0 0 0 50 16 1
0 0 0 0 0 0 0 0 0 0 0 0 0 0 0 0 0 0 0 0 0 0 0 0 0 0 0 0 0 0 0 0 0 0 0 0 0 0 0 0 0 0 2
0 0 0 0 0 0 0 0 0 0 0 0 0 0 0 0 0 0 0 0 0 0 0 0 0 0 0 0 0 0 0 0 0 0 0 0 0 0 0 0 0 0 14
0 0 0 0 0 0 0 0 0 0 0 0 0 0 0 0 0 0 0 0 0 0 0 0 0 0 0 0 0 0 0 0 0 0 0 0 0 0 0 0 0 0 0
0 0 0 0 0 0 0 0 0 0 0 0 0 0 0 0 0 0 0 0 0 0 0 0 0 0 0 0 0 0 0 0 0 0 0 0 0 0 0 0 0 0 0

GFSSE_con_sbcape_012.txt.gz
CAPE
234 415 965 1346 1484 1551 1607 1587 1876 1851 1889 1974 1965 1907 1945 1898 2032 2043 1988 1943 2012 2141 1690 1796 1784 1647 1307 1205 1128 1297 1070 1393 1475 1577 1742 1636 1300 1266 1202 1481 1287 1317 1796
177 329 736 1185 1418 1545 1864 1722 1775 2372 2230 2124 1944 1927 2014 1988 2053 1926 1769 2162 2001 1197 655 1203 1365 1307 1368 1262 1112 1096 1014 1025 1259 1249 1425 1557 1429 1179 1225 920 750 1273 1802
110 337 543 944 1312 1593 1942 2097 2084 2241 2490 2421 2139 2069 2154 2247 2116 1908 1742 1626 947 817 898 1316 1345 1393 1109 986 945 810 932 677 902 1135 1241 584 617 1108 1095 678 928 1542 1742
310 519 623 961 1360 1626 1756 1879 1923 1998 2112 2244 2405 2487 2306 2320 2138 1768 1129 602 425 584 1382 1475 1369 932 971 844 682 548 479 718 1087 1140 937 858 416 921 904 778 1321 1796 1327
516 667 707 797 1207 1659 1732 1826 1862 1835 1880 2153 2364 2247 2015 1941 1759 1551 1208 885 983 1174 1145 1149 1304 1176 887 482 269 314 141 308 932 1073 692 546 224 547 986 902 1426 1640 1239
565 641 740 843 1124 1771 1909 1866 1838 1793 1736 1835 2246 2388 1973 1664 1341 905 568 673 1170 1479 1816 1213 1203 1065 629 269 218 159 101 98 642 881 644 399 480 614 1329 1356 1043 1318 1252
539 777 901 982 1222 1478 1655 1704 1633 1618 1721 1857 1991 2093 2174 1849 1635 1564 1361 1099 1439 1197 1138 1127 1037 922 693 137 22 60 45 169 298 835 513 262 128 1491 1488 1421 1230 1220 1107
751 906 1106 1262 1243 1213 1309 1339 1315 1413 1512 1609 1885 1898 1805 1631 1547 1586 1416 1631 1353 656 270 194 175 277 149 306 375 438 290 359 731 714 311 167 145 1118 1705 1553 1148 1001 985
970 865 1103 1216 1215 1085 907 787 794 1076 1333 1419 1542 1584 1302 1156 1141 1029 1053 1113 1064 1069 1036 1029 269 189 473 362 480 527 453 374 302 152 18 43 213 1154 1794 1545 1499 1378 1251
1149 1067 987 1000 865 550 610 719 663 720 998 1251 1285 1072 838 771 749 684 792 702 652 513 332 530 685 569 284 224 200 244 242 129 13 3 0 0 375 1308 1841 1681 1326 1265 1292
742 841 914 956 790 309 84 370 711 799 874 998 1044 950 486 255 176 82 256 401 184 17 0 0 0 10 0 0 0 21 67 0 0 0 0 0 83 1460 1490 1446 1207 1208 1290
0 0 37 269 586 498 437 346 334 647 643 580 511 685 488 250 18 16 44 77 12 0 0 0 0 0 0 0 0 0 0 0 0 0 0 3 326 609 884 1241 1152 1221 1305
0 1 18 208 260 168 337 274 366 338 366 343 429 162 226 11 51 0 0 4 0 0 0 0 0 0 0 0 0 0 0 0 0 0 0 20 47 207 398 647 1110 1212 1207
0 0 0 31 58 0 14 361 218 61 41 3 0 0 0 0 0 0 0 0 0 0 0 0 0 0 0 0 0 0 0 0 0 0 0 10 35 35 163 247 408 531 784
0 0 0 0 10 0 0 0 0 0 0 0 0 0 0 0 0 0 0 0 0 0 0 0 0 0 0 0 0 0 0 0 0 0 0 0 1 4 30 167 208 373 517
0 0 0 0 0 0 0 0 0 0 0 0 0 0 0 0 0 0 0 0 0 0 0 0 0 0 0 0 0 0 0 0 2 2 0 0 0 2 7 18 155 305 308
0 0 0 0 0 0 0 0 0 0 0 0 0 0 0 0 0 0 0 0 0 0 0 0 0 0 0 0 0 0 0 0 0 0 0 0 0 4 11 47 65 220 214
0 0 0 0 0 0 0 0 0 0 0 0 0 0 0 0 0 0 0 0 0 0 0 0 0 0 0 0 0 0 0 0 0 0 0 0 1 42 36 43 138 134 151
0 0 0 0 0 0 0 0 0 0 0 0 0 0 0 0 0 0 0 0 0 0 0 0 0 0 0 0 0 0 0 0 0 0 0 0 0 0 0 5 30 77 120
0 0 0 0 0 0 0 0 0 0 0 0 0 0 0 0 0 0 0 0 0 0 0 0 0 0 0 0 0 0 0 0 0 0 0 0 0 0 0 19 25 29 19
0 0 0 0 0 0 0 0 0 0 0 0 0 0 0 0 0 0 0 0 0 0 0 0 0 0 0 0 0 0 0 0 0 0 0 0 0 0 0 0 0 39 24
0 0 0 0 0 0 0 0 0 0 0 0 0 0 0 0 0 0 0 0 0 0 0 0 0 0 0 0 0 0 0 0 0 0 0 0 0 0 0 0 0 0 19
0 0 0 0 0 0 0 0 0 0 0 0 0 0 0 0 0 0 0 0 0 0 0 0 0 0 0 0 0 0 0 0 0 0 0 0 0 0 0 0 0 0 16
0 0 0 0 0 0 0 0 0 0 0 0 0 0 0 0 0 0 0 0 0 0 0 0 0 0 0 0 0 0 0 0 0 0 0 0 0 0 0 0 0 0 0
0 0 0 0 0 0 0 0 0 0 0 0 0 0 0 0 0 0 0 0 0 0 0 0 0 0 0 0 0 0 0 0 0 0 0 0 0 0 0 0 0 0 0
0 0 0 0 0 0 0 0 0 0 0 0 0 0 0 0 0 0 0 0 0 0 0 0 0 0 0 0 0 0 0 0 0 0 0 0 0 0 0 0 0 0 0

GFSSE_con_sbcape_015.txt.gz
CAPE
187 491 1076 1399 1441 1471 1489 1853 1796 1764 1961 2080 2059 2045 2116 2333 2133 1826 1973 1856 2216 2326 1835 1771 1890 1530 1436 1021 1298 1464 1375 1419 1404 1559 1596 1405 1277 1240 1191 1012 1362 1104 1257
156 419 959 1263 1557 1696 1637 1891 2172 2078 2142 2087 2105 2113 2116 2100 2217 2043 2189 1847 1516 1047 1138 1689 1502 1629 1441 1309 1585 1418 1263 1091 1161 1136 1194 1391 1393 1370 1229 1254 830 1296 1256
133 310 650 1131 1569 1771 1860 1943 2150 2485 2593 2406 2220 2306 2406 2408 2328 2218 1813 1506 1057 1088 1106 1565 1705 1769 1548 1366 1254 1216 1049 989 1082 1129 1255 689 598 1182 1233 972 759 1262 1337
199 333 644 1129 1473 1662 1698 1752 2018 2012 2167 2469 2565 2432 2240 2190 2337 1791 1112 674 510 967 1448 1543 1668 1639 1553 1282 1078 883 831 835 1067 1196 1016 610 502 821 1110 992 1310 1504 1491
320 356 599 1077 1396 1572 1665 1644 1758 1760 2093 2367 2391 2308 2221 2079 1873 1703 1223 1077 1233 1276 1255 1439 1526 1222 1320 1158 893 825 871 675 694 750 609 589 474 535 855 1104 1339 1773 1550
349 376 526 976 1391 1583 1716 1605 1634 1636 1741 2068 2373 2301 2051 1823 1397 785 451 728 1412 1585 1735 1255 1520 1529 1088 510 278 492 162 91 356 363 570 480 614 622 1021 1514 1184 1132 1234
422 515 551 857 1298 1673 1663 1508 1535 1621 1700 1810 2008 2245 2011 1876 1921 1822 1624 1054 1588 1411 1299 1471 1181 1353 1076 283 44 103 145 72 209 191 247 343 288 745 1184 1505 1264 1129 1163
556 706 831 976 992 1083 1306 1390 1359 1427 1448 1663 1748 1861 1932 1790 1783 1633 1725 1843 1374 755 355 290 341 827 558 542 638 430 282 286 375 224 121 143 233 566 649 1643 1249 1302 1378
677 804 879 957 994 946 842 875 1007 1272 1332 1506 1519 1508 1259 1226 1277 1331 1431 1406 1371 1328 1232 756 284 269 352 424 459 466 313 260 50 25 39 13 67 309 609 1562 1432 1310 1317
681 749 693 777 805 557 388 620 554 878 1114 1196 1243 1086 847 806 788 988 974 913 836 507 549 623 661 458 285 225 138 94 76 16 0 0 0 0 94 279 980 1654 1567 1350 1257
904 740 641 693 629 318 73 172 571 625 838 1036 1104 814 512 280 198 95 430 477 203 48 3 0 0 0 0 0 0 0 12 0 0 0 0 0 92 589 856 1103 1161 909 1121
777 546 597 617 582 284 127 77 234 325 406 404 470 457 218 52 3 27 48 131 61 1 0 0 0 0 0 0 0 0 0 0 0 0 0 0 1 352 605 854 937 883 813
187 1 15 33 76 171 151 16 44 121 95 112 109 79 66 23 0 0 0 1 0 0 0 0 0 0 0 0 0 0 0 0 0 0 0 0 0 0 47 393 435 526 748
0 0 0 0 0 0 0 12 96 53 3 0 0 0 0 0 0 0 0 0 0 0 0 0 0 0 0 0 0 0 0 0 0 0 0 0 0 4 20 50 233 349 471
0 0 0 0 0 0 0 0 0 0 0 0 0 0 0 0 0 0 0 0 0 0 0 0 0 0 0 0 0 0 0 0 0 0 0 0 0 0 23 123 95 96 247
0 0 0 0 0 0 0 0 0 0 0 0 0 0 0 0 0 0 0 0 0 0 0 0 0 0 0 0 0 0 0 0 0 0 0 0 0 1 1 1 75 162 137
0 0 0 0 0 0 0 0 0 0 0 0 0 0 0 0 0 0 0 0 0 0 0 0 0 0 0 0 0 0 0 0 0 0 0 0 0 0 0 8 0 0 150
0 0 0 0 0 0 0 0 0 0 0 0 0 0 0 0 0 0 0 0 0 0 0 0 0 0 0 0 0 0 0 0 0 0 0 0 0 0 0 0 0 1 25
0 0 0 0 0 0 0 0 0 0 0 0 0 0 0 0 0 0 0 0 0 0 0 0 0 0 0 0 0 0 0 0 0 0 0 0 0 0 0 0 0 0 0
0 0 0 0 0 0 0 0 0 0 0 0 0 0 0 0 0 0 0 0 0 0 0 0 0 0 0 0 0 0 0 0 0 0 0 0 0 0 0 0 0 0 0
0 0 0 0 0 0 0 0 0 0 0 0 0 0 0 0 0 0 0 0 0 0 0 0 0 0 0 0 0 0 0 0 0 0 0 0 0 0 0 0 0 0 0
0 0 0 0 0 0 0 0 0 0 0 0 0 0 0 0 0 0 0 0 0 0 0 0 0 0 0 0 0 0 0 0 0 0 0 0 0 0 0 0 0 0 0
0 0 0 0 0 0 0 0 0 0 0 0 0 0 0 0 0 0 0 0 0 0 0 0 0 0 0 0 0 0 0 0 0 0 0 0 0 0 0 0 0 0 0
0 0 0 0 0 0 0 0 0 0 0 0 0 0 0 0 0 0 0 0 0 0 0 0 0 0 0 0 0 0 0 0 0 0 0 0 0 0 0 0 0 0 0
0 0 0 0 0 0 0 0 0 0 0 0 0 0 0 0 0 0 0 0 0 0 0 0 0 0 0 0 0 0 0 0 0 0 0 0 0 0 0 0 0 0 0
0 0 0 0 0 0 0 0 0 0 0 0 0 0 0 0 0 0 0 0 0 0 0 0 0 0 0 0 0 0 0 0 0 0 0 0 0 0 0 0 0 0 0

GFSSE_con_sbcape_021.txt.gz
CAPE
326 653 847 1111 1173 1264 1311 1315 1380 1508 1691 1943 2059 2096 2102 2005 1879 1824 1787 1748 1855 1912 2094 2002 1835 1676 1303 1404 1568 1534 1530 1534 1490 1733 1729 1550 1395 1334 1650 1675 1598 1275 1665
372 698 775 1197 1273 1373 1565 1531 1681 1693 1910 1978 2031 2089 1988 1972 1864 1796 1852 1968 1964 1747 1904 1917 2037 1866 1615 1474 1412 1416 1439 1313 1422 1787 1881 1745 1775 1328 1480 1494 1416 1305 1787
401 671 911 1129 1288 1434 1756 2013 2103 2245 2249 2225 2125 2212 2288 2266 2156 1836 1310 824 1019 1357 1676 1717 1822 2005 1830 1531 1542 1437 1292 1295 1226 1317 1399 795 908 1548 1516 1249 1634 1457 1449
283 540 953 1113 1260 1418 1518 1757 2021 2136 2450 2514 2489 2391 2403 2270 2097 1634 1016 906 1078 1389 1356 1493 1714 1847 1882 1596 1379 1341 1299 1120 1144 1185 963 776 815 1096 1416 1532 1330 1474 1308
234 481 973 1074 1177 1271 1367 1548 1837 1927 2213 2336 2467 2485 2381 2263 2000 1555 1055 973 1178 1591 1566 1623 1905 1754 1632 1416 885 376 285 277 679 831 1224 1046 742 908 1183 1300 1192 1314 1394
262 502 838 936 1053 1203 1374 1393 1371 1476 1891 2070 2168 2163 1947 1603 1454 1109 789 866 1169 1769 1899 1634 1714 1726 1216 759 635 408 453 434 434 604 1103 1203 1178 832 1143 1330 1403 1116 1244
174 347 738 842 1080 1350 1222 1166 1355 1463 1488 1635 1837 1970 1965 1944 1841 1605 970 1162 1597 1156 1009 1265 1126 1466 986 583 481 634 523 556 805 1087 1153 977 966 775 1279 1185 1518 1365 1029
132 303 562 847 1073 1185 1172 1145 1162 1280 1314 1304 1624 1571 1527 1472 1422 1427 1466 1346 1238 1182 1060 512 672 602 624 666 695 512 394 317 633 546 398 237 331 510 732 1129 1241 1169 984
322 408 538 638 688 603 602 688 842 969 1118 1105 1092 940 909 978 1130 1096 1180 1028 1011 1033 1046 897 652 405 279 134 158 175 80 8 236 98 4 79 115 738 1017 925 1606 1404 1171
576 545 668 790 636 532 558 331 470 746 878 976 882 604 434 463 623 534 684 485 385 350 340 223 50 4 0 0 0 2 0 0 26 0 0 0 2 256 840 1096 1090 1519 1201
592 758 779 845 807 560 267 319 354 455 687 791 741 396 328 605 432 393 272 185 75 17 5 0 0 0 0 0 0 0 0 0 0 0 0 0 0 100 292 411 796 849 931
1030 1003 848 977 1053 706 235 240 481 555 739 870 963 772 615 454 262 95 45 34 1 0 0 0 0 0 0 0 0 0 0 0 0 0 0 0 0 46 204 205 265 543 518
1296 1240 1073 1002 1003 1009 929 340 286 423 626 661 628 793 659 423 330 208 93 79 64 0 0 0 0 0 0 0 0 0 0 0 0 0 0 0 0 0 3 184 196 188 252
1173 1455 1251 945 706 613 594 706 358 409 533 664 641 513 590 639 613 365 137 88 49 0 0 0 0 0 0 0 0 0 0 0 0 0 0 0 0 0 0 0 4 133 179
953 1086 760 226 29 41 33 247 381 420 609 614 448 319 322 432 443 214 114 13 0 0 0 0 0 0 0 0 0 0 0 0 0 0 0 0 0 0 0 0 0 0 0
564 687 60 1 22 13 32 110 291 302 333 260 255 174 15 78 65 16 0 0 0 0 0 0 0 0 0 0 0 0 0 0 0 0 0 0 0 0 0 0 0 0 0
49 51 0 0 0 0 0 0 1 2 0 0 3 0 0 0 0 5 10 15 0 0 0 0 0 0 0 0 0 0 0 0 0 0 0 0 0 0 0 0 0 0 0
0 0 0 0 0 0 0 0 0 0 0 0 0 0 0 0 0 0 0 8 30 0 0 0 0 0 0 0 0 0 0 0 0 0 0 0 0 0 0 0 0 0 0
0 0 0 0 0 0 0 0 0 0 0 0 0 0 0 0 0 0 0 0 25 16 0 0 0 0 0 0 0 0 0 0 0 0 0 0 0 0 0 0 0 0 0
0 0 0 0 0 0 0 0 0 0 0 0 0 0 0 0 0 0 0 0 0 0 0 0 0 0 0 0 0 0 0 0 0 0 0 0 0 0 0 0 0 0 0
0 0 0 0 0 0 0 0 0 0 0 0 0 0 0 0 0 0 0 0 0 0 0 0 0 0 0 0 0 0 0 0 0 0 0 0 0 0 0 0 0 0 0
0 0 0 0 0 0 0 0 0 0 0 0 0 0 0 0 0 0 0 0 0 0 0 0 0 0 0 0 0 0 0 0 0 0 0 0 0 0 0 0 0 0 0
0 0 0 0 0 0 0 0 0 0 0 0 0 0 0 0 0 0 0 0 0 0 0 0 0 0 0 0 0 0 0 0 0 0 0 0 0 0 0 0 0 0 0
0 0 0 0 0 0 0 0 0 0 0 0 0 0 0 0 0 0 0 0 0 0 0 0 0 0 0 0 0 0 0 0 0 0 0 0 0 0 0 0 0 0 0
0 0 0 0 0 0 0 0 0 0 0 0 0 0 0 0 0 0 0 0 0 0 0 0 0 0 0 0 0 0 0 0 0 0 0 0 0 0 0 0 0 0 0
0 0 0 0 0 0 0 0 0 0 0 0 0 0 0 0 0 0 0 0 0 0 0 0 0 0 0 0 0 0 0 0 0 0 0 0 1 0 0 0 0 0 0

GFSSE_con_sbcape_024.txt.gz
CAPE
485 797 890 1006 1112 1240 1161 1180 1198 1326 1708 1964 1925 2040 1992 2130 2085 2057 2029 2037 2195 2057 2072 1939 1888 1543 1418 1471 1514 1581 1628 1709 1813 1830 1745 1720 1451 1543 1688 1503 1400 1201 1544
521 814 822 1037 1240 1402 1367 1367 1502 1662 1770 1911 1928 1596 1823 2003 2250 2220 2232 2232 2226 1972 1900 1906 2004 1859 1569 1330 1388 1426 1307 1364 1494 1693 1604 1656 1719 1485 1688 1552 1635 1530 1605
436 783 1019 1072 1327 1654 1851 1827 2039 1923 1816 1845 1897 2081 2036 2310 2129 1802 1360 1182 1493 1449 1593 1491 1741 1800 1850 1590 1524 1412 1416 1402 1463 1500 1205 807 773 1613 1683 1362 1672 1590 1584
383 672 1006 1009 1221 1419 1665 1892 2124 2052 2073 2011 1900 1908 1960 1980 1873 1451 1148 1367 1346 1455 1487 1585 1771 1997 1951 1549 1215 1047 937 888 1108 1167 1383 875 671 1246 1480 1604 1514 1581 1526
251 591 981 929 1049 1278 1362 1542 1661 1857 2034 2088 2300 2203 2210 2138 1795 1614 1186 1267 1297 1751 1708 1719 2087 1705 1360 854 704 406 280 402 369 567 1134 1192 1202 1172 1239 1428 1400 1479 1445
167 385 648 789 936 1164 1128 1057 1306 1650 1871 2039 2115 1970 1803 1632 1335 1018 788 846 1640 1704 1759 1727 1728 1474 912 719 662 635 505 442 488 962 884 1159 1250 1329 1176 1303 1426 1462 1173
100 214 353 736 946 1116 877 998 1121 1280 1461 1769 1870 1906 1909 1890 1751 1591 1030 1460 1230 914 843 724 997 1030 595 382 666 741 737 726 816 1148 1229 1225 1267 576 954 1289 1440 1453 1546
96 303 303 636 940 925 966 975 1068 1169 1192 1433 1435 1446 1419 1391 1376 1455 1405 1283 1164 1174 658 639 639 764 768 714 584 487 359 339 858 1109 979 973 386 873 988 909 1368 1398 1391
144 318 537 632 537 537 579 690 776 959 1015 1042 957 936 934 1006 1074 1145 1062 1025 1017 990 893 720 449 299 192 133 207 126 47 13 879 740 416 612 128 525 995 1070 1239 1649 1545
554 682 897 951 897 882 731 282 586 709 811 848 661 544 452 633 580 673 600 448 372 337 269 111 6 0 0 0 0 0 0 2 702 534 401 264 19 261 683 967 1126 1172 1300
848 1171 1229 1134 1290 1093 665 607 230 510 674 695 662 332 333 868 757 653 151 96 18 0 0 0 0 0 0 0 0 0 0 26 152 210 283 0 2 172 358 402 740 898 994
1049 1270 1491 1673 1652 1451 553 805 951 852 891 1048 1078 1058 804 1051 840 326 133 12 2 0 0 0 0 0 0 0 0 0 0 0 0 7 30 0 0 12 163 296 265 541 659
1051 1315 1569 1882 1959 1631 712 620 463 626 799 1058 1306 1310 1143 1024 990 940 801 661 615 0 71 0 0 0 0 0 0 0 0 0 0 0 0 0 0 0 0 20 232 264 283
775 1181 1827 1928 1782 1317 452 299 435 526 659 866 1011 1460 1308 983 838 905 702 528 427 119 118 1 0 0 0 0 0 0 0 0 0 0 0 0 0 0 0 0 0 36 95
483 911 1805 1973 1424 332 563 467 722 875 679 925 1078 991 1295 761 604 552 337 218 66 4 5 5 4 6 0 0 0 0 0 0 0 0 0 0 0 0 0 0 0 0 0
915 1247 1837 1546 621 309 357 595 485 661 520 744 472 425 1080 994 461 184 8 0 0 0 0 0 0 0 0 0 0 0 0 0 0 0 0 0 0 0 0 0 0 0 0
778 1160 1638 1228 460 364 321 252 191 90 289 72 16 189 344 462 100 76 8 0 0 0 25 65 6 0 0 0 0 0 0 0 0 0 0 0 0 0 0 0 0 0 0
1070 945 1033 558 259 263 162 110 11 0 0 0 0 7 31 64 80 49 8 0 0 5 0 0 0 0 0 0 0 0 0 0 0 0 0 0 0 0 0 0 0 0 0
530 665 787 794 450 173 93 36 24 31 24 0 8 2 1 12 24 53 34 22 37 40 21 33 9 0 0 0 0 0 0 0 0 0 0 0 0 0 0 0 0 0 0
23 134 278 415 223 61 39 9 2 9 3 0 0 0 0 0 0 4 2 17 47 57 37 42 69 42 0 0 0 0 0 0 0 0 0 0 0 0 0 0 0 0 0
0 0 21 29 16 0 0 0 0 0 0 0 0 0 0 0 0 0 0 0 14 32 54 57 49 81 77 13 0 0 0 0 0 0 0 0 0 0 0 0 0 0 0
0 0 0 0 0 0 0 0 0 0 0 0 0 0 0 0 0 0 0 0 0 0 8 23 69 74 52 23 28 0 3 5 8 0 0 0 0 0 0 0 0 0 0
0 0 0 0 0 0 0 0 0 0 0 0 0 0 0 0 0 0 0 0 0 0 0 0 5 25 43 48 63 18 20 30 50 48 4 0 0 0 0 0 0 0 0
0 0 0 0 0 0 0 0 0 0 0 0 0 0 0 0 0 0 0 0 0 0 0 0 2 11 38 30 86 113 35 26 72 77 7 0 0 0 0 0 0 0 0
0 0 0 0 0 0 0 0 0 0 0 0 0 0 0 0 0 0 0 0 0 0 0 1 8 21 28 46 45 68 54 35 18 27 40 5 11 3 0 0 0 0 0
0 0 0 0 0 0 0 0 0 0 0 0 0 0 0 0 0 0 0 0 0 0 0 2 7 11 14 14 7 7 1 0 0 6 17 9 1 1 2 4 7 2 1

GFSSE_con_sbcape_027.txt.gz
CAPE
756 632 798 948 1187 1056 1035 1180 1252 1551 1941 2027 2048 2045 2103 2128 2016 2002 1853 2080 2021 1954 2003 1819 1809 1513 1349 1375 1562 1629 1662 1619 1786 1761 1651 1638 1417 1601 1629 1539 1543 1112 1192
632 773 845 1119 1263 1237 1312 1435 1590 1644 1854 1860 1813 1992 1965 1928 1906 1839 1690 1837 1825 1731 1736 1670 1786 1816 1587 1410 1389 1381 1357 1392 1396 1549 1355 1513 1616 1662 1514 1442 1727 1376 1474
685 804 870 1108 1551 1693 1746 1760 1862 1831 1762 1820 1941 1859 1768 1837 1785 1407 1182 1317 1377 1364 1387 1454 1636 1995 1921 1638 1539 1496 1400 1349 1339 1338 1397 582 1389 1782 1703 1480 1571 1621 1531
634 838 938 970 1230 1430 1597 1781 2017 1915 1880 1915 1848 1711 1764 1812 1549 1378 1324 1240 1439 1631 1684 1850 2028 1877 1742 1371 1005 793 613 559 869 1295 939 1473 951 1592 1629 1539 1550 1485 1508
420 869 870 855 1018 1229 1444 1583 1740 1860 1963 2118 2313 2138 2075 1849 1673 1561 1276 1227 1286 1796 1742 1638 1826 1372 1051 872 610 457 300 397 553 414 1011 1303 1513 1443 1459 1514 1411 1572 1505
388 559 579 703 863 1032 993 1170 1474 1654 1785 2023 2145 1945 1793 1645 1367 1067 845 1423 1635 1398 1834 1843 1664 1181 787 696 611 576 529 570 689 836 1281 1375 1154 1402 1504 1246 1547 1462 1295
119 229 390 666 895 978 741 827 932 1187 1516 1764 1848 1863 1869 1779 1668 1579 1264 1369 1094 1030 770 796 1130 853 520 397 647 734 766 823 671 972 1120 1195 1216 1188 1169 1289 1444 1609 1744
41 91 75 548 865 910 814 838 974 1030 1100 1332 1323 1349 1316 1290 1344 1317 1276 1209 1170 947 769 728 770 730 680 589 500 420 336 329 792 820 621 941 655 853 1243 1182 1220 1355 1565
13 109 242 381 350 646 613 679 808 884 893 812 691 719 783 909 990 991 925 911 846 652 608 430 283 199 117 123 175 89 72 209 481 608 459 424 302 520 895 1175 1267 1414 1428
107 258 411 484 649 811 714 400 595 720 740 663 475 389 503 602 633 628 613 454 405 362 233 74 1 0 0 0 0 0 0 60 496 178 308 64 155 360 590 727 1080 1175 1372
361 503 622 584 743 551 366 387 293 567 721 589 540 308 377 986 765 687 156 108 25 0 0 0 0 0 0 0 0 0 0 0 0 3 148 32 36 136 345 430 500 963 1006
427 616 783 947 1015 699 66 361 492 388 734 725 715 698 672 692 772 102 190 20 3 0 0 0 0 0 0 0 0 0 0 0 0 0 37 0 0 0 29 275 348 475 678
439 460 545 1290 1106 745 338 135 204 247 297 698 827 804 757 586 635 606 567 806 904 70 246 6 7 0 0 0 0 0 0 0 0 0 1 0 0 0 0 0 126 318 313
402 314 537 1069 1116 671 167 21 86 105 338 357 682 729 700 453 460 473 241 175 106 58 58 27 19 8 2 0 0 0 0 0 0 0 0 0 0 0 0 0 0 0 41
114 129 618 1332 1665 194 128 121 181 310 381 636 485 469 466 265 301 191 120 24 2 3 6 10 10 7 13 4 0 0 0 0 0 0 0 0 0 0 0 0 0 0 0
71 235 517 1385 1669 206 85 217 168 333 292 403 190 178 181 243 141 78 19 0 0 0 2 0 0 0 0 0 0 0 0 0 0 0 0 0 0 0 0 0 0 0 0
130 304 725 1473 1399 594 204 186 31 14 5 2 0 1 33 67 38 56 32 23 8 7 83 12 8 11 17 10 2 0 0 0 0 0 0 0 0 0 0 0 0 0 0
197 334 680 1004 1092 1015 161 85 10 2 8 0 0 0 4 28 51 67 53 54 43 99 41 40 38 40 41 28 18 2 0 0 0 0 0 0 0 0 0 0 0 0 0
346 462 666 969 1218 960 238 112 41 40 43 3 5 11 1 11 8 39 38 37 111 53 104 147 119 207 124 76 24 26 13 1 1 0 0 0 0 0 0 0 0 0 0
119 307 541 781 1025 699 281 100 31 24 20 2 2 0 0 0 0 0 7 51 81 60 157 219 346 201 231 240 52 25 82 16 11 12 1 0 0 0 0 0 0 0 0
0 20 281 491 338 149 104 44 11 3 0 0 0 0 0 0 0 1 1 1 42 38 139 260 277 287 294 354 261 274 188 115 62 9 11 10 6 2 3 0 1 0 0
0 0 0 0 0 0 0 0 0 0 0 0 3 0 0 0 0 0 0 0 0 0 20 88 206 212 274 358 244 246 154 154 196 92 16 4 16 2 10 6 1 0 0
0 0 0 0 0 0 0 0 0 0 0 0 0 2 0 0 0 0 0 0 0 0 0 55 87 135 148 155 390 314 212 166 244 282 233 138 119 99 29 26 4 0 0
0 0 0 0 0 0 0 0 0 3 5 8 5 1 0 0 0 0 0 0 0 0 5 12 21 137 175 111 165 159 211 217 194 277 194 97 97 79 159 75 39 25 1
0 0 0 0 0 0 0 0 0 0 0 0 0 0 0 0 0 0 0 0 0 0 8 12 22 29 26 50 66 35 0 1 47 0 32 156 41 37 11 48 31 15 15
0 0 0 0 0 0 0 0 0 0 0 0 0 0 0 0 0 0 0 0 1 4 22 29 31 14 8 10 16 12 7 3 1 2 1 3 16 64 4 0 5 4 21

GFSSE_con_sbcape_030.txt.gz
CAPE
449 560 984 1228 1108 1079 1110 1199 1357 1669 1847 1936 1870 1957 2004 1979 1969 1902 1991 1987 2126 2096 1731 1761 2062 1936 1385 1282 1439 1710 1661 1623 1684 1753 1578 1574 1605 1571 1415 1684 1473 942 1816
614 632 941 1217 1203 1298 1367 1363 1443 1656 1920 1970 1939 1897 1894 1954 1886 1873 1921 1967 2021 1759 1431 1527 1831 1846 1745 1525 1575 1623 1567 1488 1447 1565 1622 1395 1765 1673 1456 1884 1773 1454 1643
572 687 873 1175 1414 1522 1665 1730 1705 1685 1882 1942 1917 1932 2011 1937 1530 1468 1570 1784 1778 1612 1703 1932 1961 2002 1812 1540 1416 1248 1082 1124 1179 1318 1481 757 911 1491 1537 1926 1794 1953 1862
809 675 799 966 1237 1411 1571 1793 1834 1823 1943 1947 1920 1987 1980 1742 1523 1309 1241 1475 1443 1682 1680 1976 1881 1737 1507 1131 802 566 515 619 659 735 262 774 1164 1400 1571 1570 1715 1592 1503
778 631 598 771 978 1244 1405 1601 1720 1831 1963 2129 2161 2059 1864 1703 1644 1390 1179 1513 1679 1584 1605 1802 1569 1041 862 733 652 635 645 707 715 347 64 688 853 1505 1479 1450 1248 1427 1271
475 446 389 557 748 937 1177 1381 1475 1559 1697 1830 1902 1860 1650 1540 1347 994 1766 1386 1210 1191 1488 1613 1316 926 651 611 575 571 683 810 746 168 768 1097 1075 1527 1402 1500 1234 1336 1235
251 242 240 536 790 868 864 804 1055 1316 1535 1640 1680 1625 1528 1448 1444 1362 1257 1089 1036 763 705 792 766 608 471 520 608 609 635 577 403 461 536 912 1155 1597 1490 1274 1386 1273 1253
6 2 70 580 766 814 873 863 857 998 1110 1221 1264 1218 1100 1121 1123 1062 1044 992 941 846 748 680 621 557 466 375 334 307 300 322 177 380 605 456 1046 1086 1171 1343 1467 1365 1283
0 0 44 129 374 560 547 637 654 680 667 712 737 743 824 920 957 852 837 724 598 513 433 325 196 112 45 39 81 93 133 192 52 157 379 133 845 835 873 926 1144 1349 1153
2 29 226 201 314 335 333 435 521 567 471 426 390 362 490 554 729 762 586 408 262 195 113 44 0 0 0 0 0 0 0 0 0 21 48 115 566 549 557 598 705 1095 1134
59 501 474 521 815 915 428 362 444 554 507 402 320 265 140 650 534 690 131 182 70 10 0 0 0 0 0 0 0 0 0 0 0 0 1 96 136 187 263 387 436 599 911
360 391 836 861 1020 614 46 266 652 627 611 577 644 593 773 591 548 120 231 111 115 52 29 10 0 0 0 0 0 0 0 0 0 0 0 0 0 0 0 42 336 394 615
393 495 576 1338 1160 844 597 343 581 641 850 1087 834 760 892 657 717 621 298 29 67 146 110 16 0 0 5 0 0 0 0 0 0 0 0 0 0 0 0 0 9 293 340
308 402 814 1101 1168 727 244 356 420 301 878 598 1097 870 961 673 685 339 308 99 131 115 159 41 15 38 12 10 1 0 0 0 0 0 0 0 0 0 0 0 0 45 205
393 273 769 1207 1349 843 205 635 678 549 902 718 624 819 611 353 564 336 148 63 9 0 0 1 0 0 0 6 8 0 0 0 0 0 0 0 0 0 0 0 0 0 0
154 405 1066 1490 1800 452 297 420 474 778 712 715 441 331 192 352 350 165 90 27 2 0 0 0 0 0 0 0 0 0 0 0 0 0 0 0 0 0 0 0 0 0 0
191 471 955 1537 1786 823 411 379 220 219 43 100 89 56 52 65 128 99 71 53 19 44 40 10 0 0 0 0 0 0 0 0 0 0 0 0 0 0 0 0 0 0 0
194 379 811 874 1649 1428 921 357 164 88 84 30 6 15 4 10 60 71 82 90 100 90 50 47 46 17 8 8 0 0 0 0 0 0 0 0 0 0 0 0 0 0 0
550 584 696 978 1310 1440 1025 277 225 78 48 66 54 33 46 6 59 32 30 50 95 55 50 59 29 51 39 32 13 0 0 2 0 0 0 0 0 0 0 0 0 0 0
294 459 582 778 1295 1153 492 230 97 60 56 71 31 2 0 0 8 9 0 13 73 31 25 41 75 89 92 82 62 41 5 5 0 0 0 0 0 0 0 0 0 0 0
127 185 255 114 153 80 198 76 11 3 0 0 0 5 3 16 0 0 0 0 0 0 0 0 0 0 0 67 93 16 0 0 11 0 0 0 0 0 0 0 0 0 0
0 0 0 0 0 0 0 0 0 0 0 4 16 0 7 5 0 0 0 0 0 0 0 0 0 0 0 4 68 51 5 0 0 2 31 0 0 0 0 0 0 0 0
0 0 0 0 0 0 0 0 0 0 5 2 5 3 0 0 0 0 0 0 0 0 0 0 0 0 1 0 7 81 41 13 10 0 4 14 23 5 12 0 0 0 0
0 0 0 0 0 0 0 0 0 0 0 0 0 0 0 0 0 0 0 0 0 0 0 0 0 2 6 0 0 5 3 1 15 2 2 8 108 72 28 0 0 0 0
0 0 0 0 0 0 0 0 0 0 0 0 0 0 0 0 0 0 0 0 0 0 0 7 0 0 0 0 0 0 0 0 0 9 2 0 0 0 0 0 0 0 0
0 0 0 0 0 1 0 0 0 0 0 0 0 0 0 0 0 0 0 0 0 0 0 0 0 1 0 0 0 0 2 8 6 4 2 0 0 0 0 0 0 0 0

GFSSE_con_sbcape_033.txt.gz
CAPE
424 715 880 887 865 872 949 1094 1266 1393 1591 1661 1773 1843 1735 1724 1779 1845 1926 1935 1899 1947 1641 1740 2220 1831 1585 1471 1472 1542 1569 1463 1302 1400 1573 1449 1409 1563 1485 2010 1611 1281 2124
514 770 744 941 1074 1080 1126 1224 1396 1565 1705 1782 1740 1699 1732 1637 1627 1681 1748 1790 1812 1601 1639 1806 1966 2090 1867 1654 1581 1548 1446 1276 1125 1159 1380 1268 1522 1543 1623 1893 1663 1703 1792
592 730 872 976 1214 1350 1441 1399 1513 1698 1760 1769 1838 1851 1717 1518 1482 1416 1386 1656 1879 1594 1855 1966 1927 1870 1721 1389 1135 894 882 823 732 829 1027 512 666 1485 1269 1815 1817 2077 1963
563 657 771 881 1074 1285 1366 1455 1546 1696 1710 1736 1865 1832 1747 1524 1338 1244 1205 1581 1773 1534 1584 1836 1677 1419 1229 997 794 726 774 747 675 700 2 508 658 1220 1122 1574 1730 1819 1789
353 429 568 691 897 1147 1293 1389 1467 1613 1696 1770 1783 1823 1603 1411 1193 1112 1520 1568 1372 1655 1802 1740 1382 941 683 683 708 812 863 914 817 422 1 643 1044 1578 1171 1227 1319 1390 1129
186 213 349 476 739 1030 1185 1297 1337 1411 1439 1505 1556 1633 1447 1396 1119 1315 1124 1111 925 942 1281 1398 988 646 445 395 582 712 679 638 594 39 66 1044 980 1312 1400 1481 1141 966 945
38 76 195 396 623 773 820 831 1103 1230 1257 1368 1424 1401 1252 1190 1194 1038 991 879 678 573 523 526 488 431 461 457 434 364 284 244 141 2 115 808 1421 1749 1597 1426 1208 1081 1023
0 10 185 515 583 636 658 638 676 773 867 958 1045 1091 936 995 1055 882 840 772 703 643 530 414 320 241 211 199 210 146 76 88 36 0 156 322 1251 1471 1494 1295 1158 1104 1135
0 0 41 197 339 345 315 333 373 444 492 529 567 628 653 694 769 849 761 553 470 373 281 150 52 9 3 0 2 1 0 0 0 0 44 32 889 923 911 929 1113 1188 1259
0 0 0 4 34 29 88 191 209 183 163 147 239 278 286 433 529 568 462 542 381 267 145 55 0 0 0 0 0 0 0 0 0 0 0 29 524 531 573 553 506 576 919
0 0 0 0 0 1 3 152 231 261 158 101 152 156 123 107 382 393 233 258 219 78 8 0 0 0 0 0 0 0 0 0 0 0 0 52 205 247 263 298 342 396 756
20 79 45 38 93 48 55 41 16 126 118 65 35 50 62 164 270 284 48 125 127 61 19 15 1 0 0 0 0 0 0 0 0 0 0 0 16 0 0 0 64 311 454
16 161 326 111 53 20 106 2 46 96 145 176 276 93 221 58 173 41 7 8 0 14 0 5 2 0 0 0 0 0 0 0 0 0 0 0 0 0 0 0 0 18 321
11 163 250 193 83 0 0 0 13 30 109 199 471 188 22 28 15 0 74 26 0 0 0 0 0 0 0 0 0 0 0 0 0 0 0 0 0 0 0 0 0 0 86
43 197 227 104 121 0 0 0 0 18 32 47 174 70 4 3 2 2 0 0 0 0 0 0 0 0 0 0 0 0 0 0 0 0 0 0 0 0 0 0 0 0 39
4 237 238 195 104 0 0 0 9 10 76 10 40 22 26 4 0 0 0 0 0 0 0 0 0 0 0 0 0 0 0 0 0 0 0 0 0 0 0 0 0 0 3
0 128 328 528 9 0 0 0 0 129 0 0 0 0 0 0 0 0 0 0 0 0 0 0 0 0 0 0 0 0 0 0 0 0 0 0 0 0 0 0 0 0 0
0 169 457 1079 39 1 23 17 0 0 0 0 0 0 0 0 0 0 0 0 0 0 0 0 0 0 0 0 0 0 0 0 0 0 0 0 0 0 0 0 0 0 0
26 85 75 618 462 437 42 4 0 0 0 0 0 0 0 0 0 0 0 0 0 0 0 0 0 0 0 0 0 0 0 0 0 0 0 0 0 0 0 0 0 0 0
0 0 0 0 3 15 0 0 0 0 0 0 0 0 0 0 0 0 0 0 0 0 0 0 0 0 0 0 0 0 0 0 0 0 0 0 0 0 0 0 0 0 0
0 0 0 0 0 0 0 0 0 0 0 0 0 0 0 0 0 0 0 0 0 0 0 0 0 0 0 0 0 0 0 0 0 0 0 0 0 0 0 0 0 0 0
0 0 0 0 0 0 0 0 0 0 0 0 0 0 0 0 0 0 0 0 0 0 0 0 0 0 0 0 0 0 0 0 0 0 0 0 0 0 0 0 0 0 0
0 0 0 0 0 0 0 0 0 0 0 0 0 0 0 0 0 0 0 0 0 0 0 0 0 0 0 0 0 0 1 7 1 0 0 0 0 0 0 0 0 0 0
0 0 0 0 0 0 0 0 0 0 0 0 0 0 0 0 0 0 0 0 0 0 0 0 0 0 0 0 0 0 0 4 15 1 0 0 0 0 0 0 3 3 0
0 0 0 0 0 0 0 0 0 0 0 0 0 0 0 0 0 0 0 0 0 0 0 0 0 0 0 0 0 0 0 0 0 0 0 0 0 0 0 0 0 0 4
0 0 0 0 0 0 0 0 0 0 0 0 0 0 0 0 0 0 0 0 0 0 0 0 0 0 0 0 0 0 2 1 2 7 7 1 3 0 0 0 0 0 0

GFSSE_con_sbcape_036.txt.gz
CAPE
513 617 575 739 841 925 1037 1074 1132 1221 1363 1563 1502 1488 1498 1593 1662 1706 1626 1660 1651 1661 1587 1757 1828 1732 1616 1506 1450 1409 1282 1325 1317 1250 1177 1419 1575 1495 1864 1827 1939 1660 2030
554 506 606 786 912 1027 1184 1267 1321 1408 1573 1629 1546 1495 1428 1494 1547 1579 1672 1781 1808 1727 1830 1853 1919 1784 1615 1475 1353 1187 1029 966 890 1038 1153 1003 1453 1413 1461 1765 1809 1994 2132
527 638 739 918 1110 1161 1302 1462 1547 1598 1658 1602 1470 1386 1375 1231 1043 996 1057 1486 1700 1496 1733 1705 1683 1571 1365 1061 852 746 743 936 796 858 686 200 547 1205 939 1437 1375 2031 2225
614 661 755 924 1094 1185 1233 1397 1484 1548 1619 1661 1501 1270 1139 1084 1012 1054 1257 1497 1502 1363 1739 1636 1270 1074 872 703 635 632 663 762 826 809 0 662 903 1569 972 1485 1377 1370 1706
417 524 675 808 981 1137 1192 1316 1412 1485 1520 1560 1542 1324 1201 1033 1166 1156 1024 1282 1239 1609 1604 1414 1158 770 466 402 491 538 539 565 632 13 0 210 832 1506 1057 1148 1299 1332 953
145 277 470 648 836 1055 1156 1243 1281 1291 1313 1370 1455 1445 1189 1101 988 855 837 689 674 702 820 545 439 361 361 430 413 332 342 315 145 0 0 729 904 1259 1309 1347 1115 1197 1093
23 76 215 383 648 939 1023 1041 1147 1196 1239 1311 1345 1298 1051 894 795 745 666 557 501 467 442 416 388 315 255 258 240 202 138 110 11 0 108 555 839 1322 1285 1273 1240 1042 969
0 33 138 384 466 552 667 671 680 780 847 915 1009 1066 872 813 776 658 641 590 535 447 338 233 134 91 64 51 51 28 5 5 0 0 0 276 810 1121 1128 1302 1215 1010 920
0 16 50 132 234 260 245 282 296 416 490 584 639 682 656 609 641 730 613 467 385 287 200 80 17 1 0 0 0 0 0 0 0 0 0 23 793 1038 974 1069 978 974 874
0 0 0 2 1 3 32 103 101 117 177 230 300 269 293 313 390 454 420 508 372 240 125 44 1 0 0 0 0 0 0 0 0 0 0 0 648 759 770 585 478 480 667
0 0 0 0 0 0 0 48 141 150 109 95 148 146 95 122 204 274 128 247 319 170 61 2 0 0 0 0 0 0 0 0 0 0 0 0 437 527 519 499 394 374 570
0 0 0 0 0 0 21 57 3 35 19 11 17 52 56 23 101 242 144 167 143 31 0 0 0 0 0 0 0 0 0 0 0 0 0 0 140 179 23 13 123 263 372
0 0 0 0 0 0 7 0 0 35 32 15 1 0 5 162 97 191 0 4 0 5 0 0 0 0 0 0 0 0 0 0 0 0 0 0 0 0 0 0 0 2 87
17 21 17 0 34 2 0 0 20 40 78 128 114 49 0 0 0 0 0 0 0 0 0 0 0 0 0 0 0 0 0 0 0 0 0 0 0 0 0 0 0 0 9
77 129 0 0 0 0 0 0 0 0 85 157 139 1 0 0 0 0 0 0 0 0 0 0 0 0 0 0 0 0 0 0 0 0 0 0 0 0 0 0 0 0 0
163 110 17 0 0 0 0 0 0 0 3 0 20 5 0 0 0 0 0 0 0 0 0 0 0 0 0 0 0 0 0 0 0 0 0 0 0 0 0 0 0 0 0
129 103 88 0 0 0 0 0 0 0 0 0 3 0 0 0 0 0 0 0 0 0 0 0 0 0 0 0 0 0 0 0 0 0 0 0 0 0 0 0 0 0 0
64 54 74 50 0 0 0 0 0 0 0 0 0 0 0 0 0 0 0 0 0 0 0 0 0 0 0 0 0 0 0 0 0 0 0 0 0 0 0 3 22 20 76
0 37 49 2 7 25 43 0 0 0 0 0 0 0 0 0 0 0 0 0 0 0 0 0 0 0 0 0 0 0 0 0 0 0 0 0 0 0 0 0 10 28 70
0 0 0 0 0 26 0 0 0 0 0 0 0 0 0 0 0 0 0 0 0 0 0 0 0 0 0 0 0 0 0 0 0 0 0 0 0 0 0 0 0 1 39
0 0 0 0 0 0 0 0 0 0 0 0 0 0 0 0 0 0 0 0 0 0 0 0 0 0 0 0 0 0 0 0 0 0 0 0 0 0 0 0 0 0 0
0 0 0 0 0 0 0 0 0 0 0 0 0 0 0 0 0 0 0 0 0 0 0 0 0 0 0 0 0 0 0 0 0 0 0 0 0 0 0 0 0 0 0
0 0 0 0 0 0 0 0 0 0 0 0 0 0 0 0 0 0 0 0 0 0 0 0 0 0 0 0 0 0 2 0 0 0 0 0 0 0 0 0 0 0 0
0 0 0 0 0 0 0 0 0 0 0 0 0 0 0 0 0 0 0 0 0 0 0 0 0 0 1 3 0 0 0 3 0 0 0 0 0 0 0 0 0 0 2
0 0 0 0 0 0 0 0 0 0 0 0 0 0 0 0 0 0 0 0 0 0 0 0 0 0 0 0 0 0 0 0 0 0 0 0 0 0 0 0 0 0 0
0 0 0 0 0 0 0 0 0 0 0 0 0 0 0 0 0 0 0 0 0 0 0 0 0 0 0 0 0 0 0 0 3 11 9 0 0 0 0 0 0 0 0

GFSSE_con_sbcape_039.txt.gz
CAPE
437 398 499 815 975 984 876 929 950 1089 1324 1368 1316 1353 1425 1497 1465 1490 1552 1559 1321 1472 1456 1709 1608 1488 1398 1301 1181 1054 942 904 1094 994 1065 1334 1452 1473 1990 2190 1958 1743 1823
403 324 482 794 990 1022 1078 1098 1148 1365 1419 1199 1245 1277 1297 1304 1257 1265 1460 1640 1711 1497 1529 1486 1512 1454 1269 1058 849 758 723 857 983 1003 870 878 1318 1252 1413 1891 1878 1996 1897
348 392 516 757 1061 1221 1320 1371 1473 1544 1259 1083 988 1052 998 895 833 840 1111 1283 1442 1397 1426 1401 1233 1102 929 783 688 678 712 707 722 755 356 104 429 888 958 1452 1633 1749 1933
447 509 607 781 995 1235 1323 1416 1465 1447 1283 1214 1059 974 950 899 992 1090 1104 1379 1391 1432 1151 1121 967 700 454 382 415 458 476 468 471 354 0 230 652 1366 1168 1343 1309 1522 1575
397 491 649 711 868 1105 1212 1299 1395 1459 1383 1345 1266 1056 997 1114 1022 899 858 1018 1231 1069 914 806 493 294 202 233 263 236 192 195 163 2 0 36 593 1207 998 1059 1165 1266 967
221 352 558 678 809 1025 1160 1232 1265 1296 1287 1293 1289 1162 1117 990 822 733 656 623 628 635 439 347 253 231 188 170 171 131 76 70 0 0 0 11 686 1206 1207 1192 1068 1062 1005
104 235 412 605 782 1020 1076 1038 1086 1132 1161 1246 1278 1233 965 786 712 634 542 487 448 434 398 285 204 138 97 84 41 20 0 0 0 0 0 229 467 1184 1205 1397 1292 1158 1112
18 46 171 442 620 808 911 888 854 911 929 923 994 1026 827 758 674 569 548 511 456 334 219 135 71 35 20 18 0 0 0 0 0 0 0 44 418 1186 892 1191 1103 1112 1008
0 0 8 75 201 291 286 328 392 505 543 583 678 700 688 622 570 650 582 499 382 239 145 56 15 0 0 0 0 0 0 0 0 0 0 0 276 752 658 702 839 916 1053
0 0 0 0 0 0 6 98 130 181 224 257 307 302 260 297 356 404 322 401 330 235 115 56 2 0 0 0 0 0 0 0 0 0 0 0 171 614 735 683 485 402 409
0 0 0 0 0 0 0 7 68 107 88 108 160 159 79 56 143 227 133 235 328 207 107 48 0 0 0 0 0 0 0 0 0 0 0 0 67 363 561 494 427 338 358
0 0 0 0 0 0 0 0 0 0 0 0 4 14 4 1 23 174 170 227 230 135 74 54 39 5 0 0 0 0 0 0 0 0 0 0 3 187 258 92 62 75 142
0 0 0 0 0 0 0 0 0 0 0 0 0 0 0 14 7 83 0 0 0 0 0 0 0 0 0 0 0 0 0 0 0 0 0 0 3 71 7 37 3 10 49
0 0 0 0 0 0 0 0 0 0 0 0 1 4 4 0 0 9 0 0 0 0 0 0 0 0 0 0 0 0 0 0 0 0 0 0 1 15 0 0 0 0 53
0 0 0 0 0 0 0 0 0 0 5 24 55 53 0 0 0 0 0 0 0 0 0 0 0 0 0 0 0 0 0 0 0 0 0 0 0 0 2 3 0 0 0
0 0 0 0 0 0 0 0 0 0 11 18 48 4 0 0 0 0 0 0 0 0 0 0 0 0 0 0 0 0 0 0 0 0 0 0 0 0 0 0 3 3 0
40 102 0 0 0 0 0 0 0 0 0 0 0 0 0 0 0 0 0 0 0 0 0 0 0 0 0 0 0 0 0 0 0 0 0 0 0 0 0 0 0 76 80
54 25 0 0 0 0 0 0 0 0 0 0 0 0 0 0 0 0 0 0 0 0 0 0 0 0 0 0 0 0 0 0 0 0 0 0 0 0 0 0 0 3 78
0 0 0 0 0 0 0 0 0 0 0 0 0 0 0 0 0 0 0 0 0 0 0 0 0 0 0 0 0 0 0 0 0 0 0 0 0 0 0 0 0 0 0
0 0 0 0 0 0 0 0 0 0 0 0 0 0 0 0 0 0 0 0 0 0 0 0 0 0 0 0 0 0 0 0 0 0 0 0 0 0 0 0 0 0 0
0 0 0 0 0 0 0 0 0 0 0 0 0 0 0 0 0 0 0 0 0 0 0 0 0 0 0 0 0 0 0 0 0 0 0 0 0 0 0 0 0 0 0
0 0 0 0 0 0 0 0 0 0 0 0 0 0 0 0 0 0 0 0 0 0 0 0 0 0 0 0 0 0 0 0 0 0 0 0 0 0 0 0 0 0 0
0 0 0 0 0 0 0 0 0 0 0 0 0 0 0 0 0 0 0 0 0 0 0 0 0 0 0 0 0 0 0 0 0 0 0 0 0 0 0 0 0 0 0
0 0 0 0 0 0 0 0 0 0 0 0 0 0 0 0 0 0 0 0 0 0 0 0 0 0 0 0 0 0 0 0 0 0 0 0 0 0 0 0 0 0 0
0 0 0 0 0 0 0 0 0 0 0 0 0 0 0 0 0 0 0 0 0 0 0 0 0 0 0 0 0 0 0 0 0 0 1 0 0 0 0 0 0 0 0
0 0 0 0 0 0 0 0 0 0 0 0 0 0 0 0 0 0 0 0 0 0 0 0 0 0 0 0 0 0 0 0 3 9 6 0 0 0 0 0 0 0 0

GFSSE_con_sbcape_042.txt.gz
CAPE
270 290 592 1034 1199 915 844 806 923 1045 1116 1244 1293 1321 1328 1306 1297 1243 1175 1266 1431 1232 1412 1285 1216 1144 1054 888 795 725 650 637 664 762 803 1174 1419 1526 2001 2176 1984 1687 1956
300 280 609 975 1051 940 945 1003 1169 1158 1161 1113 1157 1176 1161 1161 1187 1200 1390 1509 1466 1114 1126 1161 1088 941 806 705 665 715 686 613 612 588 563 537 959 1131 959 1496 1771 1924 2024
250 338 580 859 1069 1149 1214 1395 1410 1308 1075 908 900 960 895 752 760 922 988 1271 1276 1076 983 1018 869 670 503 411 388 455 457 373 377 411 202 164 259 980 1069 1538 1611 1707 1606
308 389 555 918 1137 1288 1355 1416 1369 1263 1014 1047 886 838 784 801 904 926 1057 1304 1386 759 652 814 631 333 189 171 175 164 182 214 152 59 0 8 458 1271 971 1478 1571 1609 1524
399 452 641 782 1021 1207 1292 1395 1423 1344 1232 1141 1039 867 927 997 874 767 840 1250 1059 769 652 382 178 144 122 142 123 97 49 72 6 0 0 0 298 1034 1043 957 958 1098 928
305 358 530 684 876 1089 1235 1319 1278 1201 1136 1154 1120 1076 1068 844 658 540 570 721 623 439 315 232 174 123 94 99 34 0 0 0 0 0 0 0 315 1128 1260 1389 835 924 874
217 326 450 626 806 1021 1095 1065 1092 1067 1062 1168 1184 1182 875 615 550 477 448 426 424 343 201 150 111 61 27 31 0 0 0 0 0 0 0 18 173 1207 1119 1365 1214 1089 1112
188 247 413 645 764 897 982 935 875 919 964 989 1023 992 772 690 611 454 429 408 318 205 134 86 45 6 6 1 0 0 0 0 0 0 0 0 258 989 778 1077 1246 1177 1172
26 31 115 316 529 604 619 628 678 692 641 667 699 685 624 496 506 551 497 355 218 141 72 44 30 1 0 0 0 0 0 0 0 0 0 0 52 498 590 640 601 716 766
0 0 0 0 0 0 98 245 301 307 305 370 395 328 262 266 327 235 190 239 167 125 111 109 20 0 0 0 0 0 0 0 0 0 0 0 68 283 440 593 587 428 284
0 0 0 0 0 0 0 19 137 192 160 152 168 188 90 0 62 125 56 84 142 83 105 163 134 30 4 0 0 0 0 0 0 0 0 0 0 21 127 418 631 179 101
0 0 0 0 0 0 0 0 0 0 0 0 0 6 0 0 0 67 87 97 143 122 104 75 63 26 5 0 0 0 0 0 0 0 0 0 0 0 34 96 473 165 172
0 0 0 0 0 0 0 0 0 0 0 0 0 0 0 0 0 9 0 0 0 0 0 0 0 0 0 0 0 0 0 0 0 0 0 0 0 0 0 0 204 105 142
0 0 0 0 0 0 0 0 0 0 0 0 0 0 0 0 0 0 0 0 0 0 0 0 0 0 0 0 0 0 0 0 0 0 0 0 0 0 8 16 27 141 166
0 0 0 0 0 0 0 0 0 0 0 0 5 17 5 0 0 0 0 0 0 0 0 0 0 0 0 0 0 0 0 0 0 0 0 0 0 0 0 0 22 0 91
0 0 0 0 0 0 0 0 0 0 0 3 36 47 0 0 0 0 0 0 0 0 0 0 0 0 0 0 0 0 0 0 0 0 0 0 0 0 0 0 0 0 2
0 0 0 0 0 0 0 0 0 0 0 0 0 1 0 0 0 0 0 0 0 0 0 0 0 0 0 0 0 0 0 0 0 0 0 0 0 0 0 0 0 0 0
0 0 0 0 0 0 0 0 0 0 0 0 0 0 0 0 0 0 0 0 0 0 0 0 0 0 0 0 0 0 0 0 0 0 0 0 0 0 0 0 0 0 0
0 0 0 0 0 0 0 0 0 0 0 0 0 0 0 0 0 0 0 0 0 0 0 0 0 0 0 0 0 0 0 0 0 0 0 0 0 0 0 0 0 0 0
0 0 0 0 1 0 0 0 0 0 0 0 0 0 0 0 0 0 0 0 0 0 0 0 0 0 0 0 0 0 0 0 0 0 0 0 0 0 0 0 0 0 0
0 0 0 0 0 0 0 0 0 0 0 0 0 0 0 0 0 0 0 0 0 0 0 0 0 0 0 0 0 0 0 0 0 0 0 0 0 0 0 0 0 0 0
0 0 0 0 0 0 0 0 0 0 0 0 0 0 0 0 0 0 0 0 0 0 0 0 0 0 0 0 0 0 0 0 0 0 0 0 0 0 0 0 0 0 0
0 0 0 0 0 0 0 0 0 0 0 0 0 0 0 0 0 0 0 0 0 0 0 0 0 0 0 0 0 0 0 0 0 0 0 0 0 0 0 0 0 0 0
0 0 0 0 0 0 0 0 0 0 0 0 0 0 0 0 0 0 0 0 0 0 0 0 0 0 0 0 0 0 0 0 0 1 0 0 0 0 0 0 0 0 0
0 0 0 0 0 0 0 0 0 0 0 0 0 0 0 0 0 0 0 0 0 0 0 0 0 0 0 0 0 0 0 0 0 2 7 0 0 0 0 0 0 0 0
0 0 0 0 0 0 0 0 0 0 0 0 0 0 0 0 0 0 0 0 0 0 0 0 0 0 0 0 0 1 2 1 1 15 15 10 7 0 0 0 0 0 0

GFSSE_con_sbcape_045.txt.gz
CAPE
366 344 763 1058 1000 892 850 904 928 1014 1170 1307 1345 1234 1177 1215 1194 1171 1323 1225 1236 1098 978 978 895 832 756 663 631 642 601 528 529 560 657 844 1124 1168 1434 1849 1611 1328 1750
425 448 789 1022 1000 873 954 1054 1068 1143 1273 1238 1260 1182 1163 1198 1264 1308 1421 1332 1163 964 977 904 772 653 550 458 448 429 371 309 328 403 382 575 693 760 1068 1473 1767 1469 1796
382 643 1000 965 1049 1048 1244 1294 1200 1239 1198 994 955 1032 952 826 867 902 1039 1297 1057 722 901 735 482 300 197 154 164 166 200 176 123 80 105 854 954 1140 934 1443 1557 1637 1660
500 811 1055 922 1132 1293 1391 1313 1224 1181 1097 1072 913 785 749 780 799 830 896 1287 976 572 651 313 92 83 110 118 118 69 39 29 0 5 288 767 922 1128 867 1141 1371 1118 1230
660 876 1126 1007 1162 1366 1358 1367 1276 1230 1122 1072 1004 837 925 892 822 837 1071 1133 763 464 232 110 91 76 61 41 3 0 0 0 0 4 344 573 1098 1157 1079 943 784 1017 1194
703 907 800 912 1084 1320 1469 1448 1287 1188 1052 1027 1041 1101 964 760 536 526 671 816 373 228 97 68 45 18 4 16 3 0 0 0 0 5 190 744 1030 1299 1123 1332 939 1102 1180
577 779 950 776 1011 1293 1397 1214 1116 1060 1025 1042 1154 1155 807 551 417 379 442 427 285 99 52 19 1 0 0 7 0 0 0 0 0 7 173 676 1008 1126 895 861 1175 1181 1005
549 618 755 732 888 1035 1103 997 899 928 969 991 1028 952 714 606 501 397 400 310 170 96 35 6 0 0 0 0 0 0 0 0 0 0 0 19 296 613 719 606 1092 982 551
523 588 704 803 849 800 751 749 748 794 763 731 731 684 534 449 482 513 445 273 129 52 34 0 0 0 0 0 0 0 0 0 0 0 0 0 51 194 280 577 662 638 276
274 374 469 551 666 764 771 554 569 499 425 455 432 324 205 245 259 234 132 208 125 128 148 72 70 2 0 0 0 0 0 0 0 0 0 0 0 0 0 115 517 497 311
29 63 72 136 187 224 280 342 264 273 262 239 227 157 80 304 351 223 47 65 150 165 143 148 143 62 6 0 0 0 0 0 0 0 0 0 0 0 0 18 658 594 297
0 0 0 0 0 6 0 167 168 148 133 160 253 324 294 394 439 320 188 39 99 49 19 5 0 0 18 6 0 0 0 0 0 0 0 0 0 5 14 79 266 479 524
0 0 0 0 0 0 0 6 0 28 30 65 200 228 315 344 437 571 584 336 254 0 46 0 0 0 0 0 0 0 0 0 0 0 0 0 0 0 19 32 118 290 299
0 0 0 0 0 0 0 0 0 0 15 73 124 201 402 586 617 574 536 402 115 0 0 0 0 0 0 0 0 0 0 0 0 0 0 0 0 0 0 0 15 30 156
0 0 0 0 0 0 0 1 0 10 138 238 311 439 510 661 541 198 187 8 0 0 0 0 0 0 0 0 0 0 0 0 0 0 0 0 0 0 0 0 0 0 0
0 0 0 0 8 0 0 0 0 76 161 256 402 470 327 126 18 0 0 0 0 0 0 0 0 0 0 0 0 0 0 0 0 0 0 0 0 0 0 0 0 0 0
0 0 20 0 0 0 0 0 0 0 0 0 2 1 0 9 0 0 0 0 0 0 0 0 0 0 0 0 0 0 0 0 0 0 0 0 0 0 0 0 0 0 0
0 82 0 0 0 0 0 0 0 0 0 0 0 0 0 0 0 0 0 0 0 0 0 0 0 0 0 0 0 0 0 0 0 0 0 0 0 0 0 0 0 0 0
23 21 16 0 0 2 1 0 0 0 0 0 0 0 0 0 0 0 0 0 0 0 0 0 0 0 0 0 0 0 0 0 0 0 0 0 0 0 0 0 0 0 0
17 44 5 7 7 4 0 0 0 0 0 0 0 0 0 0 0 0 0 0 0 0 0 0 0 0 0 0 0 0 0 0 0 0 0 0 0 0 0 0 0 0 0
172 222 131 1 1 0 0 0 0 0 0 0 0 0 0 0 0 0 0 0 0 0 0 0 0 0 0 0 0 0 0 0 0 0 0 0 0 0 0 0 0 0 0
98 159 2 0 0 0 0 0 0 0 0 0 0 0 0 0 0 0 0 0 0 0 0 0 0 0 0 0 0 0 0 0 0 0 0 0 0 0 0 0 0 0 0
0 0 0 0 0 0 0 0 0 0 0 0 0 0 0 0 0 0 0 0 0 0 0 0 0 0 0 0 5 2 0 0 2 0 0 0 0 0 0 0 0 0 8
0 0 0 0 0 0 0 0 0 0 0 0 0 0 0 0 0 0 0 0 0 0 0 0 0 0 1 1 5 11 17 23 11 8 8 0 0 0 2 1 2 1 1
0 0 0 0 0 0 0 0 0 0 0 0 0 0 0 0 0 0 0 0 0 0 0 0 0 0 0 1 10 9 3 10 17 32 31 20 28 17 2 2 4 4 0
0 0 0 0 0 0 0 0 0 0 0 0 0 0 0 0 0 0 0 0 0 0 0 0 0 0 0 2 16 27 32 32 35 34 44 41 57 39 23 12 11 3 4

GFSSE_con_sbcape_048.txt.gz
CAPE
366 788 872 989 1018 942 936 955 1060 1153 1243 1353 1296 1291 1267 1146 1058 1231 1213 1343 1153 875 849 824 738 655 572 529 457 390 317 264 350 434 675 910 786 722 1119 1326 1624 895 1573
465 854 797 1056 1017 987 1030 1089 1205 1302 1402 1203 1178 1183 1233 1242 1224 1128 1108 1067 944 811 749 692 526 392 277 202 157 139 148 121 127 155 415 652 1024 779 825 1214 1597 1195 1636
496 889 964 913 978 1098 1181 1251 1356 1388 1117 960 913 993 971 890 903 952 960 1039 700 678 518 309 137 111 112 126 76 29 15 0 9 114 382 782 1136 1032 791 1283 1479 1398 1288
596 828 1048 811 1033 1303 1309 1312 1371 1285 1104 1088 855 739 737 725 723 761 969 902 627 495 227 125 130 121 63 9 0 0 0 0 0 75 400 674 760 1165 1003 960 1162 989 955
842 1006 1204 932 1145 1420 1381 1426 1379 1286 1187 1103 994 840 858 839 909 1017 883 931 405 186 85 45 17 2 0 0 0 0 0 0 0 55 367 937 1021 1040 1146 858 913 990 915
997 1159 851 990 1180 1312 1524 1426 1345 1199 1064 1033 1130 993 827 591 496 606 635 564 219 57 17 0 0 0 0 0 0 0 0 0 0 0 142 617 1028 983 960 956 814 742 1096
1005 1262 1433 929 1199 1397 1533 1361 1210 1054 1010 1115 1205 976 609 434 396 430 416 298 80 21 0 0 0 0 0 0 0 0 0 0 0 0 0 238 636 733 702 654 553 459 384
971 1025 1124 938 1124 1276 1266 1046 906 919 953 1030 1000 852 566 464 416 352 254 134 38 0 0 0 0 0 0 0 0 0 0 0 0 0 0 3 42 119 128 520 740 575 194
807 1017 1100 1197 1042 836 764 711 736 817 840 804 730 685 564 522 552 435 338 122 39 25 9 0 0 0 0 0 0 0 0 0 0 0 0 0 0 3 0 2 309 549 215
782 801 785 737 703 727 798 608 639 606 504 484 487 337 304 283 254 256 223 169 66 65 33 22 23 0 0 0 0 0 0 0 0 0 0 0 0 0 0 0 0 80 109
700 718 547 432 483 445 334 476 340 303 302 266 267 175 118 373 441 306 28 102 111 93 59 28 1 0 0 0 0 0 0 0 0 0 0 0 0 2 10 11 370 359 356
466 236 224 225 193 115 5 154 188 74 39 340 421 499 505 718 795 583 317 68 82 8 0 0 0 0 9 0 0 0 0 0 0 0 0 0 0 0 18 35 62 296 427
52 2 45 128 122 35 20 31 5 16 184 582 775 785 865 804 945 965 1025 842 789 32 124 0 8 0 24 23 1 8 0 0 0 0 0 0 0 0 0 0 5 30 148
0 3 38 73 128 105 20 16 105 223 516 617 784 929 1073 1300 1129 1060 974 1005 833 210 101 39 28 52 9 0 0 0 0 0 0 0 0 0 0 0 0 0 0 0 0
0 18 127 159 103 146 265 357 429 578 673 888 902 1067 1237 1326 1292 1028 967 674 328 167 101 83 28 0 0 0 0 0 0 0 0 0 0 0 0 0 0 0 0 0 0
0 29 308 342 367 371 488 590 661 701 727 956 1047 1251 1134 951 551 356 241 202 128 18 0 0 0 0 0 0 0 0 0 0 0 0 0 0 0 0 0 0 0 0 0
0 99 381 501 586 587 375 126 37 4 65 136 260 287 470 499 339 212 161 16 0 0 0 0 0 0 0 0 0 0 0 0 0 0 0 0 0 0 0 0 0 0 0
2 257 408 419 434 187 128 80 2 3 0 9 56 71 51 40 15 2 0 0 0 0 0 0 0 0 0 0 0 0 0 0 0 0 0 0 0 0 0 0 0 0 0
171 459 514 501 208 12 0 1 1 0 3 0 0 0 0 0 0 0 0 0 0 0 0 0 0 0 0 0 0 0 0 0 0 0 0 0 0 0 0 0 0 0 0
538 642 619 477 14 0 3 0 0 0 0 0 0 0 0 0 0 0 0 0 0 0 0 0 0 0 0 0 0 0 0 0 0 0 0 0 0 0 0 0 0 0 0
644 586 665 306 29 12 0 0 0 0 0 0 0 0 0 0 0 0 0 0 0 0 0 0 0 0 0 0 0 0 0 0 28 15 7 0 0 0 0 0 0 0 0
725 687 654 499 285 440 190 22 0 0 0 0 0 0 0 0 0 0 0 0 0 0 0 0 0 0 0 0 2 0 0 0 0 26 27 20 12 3 1 3 5 2 0
859 763 601 597 545 135 0 0 0 0 0 0 0 0 0 0 0 0 0 0 0 0 0 0 0 0 0 0 4 8 7 3 3 0 15 25 25 16 15 15 14 16 12
97 69 29 67 29 1 0 0 0 0 11 0 0 0 0 0 0 0 0 0 0 0 0 0 0 0 1 0 0 7 35 40 35 7 11 6 18 15 16 19 26 34 39
0 0 0 0 0 0 0 0 0 0 0 0 0 0 0 0 0 0 0 0 0 0 0 2 3 12 11 23 31 41 59 50 60 41 57 34 34 52 53 46 38 54 58
0 0 0 0 0 0 0 0 0 0 0 0 0 0 0 0 0 0 0 0 5 24 32 41 45 46 62 69 76 68 46 35 37 38 125 88 75 33 47 37 52 32 55

GFSSE_con_sbcape_051.txt.gz
CAPE
554 632 767 921 925 937 971 1009 1063 1146 1274 1389 1351 1279 1220 1099 1053 1173 1118 1127 925 710 692 640 529 407 313 218 159 154 108 97 169 315 577 796 820 759 828 1479 1380 642 1524
735 628 717 917 965 934 1035 1095 1155 1252 1280 1035 1009 1155 1274 1229 1133 955 940 947 751 603 596 403 212 151 119 76 54 42 19 6 53 210 405 884 1420 876 791 1418 1460 1134 1494
748 637 434 852 1000 1078 1193 1287 1347 1264 990 930 874 900 886 875 863 858 688 637 657 510 251 158 157 107 28 0 0 0 0 0 11 171 905 744 870 1198 952 1261 1514 1232 1149
774 596 432 793 1044 1218 1203 1274 1255 1109 957 894 752 704 644 630 681 876 606 694 437 235 166 106 32 0 0 0 0 0 0 0 55 297 364 474 792 1234 876 990 1330 682 661
729 783 759 864 1102 1262 1283 1253 1203 1065 1100 1042 922 721 752 814 877 768 607 610 225 76 12 0 0 0 0 0 0 0 0 19 161 49 113 95 640 834 879 798 729 757 685
798 927 619 949 1124 1281 1355 1291 1072 1074 1049 1093 1097 793 601 477 563 575 420 387 47 0 0 0 0 0 0 0 0 0 3 39 2 8 58 883 725 779 696 559 529 536 649
820 998 975 974 1123 1374 1313 1078 1094 1004 1056 1198 940 679 361 357 372 387 275 91 4 0 0 0 0 0 0 0 0 0 0 0 0 0 5 33 1 183 412 703 695 499 175
724 1070 971 944 943 1032 983 997 844 854 984 966 803 656 374 340 341 183 95 29 7 0 0 0 0 0 0 0 0 0 0 0 0 0 0 0 58 21 0 4 602 594 242
899 947 980 909 886 841 685 634 652 750 773 693 662 570 461 489 475 358 278 42 21 16 0 0 0 0 0 0 0 0 0 0 0 0 0 0 0 0 0 0 7 42 92
792 886 944 942 839 853 733 537 572 565 486 432 361 251 225 209 227 254 310 156 47 29 41 43 42 0 0 0 0 0 0 0 0 0 38 0 0 0 1 37 2 0 103
853 665 506 445 470 511 540 573 391 402 342 233 114 136 34 219 317 171 61 120 63 31 31 23 2 0 2 5 0 0 16 6 0 15 47 0 0 0 0 43 65 70 113
690 401 358 374 333 184 32 201 139 45 2 136 186 278 636 574 748 552 306 144 135 37 69 9 4 47 69 74 48 44 19 0 14 6 36 0 0 0 0 0 13 41 66
244 112 174 212 159 67 151 85 47 12 310 589 787 820 888 637 870 862 763 1021 970 187 285 56 91 88 98 78 39 27 0 0 0 3 1 0 0 0 0 0 0 0 0
12 36 57 131 150 93 14 3 9 86 411 644 853 1054 1148 1069 1117 1087 914 799 1119 445 229 168 134 209 90 52 0 0 0 0 0 0 0 0 0 0 0 0 0 1 3
0 70 164 111 201 346 279 511 650 676 949 1144 1083 1102 1571 1671 1122 1029 1171 758 439 350 235 201 152 103 49 27 6 0 1 0 1 0 0 0 0 0 0 0 0 0 0
32 301 321 297 333 522 777 781 864 646 708 653 863 1065 1181 1173 1090 811 546 448 344 109 56 13 6 1 1 18 0 1 0 1 3 1 1 1 0 0 0 0 0 0 0
127 505 585 541 629 697 523 294 169 93 58 52 103 328 621 787 636 493 330 91 2 0 0 0 0 0 0 2 2 1 1 1 0 0 1 0 1 0 0 0 0 0 0
212 522 738 623 758 422 192 33 34 4 42 44 17 36 67 93 58 28 0 0 0 0 0 0 0 0 0 0 0 0 0 0 0 0 0 0 1 0 0 0 0 0 0
176 612 790 857 390 96 0 0 2 0 10 12 0 0 0 0 0 0 0 0 0 0 0 0 0 0 0 0 0 0 0 0 0 0 0 0 4 7 1 0 0 0 0
376 733 929 614 118 13 61 0 0 0 0 0 0 0 0 0 0 0 0 0 0 0 1 0 0 0 0 0 0 0 0 0 0 0 2 8 12 14 14 9 2 0 2
806 982 873 346 393 434 386 153 17 0 0 0 0 0 0 0 0 0 0 0 0 0 0 0 0 0 0 0 0 0 0 0 4 8 14 17 12 9 15 17 16 18 6
958 895 756 580 534 602 281 255 99 25 0 0 0 0 0 0 0 0 0 0 0 0 0 0 0 0 0 0 0 0 0 0 0 0 2 20 35 19 21 16 22 26 29
655 741 872 694 599 326 45 11 22 2 0 0 1 0 0 0 0 0 0 0 0 0 0 0 0 0 1 0 1 1 1 2 5 2 0 0 37 13 7 7 15 23 36
685 461 199 153 117 7 0 1 0 2 22 53 24 7 1 0 0 0 0 0 1 3 6 12 9 20 22 17 15 14 29 37 30 22 34 17 1 24 70 69 78 47 56
106 50 36 13 0 0 0 1 2 14 15 15 1 0 1 2 8 5 1 3 11 14 22 32 47 50 42 42 40 35 34 55 49 80 50 58 40 24 42 100 80 57 43
0 0 0 0 0 0 0 0 0 3 0 0 0 0 0 0 0 1 3 12 23 39 50 52 86 73 79 77 75 74 61 60 47 76 94 55 77 16 42 43 73 79 108

GFSSE_con_sbcape_054.txt.gz
CAPE
117 224 780 1044 1113 1120 1092 1082 1099 1130 1247 1308 1277 1223 1205 1220 1254 1096 1035 909 789 580 474 281 171 99 72 51 48 46 37 53 111 302 669 840 652 673 755 1254 1011 743 1783
134 252 684 903 1036 1075 1099 1098 1159 1182 1205 1174 1178 1234 1231 1159 1105 1042 929 791 702 379 187 130 97 46 1 0 0 0 0 65 120 186 608 1069 1024 830 792 1354 1223 1318 1633
145 246 385 748 1022 1141 1225 1275 1217 1216 1133 1081 1151 1133 1099 1024 966 740 763 695 377 189 141 57 0 0 0 0 0 0 2 105 190 265 528 322 585 1087 1058 1300 1005 1022 863
231 117 355 769 1076 1307 1279 1241 1198 1148 1092 1009 907 805 758 784 732 520 476 484 399 80 0 0 0 0 0 0 0 0 27 168 219 290 150 518 359 1028 719 1359 956 215 504
217 254 559 802 988 1240 1169 1227 1176 1085 985 939 866 776 776 751 580 392 523 349 224 0 0 0 0 0 0 0 0 2 12 65 56 33 286 329 290 664 586 484 311 254 513
598 470 519 749 818 1073 1297 1162 1086 986 977 1016 903 694 461 481 405 313 394 264 15 0 0 0 0 0 0 25 0 0 0 0 0 255 124 183 230 746 697 680 948 716 535
361 452 692 606 795 1314 1280 1115 932 967 1095 913 658 507 449 325 296 285 300 191 53 0 0 0 0 0 0 0 0 0 0 0 0 2 0 0 3 69 0 199 903 876 557
476 639 705 709 820 915 958 816 728 908 830 677 572 491 456 414 333 282 241 177 84 12 0 0 0 0 0 0 0 0 0 26 0 0 0 0 202 64 0 0 348 549 429
490 603 670 674 723 558 501 493 542 612 552 546 488 448 429 388 350 293 231 165 109 73 25 7 0 0 0 0 0 0 0 26 0 1 0 0 300 93 65 63 174 263 270
597 659 684 663 707 574 459 410 432 370 328 271 209 201 166 151 227 281 200 172 136 81 75 54 0 0 1 1 0 0 0 0 0 7 0 12 143 52 80 99 110 103 455
414 767 692 669 706 534 471 444 324 308 215 122 86 92 3 7 29 146 66 161 171 94 77 59 30 29 41 59 59 51 64 0 0 5 0 36 38 0 4 33 58 81 159
206 366 444 454 507 521 209 345 202 71 29 35 27 23 138 639 292 340 84 155 229 218 211 182 140 64 55 15 34 44 17 9 0 0 0 10 0 0 0 0 0 3 51
291 265 230 389 310 184 65 197 46 5 233 433 689 771 907 806 803 348 530 295 343 241 323 120 42 36 138 95 18 4 0 0 0 0 0 0 0 0 0 0 0 1 10
26 43 126 189 270 147 54 90 42 141 624 708 864 804 811 715 838 538 513 626 543 404 338 255 145 146 107 42 20 7 0 0 0 0 0 0 0 0 0 0 0 0 1
0 43 113 141 293 221 377 618 483 799 722 698 880 1021 988 848 504 475 605 543 437 211 9 1 0 0 0 0 0 0 0 0 0 0 0 0 0 0 0 0 0 0 0
10 130 92 205 472 688 711 735 436 169 39 43 291 419 759 754 793 600 499 272 1 0 0 0 0 0 0 0 0 1 3 5 3 0 0 0 0 0 0 0 0 0 0
189 244 244 357 664 549 321 214 7 0 0 0 48 90 107 167 249 95 0 0 0 0 0 0 0 0 0 0 0 0 0 0 0 0 0 0 0 0 0 0 0 0 0
311 408 373 450 546 312 121 8 9 0 0 0 0 4 10 0 0 0 0 0 0 0 0 0 0 0 0 0 0 0 0 0 0 0 0 0 0 0 0 0 0 0 0
465 641 640 471 221 23 0 0 0 1 1 0 0 0 0 0 0 0 0 0 0 0 0 0 0 0 0 0 0 0 0 0 0 0 0 0 0 1 0 6 13 1 0
534 866 628 330 10 0 0 0 0 0 0 0 0 0 0 0 0 0 0 0 0 0 0 0 0 0 0 0 0 0 0 0 0 0 0 7 21 0 0 0 0 0 30
689 979 517 116 48 68 15 10 0 0 0 0 0 0 0 0 0 0 0 0 0 0 0 0 0 0 0 0 0 0 0 0 0 0 0 0 0 0 6 1 2 0 0
1163 649 414 350 112 221 325 303 52 0 0 0 0 0 0 0 0 0 0 0 0 0 0 0 0 0 0 0 0 0 0 0 0 0 0 0 0 0 0 0 0 0 2
849 801 665 543 399 497 307 23 4 0 0 0 0 0 0 0 0 0 0 0 0 0 0 0 0 0 0 0 0 0 0 0 0 0 0 0 0 0 0 0 0 0 0
751 674 690 738 613 345 1 0 0 0 0 3 7 3 0 0 0 0 0 0 0 0 0 0 0 0 0 0 0 0 0 0 0 0 0 0 0 0 0 0 0 0 0
863 852 520 172 43 0 1 5 0 47 33 14 8 1 0 0 0 0 0 0 0 0 5 17 30 17 3 6 5 0 0 0 0 4 0 0 0 0 0 0 0 0 0
461 368 261 4 0 0 0 0 7 10 0 0 0 0 0 0 0 0 0 3 1 0 0 10 13 9 3 2 6 3 2 1 0 4 0 0 0 0 0 0 0 0 0

GFSSE_con_sbcape_057.txt.gz
CAPE
198 669 969 1213 1200 1069 1006 955 927 956 1039 1109 1108 1134 1117 1028 945 844 781 702 534 201 132 90 27 2 0 0 0 0 0 4 162 509 776 697 662 576 593 991 997 926 1274
298 801 958 1082 1128 1060 1067 1036 1013 1010 1085 1165 1122 1049 1015 942 874 817 714 474 297 122 89 1 0 0 0 0 0 0 0 80 183 443 663 770 979 682 513 918 1125 867 1018
392 753 960 1032 1113 1118 1195 1187 1146 1121 1155 1160 1123 1003 905 773 648 427 434 373 192 5 0 0 0 0 0 0 0 0 0 120 75 70 481 363 519 901 575 796 601 840 560
259 590 840 963 1113 1199 1144 1183 1124 1055 1030 946 882 900 914 562 361 196 244 270 120 0 0 0 0 0 0 0 0 0 0 18 12 115 82 191 268 586 396 288 150 0 0
221 491 895 928 1042 1185 1222 1139 1015 894 808 821 860 914 657 373 229 120 240 149 17 0 0 0 0 0 0 0 0 0 3 18 345 221 132 121 337 571 554 505 306 129 252
485 577 579 748 932 1132 1160 1057 919 862 733 653 611 659 406 253 149 83 214 127 0 0 0 0 0 0 0 0 0 0 8 39 0 0 12 48 25 212 172 477 727 674 544
416 472 422 563 895 1062 935 934 879 749 547 424 447 455 407 193 66 36 199 105 38 1 0 0 0 0 0 0 0 0 0 24 0 0 0 4 50 80 44 33 271 589 519
132 186 265 638 727 624 596 673 597 488 380 356 380 387 341 268 229 237 218 154 114 39 19 5 1 0 0 0 0 0 0 19 0 0 0 10 326 121 95 98 436 431 431
126 201 354 415 438 378 385 452 398 351 308 313 281 246 218 211 175 190 199 190 123 68 55 18 0 0 0 0 0 0 0 35 0 0 0 46 505 144 119 113 116 145 383
298 270 254 452 421 357 386 361 263 190 170 153 131 109 95 68 58 79 75 135 125 64 28 0 0 0 0 10 5 0 0 0 0 0 0 70 181 64 58 61 73 101 103
158 263 314 558 406 331 311 302 206 184 114 81 79 48 5 0 0 25 7 70 105 56 25 3 2 0 0 0 35 38 0 0 0 0 0 30 97 5 0 0 0 6 43
109 302 394 598 382 334 322 137 78 66 8 0 0 0 0 0 0 66 0 14 66 64 24 46 25 12 5 0 0 0 0 0 0 0 0 2 16 0 0 0 0 0 0
116 210 336 437 339 81 138 37 1 0 0 1 0 0 39 177 78 167 9 34 25 68 43 70 20 1 3 0 0 0 0 0 0 0 0 0 0 0 0 0 0 0 0
101 45 16 45 13 0 19 0 0 1 61 262 307 193 81 75 22 5 3 84 79 0 0 0 0 0 0 0 0 0 0 0 0 0 0 0 0 0 0 0 0 0 0
1 16 4 0 0 0 37 127 186 130 273 189 245 447 238 176 57 152 4 0 0 0 0 0 0 0 0 0 0 0 0 0 0 0 0 0 0 1 2 0 0 0 0
5 1 0 1 0 214 112 0 0 0 0 0 25 139 187 37 19 3 0 0 0 0 0 0 0 0 0 0 0 0 0 0 0 0 0 0 1 0 0 0 0 0 0
7 5 5 53 251 129 0 0 0 0 0 0 0 0 0 0 0 0 0 0 0 0 0 0 0 0 0 0 0 0 0 0 0 0 0 0 0 0 0 0 0 0 0
3 14 82 307 70 0 0 0 0 0 0 0 0 0 0 0 0 0 0 0 0 0 0 0 0 0 0 0 0 0 0 0 0 0 0 0 0 0 0 0 0 0 0
60 111 79 2 0 0 0 0 0 0 0 0 0 0 0 0 0 0 0 0 0 0 0 0 0 0 0 0 0 0 0 0 0 0 0 0 0 0 0 16 20 19 0
248 222 66 0 0 0 0 0 0 0 0 0 0 0 0 0 0 0 0 0 0 0 0 0 0 0 0 0 0 0 0 0 0 0 0 0 0 0 0 0 0 0 10
257 129 0 0 0 0 0 0 0 0 0 0 0 0 0 0 0 0 0 0 0 0 0 0 0 0 0 0 0 0 0 0 0 0 0 0 0 0 0 0 0 0 0
308 47 0 0 0 0 0 0 0 0 0 0 0 0 0 0 0 0 0 0 0 0 0 0 0 0 0 0 0 0 0 0 0 0 0 0 0 0 0 0 0 0 0
170 45 0 0 0 0 2 22 0 0 0 0 0 0 0 0 0 0 0 0 0 0 0 0 0 0 0 0 0 0 0 0 0 0 0 0 0 0 0 0 0 0 0
267 190 188 52 11 27 137 0 0 0 0 0 0 0 0 0 0 0 0 0 0 0 0 0 0 0 0 0 0 0 0 0 0 0 0 0 0 0 0 0 0 0 0
259 172 125 107 83 85 0 0 0 0 0 0 0 0 0 0 0 0 0 0 0 0 0 0 0 0 0 0 0 0 0 0 0 0 0 0 0 0 0 0 0 0 0
203 249 289 84 0 0 0 0 0 0 0 0 0 0 0 0 0 0 0 0 0 0 0 0 0 0 0 0 0 0 0 0 0 0 0 0 0 0 0 0 0 0 0

GFSSE_con_sbcape_060.txt.gz
CAPE
519 948 1080 1239 1203 1044 941 939 949 943 988 1061 1013 908 799 765 732 621 443 342 257 31 0 0 0 0 0 0 0 0 2 132 608 711 617 508 435 280 502 554 779 561 881
661 942 973 1085 1116 1075 1109 1090 1059 1067 1070 970 940 854 812 790 657 365 302 267 62 0 0 0 0 0 0 0 0 0 0 110 472 631 687 658 567 305 134 516 626 538 673
692 906 945 942 1129 1197 1213 1211 1183 1188 1054 878 929 790 727 437 221 114 137 133 3 0 0 0 0 0 0 0 0 0 47 0 160 560 607 161 313 333 209 361 276 144 69
785 874 921 879 1025 1181 1222 1149 1024 1074 996 1009 955 603 429 208 142 62 29 35 7 0 0 0 0 0 0 0 0 8 368 223 157 336 105 99 276 411 268 149 26 0 37
805 802 930 846 962 1163 1178 1078 1025 1018 922 907 856 511 228 159 90 26 50 36 24 0 0 0 0 0 0 0 0 0 152 451 398 127 54 101 112 226 225 249 119 49 74
649 807 634 828 1001 1127 1015 1102 1031 961 891 805 620 442 224 118 63 39 95 53 16 2 0 0 0 0 0 0 0 0 17 0 0 0 0 26 16 92 67 66 261 182 351
608 477 518 673 891 796 1133 1025 853 688 558 584 500 409 310 102 51 65 148 123 119 0 3 0 0 0 0 0 7 0 0 0 0 0 0 1 64 122 115 125 155 149 125
46 49 164 236 263 455 835 746 522 421 414 422 417 368 279 199 172 144 184 171 120 80 33 0 0 0 0 4 14 0 3 0 0 0 0 30 306 133 117 118 149 406 210
50 51 101 123 207 370 476 421 326 325 328 329 302 268 216 194 214 220 191 195 156 82 10 0 0 0 3 1 15 0 0 0 0 0 9 29 255 94 66 52 60 77 105
103 71 55 185 361 345 340 284 224 214 201 209 182 144 98 106 110 114 95 127 98 22 0 0 1 0 0 0 15 23 0 0 0 0 0 32 106 4 0 0 22 43 39
138 146 121 225 290 283 261 239 183 165 129 125 125 93 15 0 0 12 4 42 48 0 0 0 6 1 0 0 36 8 0 0 0 0 0 25 41 0 0 0 0 0 0
57 124 220 259 267 270 254 129 81 59 26 14 5 3 0 0 0 4 0 1 12 9 44 41 41 0 0 0 0 0 0 0 0 0 0 0 0 0 0 0 0 0 0
26 223 290 271 298 215 152 45 19 2 0 0 0 0 0 18 8 0 0 4 7 66 0 0 0 0 0 0 0 0 0 0 0 0 0 0 0 0 1 3 0 0 0
102 165 151 263 153 27 26 0 0 0 1 11 58 64 35 5 0 0 0 0 0 0 0 0 0 0 0 0 0 0 0 0 0 0 0 0 0 0 4 3 0 0 0
115 105 67 138 0 0 0 0 9 101 109 141 177 64 5 0 0 0 0 0 0 0 0 0 0 0 0 0 0 0 0 0 0 0 0 0 0 0 3 0 0 0 0
48 2 0 3 0 50 10 0 0 0 0 0 8 5 0 0 0 0 0 0 0 0 0 0 0 0 0 0 0 0 0 0 0 0 0 0 0 2 1 0 0 0 0
14 0 0 2 62 0 0 0 0 0 0 0 0 0 0 0 0 0 0 0 0 0 0 0 0 0 0 0 0 0 0 0 0 0 0 0 0 0 0 0 0 0 0
3 0 16 254 0 0 0 0 0 0 0 0 0 0 0 0 0 0 0 0 0 0 0 0 0 0 0 0 0 0 0 0 0 0 0 0 0 0 0 13 3 1 0
0 0 106 16 0 0 0 0 0 0 0 0 0 0 0 0 0 0 0 0 0 0 0 0 0 0 0 0 0 0 0 0 0 0 0 0 0 0 0 0 6 19 5
1 39 40 0 0 0 0 0 0 0 0 0 0 0 0 0 0 0 0 0 0 0 0 0 0 0 0 0 0 0 0 0 0 0 0 0 0 0 0 0 0 0 14
64 66 14 0 0 0 0 0 0 0 0 0 0 0 0 0 0 0 0 0 0 0 0 0 0 0 0 0 0 0 0 0 0 0 0 0 0 0 0 0 0 0 0
122 66 0 0 0 0 0 0 0 0 0 0 0 0 0 0 0 0 0 0 0 0 0 0 0 0 0 0 0 0 0 0 0 0 0 0 0 0 0 0 0 0 0
74 0 0 0 0 0 0 0 0 0 0 0 0 0 0 0 0 0 0 0 0 0 0 0 0 0 0 0 0 0 0 0 0 0 0 0 0 0 0 0 0 0 0
42 0 0 0 0 0 0 0 0 0 0 0 0 0 0 0 0 0 0 0 0 0 0 0 0 0 0 0 0 0 0 0 0 0 0 0 0 0 0 0 0 0 0
23 1 0 0 0 0 0 0 0 0 0 0 0 0 0 0 0 0 0 0 0 0 0 0 0 0 0 0 0 0 0 0 0 0 0 0 0 0 0 0 0 0 0
134 4 0 0 0 0 0 0 0 0 0 0 0 0 0 0 0 0 0 0 0 0 0 0 0 0 0 0 0 0 0 0 0 0 0 0 0 0 0 0 0 0 0

GFSSE_con_sbcape_066.txt.gz
CAPE
873 870 950 923 899 761 652 607 584 650 728 782 798 714 628 451 278 244 132 40 6 0 0 0 0 0 0 217 312 320 426 464 432 506 187 29 0 0 0 0 0 0 63
832 891 966 922 862 793 737 723 762 754 790 764 728 533 447 304 178 74 61 39 26 0 0 0 0 0 0 0 295 434 468 512 494 429 284 88 0 0 0 0 103 0 0
1153 1031 894 803 875 889 925 975 949 945 856 606 370 257 216 158 68 78 111 96 54 0 0 0 0 186 244 242 171 545 505 461 404 330 95 0 0 0 0 0 0 0 0
1116 950 831 863 921 973 981 996 993 995 811 658 325 189 158 59 56 38 74 99 52 0 0 0 30 235 269 465 303 531 456 341 277 20 0 0 0 0 0 0 0 0 0
1071 840 900 818 882 1010 1071 1066 1050 957 777 574 368 225 187 79 27 46 217 122 69 41 0 0 18 227 273 293 445 450 382 149 23 0 0 0 0 3 11 14 19 14 0
850 965 697 754 898 1171 1294 1255 1176 944 750 486 403 333 173 54 51 105 236 147 121 46 0 0 0 0 105 248 317 182 14 0 0 0 0 0 0 14 21 31 44 42 47
955 594 558 617 995 1271 1231 1220 1092 902 661 509 402 285 208 166 124 225 260 214 140 64 3 0 3 12 25 13 11 0 0 0 0 0 0 0 1 12 0 0 16 14 0
587 369 482 556 605 608 449 598 906 776 570 528 429 297 265 273 268 258 232 211 162 120 97 51 75 40 13 3 0 0 0 0 0 0 0 0 140 0 0 0 0 0 0
75 89 68 136 211 173 325 616 608 503 467 437 377 304 276 258 251 225 212 210 182 143 123 98 93 86 7 0 0 0 0 0 0 0 0 0 64 0 0 1 0 0 0
28 25 14 38 69 138 254 348 370 344 350 291 231 169 134 148 159 172 124 231 217 226 218 157 16 47 0 0 0 0 0 0 0 0 0 0 29 9 8 1 0 0 0
106 89 41 82 72 187 244 233 268 311 260 184 143 103 38 27 12 15 95 150 244 244 129 3 0 0 0 0 0 0 0 0 0 0 0 0 0 11 23 16 0 0 0
3 5 2 83 90 239 205 129 140 151 71 56 32 12 8 4 0 0 25 156 179 21 0 0 0 0 0 0 0 0 0 0 0 0 0 0 0 0 6 4 0 0 0
3 5 35 57 92 173 191 94 51 25 22 15 2 0 0 0 0 1 0 0 0 0 0 0 0 0 0 0 0 0 0 0 0 0 0 0 0 0 26 22 0 0 0
0 16 4 9 70 143 74 25 6 0 0 0 0 0 9 3 0 0 0 0 0 0 0 0 0 0 0 0 0 0 0 0 0 0 0 0 0 0 27 31 9 1 0
8 4 0 0 112 44 6 0 0 0 0 1 0 4 0 0 0 0 0 0 0 0 0 0 0 0 0 0 0 0 0 0 0 0 0 0 0 0 0 22 22 10 7
0 0 7 90 18 0 0 0 0 0 3 0 0 0 0 0 0 0 0 0 0 0 0 0 0 0 0 0 0 0 0 0 0 0 0 0 0 0 1 7 6 6 4
2 43 22 10 0 0 0 0 0 1 2 2 0 0 0 0 0 0 0 0 0 0 0 0 0 0 0 0 0 0 0 0 0 0 0 0 0 0 0 0 0 0 0
3 27 2 11 0 0 0 0 0 0 0 0 0 0 0 0 0 0 0 0 0 0 0 0 0 0 0 0 0 0 0 0 0 0 0 0 0 0 0 0 0 0 0
16 11 2 11 0 0 0 0 0 0 0 0 0 0 0 0 0 0 0 0 0 0 0 0 0 0 0 0 0 0 0 0 0 0 0 0 0 0 0 0 0 6 1
0 0 0 0 0 0 0 0 0 0 0 0 0 0 0 0 0 0 0 0 0 0 0 0 0 0 0 0 0 0 0 0 0 0 0 0 0 0 0 0 0 0 0
0 0 0 0 0 0 0 0 0 0 0 0 0 0 0 0 0 0 0 0 0 0 0 0 0 0 0 0 0 0 0 0 0 0 0 0 0 0 0 0 0 0 0
0 0 0 0 0 0 0 0 0 0 0 0 0 0 0 0 0 0 0 0 0 0 0 0 0 0 0 0 0 0 0 0 0 0 0 0 0 0 0 0 0 0 0
0 0 3 0 0 0 0 0 0 0 0 0 0 0 0 0 0 0 0 0 0 0 0 0 0 0 0 0 0 0 0 0 0 0 0 0 0 0 0 0 0 0 0
0 0 1 0 0 0 0 0 0 0 0 0 0 0 0 0 0 0 0 0 0 0 0 0 0 0 0 0 0 0 0 0 0 0 0 0 0 0 0 0 0 0 0
0 0 0 0 0 0 0 0 0 0 0 0 0 0 0 0 0 0 0 0 0 0 0 0 0 0 0 0 0 0 0 0 0 0 0 0 0 0 0 0 0 0 0
0 0 0 0 0 0 0 0 0 0 0 0 0 0 0 0 0 0 0 0 0 0 0 0 0 0 0 0 0 0 0 0 0 0 0 0 0 0 0 0 0 0 0

GFSSE_con_sbcape_069.txt.gz
CAPE
944 669 887 1059 920 807 748 748 775 798 891 897 783 719 608 409 233 109 45 25 26 0 0 0 129 352 412 369 352 418 570 481 362 314 66 0 0 0 0 0 0 0 0
986 596 840 1014 930 793 790 793 793 870 973 929 808 632 480 298 129 55 64 52 34 0 0 0 4 240 416 296 367 538 458 425 354 269 216 0 0 0 0 0 38 0 0
1015 733 880 915 992 926 941 937 992 1068 944 598 414 489 336 160 125 111 113 86 54 3 36 212 277 157 330 363 577 515 408 396 342 193 0 0 0 0 0 0 0 0 0
1132 811 864 882 965 1052 1031 1017 1030 955 722 579 423 328 230 159 161 165 106 35 98 129 142 359 416 380 304 543 582 456 290 150 63 12 0 0 0 0 0 0 0 0 0
1175 844 855 882 939 1132 1071 1028 962 865 692 494 400 249 196 185 162 154 76 88 144 80 234 389 326 446 489 506 442 399 187 10 3 0 0 0 0 0 0 0 0 7 0
1191 957 806 833 989 1126 1183 1103 934 751 524 402 323 252 201 198 134 194 136 93 109 96 103 284 218 318 419 362 264 84 0 0 0 0 0 0 0 0 0 0 0 0 1
1308 1094 996 672 1000 1287 1353 1158 879 649 531 389 272 225 229 260 201 244 142 118 127 133 31 33 98 163 236 129 45 13 0 0 0 0 0 0 1 0 0 0 0 0 0
1118 1108 943 694 812 1029 948 914 684 512 462 366 288 252 268 305 257 215 184 167 177 177 152 102 93 93 40 26 7 0 0 0 0 0 0 1 4 1 4 0 0 0 0
701 576 240 534 441 294 595 527 370 358 335 323 318 281 253 255 217 195 177 166 177 173 150 141 54 33 35 7 0 0 0 0 0 0 0 0 6 0 2 0 0 0 0
376 194 70 59 40 72 153 288 278 249 239 241 227 179 141 153 166 166 168 202 194 154 118 31 0 0 0 0 0 0 0 0 0 0 0 0 26 5 5 0 0 0 0
196 54 5 4 1 46 105 179 246 261 166 157 161 120 59 72 59 57 149 232 166 31 1 0 0 0 0 0 0 0 0 0 0 0 0 0 0 7 17 5 0 0 0
39 23 17 7 31 20 191 152 230 200 94 133 103 83 65 97 109 83 143 170 1 0 0 0 0 0 0 0 0 0 0 0 0 0 0 0 0 0 8 3 0 0 0
3 2 3 9 58 99 149 112 86 82 92 100 79 84 129 99 157 212 215 0 0 0 0 0 0 0 0 0 0 0 0 0 0 0 0 0 0 0 25 23 5 0 0
17 5 16 51 124 160 110 99 47 56 46 59 60 170 246 228 220 47 0 0 0 0 0 0 0 0 0 0 0 0 0 0 0 0 0 0 0 0 33 31 6 0 0
0 9 11 5 60 92 64 20 16 43 39 73 133 306 320 136 0 0 0 0 0 0 0 0 0 0 0 0 0 0 0 0 0 0 0 0 0 0 0 27 17 5 3
0 0 0 0 45 63 10 0 6 41 53 66 170 266 89 0 0 0 0 0 0 0 0 0 0 0 0 0 0 0 0 0 0 0 0 0 0 0 0 3 6 10 4
0 0 0 1 106 97 17 7 18 63 189 201 208 91 0 0 0 0 0 0 0 0 0 0 0 0 0 0 0 0 0 0 0 0 0 0 0 0 0 0 0 0 0
2 0 0 57 180 110 11 0 41 188 171 175 105 27 0 0 0 0 0 0 0 0 0 0 0 0 0 0 0 0 0 0 0 0 0 0 0 0 0 0 0 0 0
11 36 103 171 102 41 0 15 116 191 97 38 14 0 0 0 0 0 0 0 0 0 0 0 0 0 0 0 0 0 0 0 0 0 0 0 0 0 0 0 0 0 0
14 46 75 92 28 0 0 3 15 18 6 2 0 0 0 0 0 0 0 0 0 0 0 0 0 0 0 0 0 0 0 0 0 0 0 0 0 0 0 0 0 0 0
41 31 71 63 0 0 1 6 4 14 4 2 0 0 0 0 0 0 0 0 0 0 0 0 0 0 0 0 0 0 0 0 0 0 0 0 0 0 0 0 0 0 0
145 109 112 74 3 0 13 0 0 0 0 0 0 0 0 0 0 0 0 0 0 0 0 0 0 0 0 0 0 0 0 0 0 0 0 0 0 0 0 0 0 0 0
219 129 135 88 34 17 2 0 0 0 0 0 0 0 0 0 0 0 0 0 0 0 0 0 0 0 0 0 0 0 0 0 0 0 0 0 0 0 0 0 0 0 0
181 113 141 43 7 0 0 0 0 0 0 0 0 0 0 0 0 0 0 0 0 0 0 0 0 0 0 0 0 0 0 0 0 0 0 0 0 0 6 6 0 0 1
114 29 85 29 12 0 0 0 0 0 0 0 0 0 0 0 0 0 0 0 0 0 0 0 0 0 0 0 0 0 0 0 0 0 0 0 9 16 20 20 0 0 0
24 19 32 26 9 1 0 0 0 0 0 0 0 0 0 0 0 0 0 0 0 0 0 0 0 0 0 0 0 0 0 0 0 6 8 0 2 4 21 20 2 0 0

GFSSE_con_sbcape_072.txt.gz
CAPE
1132 628 995 1199 1232 1207 1127 1042 963 936 969 963 865 670 473 312 206 175 165 161 174 187 150 448 591 451 351 359 379 389 382 372 283 214 30 0 0 0 0 111 7 0 0
1257 606 928 1122 1215 1165 1120 1072 1026 987 969 923 742 527 292 169 146 138 116 116 154 96 236 507 513 413 304 342 384 351 259 288 235 231 51 0 0 0 0 0 0 0 0
1207 584 972 972 1116 1152 1174 1155 1173 1115 1002 755 472 352 171 148 148 162 133 165 211 122 159 323 556 424 364 380 395 303 225 189 167 0 4 0 0 0 0 0 42 0 0
1159 623 652 957 1029 1071 1071 1174 1172 1038 843 627 428 206 188 198 218 174 157 241 333 373 388 334 483 465 438 470 420 303 140 62 32 22 13 23 4 1 1 0 0 0 15
1172 562 782 984 1003 1122 1191 1173 1003 807 629 504 268 215 252 270 211 181 258 281 393 490 545 592 484 553 510 443 379 245 60 6 0 6 19 29 26 2 0 0 2 0 0
1247 811 813 900 1057 1185 1212 1081 846 639 465 282 165 238 308 240 217 258 240 255 483 642 393 589 561 509 427 311 175 75 14 0 23 6 19 20 27 4 0 0 0 0 0
1254 1101 1094 845 1004 1156 1265 1032 730 540 396 179 163 245 284 291 282 225 211 244 265 374 302 376 472 385 208 110 55 12 0 0 6 8 17 18 15 6 1 0 0 0 0
1271 1285 1011 735 893 1078 1023 778 545 432 273 167 188 275 325 281 266 264 268 270 257 218 275 322 346 196 88 64 0 0 0 0 2 5 8 15 15 14 2 0 0 0 0
853 1178 1139 869 798 458 579 466 371 283 210 202 244 276 227 173 173 212 211 244 253 217 199 148 144 88 16 0 0 0 0 0 6 7 0 8 0 12 2 0 0 0 0
325 397 136 14 27 51 196 235 230 201 170 180 184 138 96 112 163 203 204 279 308 258 34 3 27 0 0 0 0 0 0 0 0 0 0 0 15 21 17 0 0 0 0
217 76 4 4 1 50 112 203 202 204 164 149 90 64 17 13 12 22 174 238 194 58 0 0 0 0 0 0 0 0 0 0 0 0 0 0 0 27 19 2 0 0 0
19 6 6 2 0 0 60 130 262 186 68 61 40 24 10 37 38 46 92 31 0 0 0 0 0 0 0 0 0 0 0 0 0 0 0 0 0 2 17 7 0 0 0
13 10 8 8 4 1 0 1 203 131 184 119 80 42 96 140 122 182 10 0 0 0 0 0 0 0 0 0 0 0 0 0 0 0 0 0 0 0 17 17 3 0 0
15 19 18 4 5 0 0 11 134 135 158 143 189 176 237 245 320 399 198 7 0 0 0 0 0 0 0 0 0 0 0 0 0 0 0 0 0 0 35 24 1 0 0
3 3 0 3 22 73 144 140 142 166 164 191 290 319 389 481 526 348 80 0 0 0 0 0 0 0 0 0 0 0 0 0 0 0 0 0 0 0 0 30 11 1 0
0 7 8 1 2 6 21 171 158 146 169 253 392 589 682 591 383 6 0 0 0 0 0 0 0 0 0 0 0 0 0 0 0 0 0 0 0 0 0 0 4 10 2
14 10 42 84 125 233 177 148 118 157 199 312 511 620 305 153 58 33 8 0 0 0 0 0 0 0 0 0 0 0 0 0 0 0 0 0 0 0 0 0 0 0 0
86 107 182 65 273 370 196 93 68 193 378 529 630 697 352 197 74 19 0 0 0 0 0 0 0 0 0 0 0 0 0 0 0 0 0 0 0 0 0 0 0 0 0
31 19 29 111 390 440 346 96 156 356 593 645 604 681 490 170 9 0 0 0 0 0 0 0 0 0 0 0 0 0 0 0 0 0 0 0 0 0 0 0 0 0 0
1 9 23 267 437 515 393 286 382 516 572 497 580 548 217 39 0 0 0 0 0 0 0 0 0 0 0 0 0 0 0 0 0 0 0 0 0 0 0 0 0 0 0
98 108 284 485 677 636 353 137 230 422 389 446 403 261 22 0 0 0 0 0 0 0 0 0 0 0 0 0 0 0 0 0 0 0 0 0 0 0 0 0 0 0 0
186 240 348 469 621 592 200 142 378 564 307 421 362 5 0 0 0 0 0 0 0 0 0 0 0 0 0 0 0 0 0 0 0 0 0 0 0 0 0 0 1 1 0
200 240 293 456 541 592 452 214 398 468 248 266 161 0 0 0 0 0 0 0 0 0 0 0 0 0 0 0 0 0 0 0 0 0 0 0 0 4 2 2 3 2 1
388 299 290 375 548 668 618 378 264 284 350 234 26 0 0 0 0 0 0 0 0 0 0 0 0 0 0 0 0 0 0 0 0 0 0 0 12 7 11 13 9 7 3
446 544 676 632 742 756 697 546 479 456 386 7 0 0 0 0 0 0 0 0 0 0 0 0 0 0 0 0 0 0 0 0 0 0 1 0 0 1 6 8 10 11 10
840 795 689 613 595 563 499 553 541 509 107 2 0 0 0 0 0 0 0 0 0 0 0 0 0 0 0 0 0 0 0 0 0 0 0 0 0 0 0 5 12 16 17

GFSSE_con_sbcape_075.txt.gz
CAPE
1093 880 1294 1611 1497 1389 1265 1156 1034 977 1011 1011 894 718 559 455 378 336 303 309 427 620 613 625 731 477 396 307 213 227 255 256 173 94 35 0 0 0 0 37 1 0 1
1040 941 1210 1546 1542 1448 1333 1230 1147 1098 1072 1001 814 573 369 286 236 242 227 283 482 642 623 572 530 390 377 273 233 190 166 288 194 75 57 29 0 2 2 64 51 5 6
1001 980 1436 1429 1516 1489 1448 1395 1329 1225 1139 856 494 396 257 221 170 230 249 299 604 797 684 587 407 405 319 250 249 136 87 36 51 252 142 7 1 2 0 0 3 36 3
1035 1005 1424 1288 1437 1489 1390 1341 1248 1174 984 668 434 324 274 259 264 338 387 404 485 595 742 639 532 441 317 306 293 157 49 0 2 42 32 12 0 0 1 0 0 0 6
1086 924 1435 1229 1274 1359 1322 1245 1145 966 681 457 372 406 407 306 303 474 516 681 924 644 638 693 580 455 355 388 308 112 0 0 35 14 4 13 6 0 0 0 0 0 0
1005 835 931 984 1100 1298 1324 1164 915 745 451 333 373 461 384 322 482 412 556 866 897 984 933 780 617 372 354 212 157 23 0 11 48 40 29 14 8 2 0 0 0 0 0
972 1035 1153 897 1109 1201 1226 995 718 512 289 314 415 324 331 420 354 367 354 597 657 964 1117 723 418 246 205 167 80 13 0 93 19 25 37 5 8 4 0 0 0 0 0
1119 1204 896 961 1080 1063 947 700 487 312 297 350 376 370 381 315 322 320 296 319 464 633 754 522 329 186 153 67 0 0 0 38 21 6 56 2 5 8 1 0 0 0 0
589 263 746 994 888 655 471 368 275 204 249 324 330 277 240 236 259 289 258 293 324 373 403 279 162 109 27 0 0 0 0 16 9 6 9 1 1 14 1 0 0 0 0
221 298 511 283 508 361 184 116 132 153 193 211 195 165 172 184 224 255 282 328 292 266 242 89 34 0 0 0 0 0 0 0 0 4 0 0 16 29 12 0 0 0 0
50 38 65 2 0 3 49 208 215 237 197 144 128 97 34 55 34 123 283 276 141 88 87 3 0 0 0 0 0 0 0 0 0 0 0 0 0 25 15 1 0 0 0
64 3 5 8 0 0 47 143 213 161 135 66 56 88 16 67 139 110 148 98 17 0 0 0 0 0 0 0 0 0 0 0 0 0 0 0 0 1 22 6 0 0 0
9 6 5 14 8 1 97 93 145 138 114 107 162 126 163 195 225 211 73 18 0 0 0 0 0 0 0 0 0 0 0 0 0 0 0 0 0 0 21 7 0 0 0
12 10 8 9 6 2 8 0 0 118 125 129 171 374 482 293 403 306 122 57 7 0 0 0 0 0 0 0 0 0 0 0 0 0 0 0 0 0 47 16 1 0 0
13 19 19 20 18 0 0 0 2 52 131 224 306 401 407 411 617 537 483 88 29 1 0 0 0 0 0 0 0 0 0 0 0 0 0 0 0 0 0 17 9 2 0
4 2 1 16 34 38 80 81 113 190 227 291 335 506 728 826 625 614 229 57 5 12 10 1 0 0 0 0 0 0 0 0 0 0 0 0 0 0 0 0 1 2 0
1 2 0 0 0 0 1 0 2 146 233 267 549 885 599 613 492 412 194 165 38 2 0 0 0 0 0 0 0 0 0 0 0 0 0 0 0 0 0 0 0 0 0
7 3 1 0 1 0 28 58 57 160 301 484 511 749 640 549 457 452 273 106 0 0 0 0 0 0 0 0 0 0 0 0 0 0 0 0 0 0 0 0 0 0 0
39 9 17 34 14 99 188 200 190 348 633 591 669 618 565 490 430 328 197 5 0 0 0 0 0 0 0 0 0 0 0 0 0 0 0 0 0 0 0 0 0 0 0
92 62 75 137 194 270 408 356 319 364 576 677 788 711 596 512 361 268 98 0 0 0 0 0 0 0 0 0 0 0 0 0 0 0 0 0 0 0 0 0 0 0 0
71 31 26 147 213 457 491 305 199 232 485 655 611 649 616 431 310 231 45 3 0 0 0 0 0 0 0 0 0 0 0 0 0 0 0 0 0 0 0 0 0 0 0
21 1 19 200 407 526 398 169 75 224 568 713 665 516 329 7 3 175 37 0 0 0 0 0 0 0 0 0 0 0 0 0 0 0 0 0 0 0 0 0 0 0 0
72 76 122 313 525 716 383 73 132 550 417 477 497 366 182 38 82 57 0 0 0 0 0 0 0 0 4 2 0 0 0 0 0 0 0 0 0 0 1 0 1 3 2
270 308 366 505 640 742 956 238 313 583 521 508 528 232 0 0 0 0 0 0 0 0 0 0 0 0 0 2 10 0 0 0 0 0 0 0 0 11 14 1 1 3 4
392 385 426 522 591 740 827 781 495 479 449 554 449 94 0 0 0 0 0 0 0 0 0 1 0 0 0 0 0 0 0 0 0 0 0 0 1 0 0 0 1 0 4
1025 1010 987 530 575 796 1129 1065 875 667 556 478 204 2 1 0 0 0 0 0 0 0 0 0 0 0 0 0 0 0 0 0 0 0 0 1 0 0 0 0 0 4 4

GFSSE_con_sbcape_078.txt.gz
CAPE
892 1303 1665 1595 1439 1295 1141 1014 971 996 1075 1024 908 796 726 673 613 629 656 747 847 957 663 467 552 161 36 0 0 149 204 95 51 89 72 2 2 2 1 66 15 4 8
748 1441 1540 1527 1465 1343 1255 1136 1076 1118 1167 1035 882 709 572 523 491 511 603 745 964 988 558 449 291 118 23 0 100 206 185 123 99 141 81 5 4 0 1 8 26 5 9
1094 1471 1697 1490 1500 1433 1368 1321 1302 1308 1222 984 760 569 460 442 437 488 646 875 983 976 516 408 242 102 37 22 165 135 106 178 166 222 23 0 0 5 1 0 6 12 7
1053 1598 1814 1455 1445 1500 1361 1345 1375 1360 1112 804 605 492 403 424 455 560 761 959 1080 1019 452 421 218 117 61 149 49 0 10 31 33 55 9 0 0 0 0 0 0 0 2
829 1460 1768 1284 1247 1363 1371 1350 1333 1142 804 579 490 498 444 520 591 708 721 772 1079 1133 579 465 258 197 192 138 21 0 25 89 130 12 0 0 0 0 0 0 0 0 3
840 1439 1011 1008 1191 1159 1176 1287 1130 801 494 424 443 479 522 667 692 919 1028 918 1021 1166 687 474 263 185 153 31 0 0 42 102 90 0 0 0 0 1 0 0 0 0 3
750 1170 1041 836 1023 1099 1330 1154 827 563 471 489 441 415 593 654 803 879 788 1019 1105 1191 804 347 175 124 102 39 27 0 23 15 12 3 0 0 0 2 1 0 0 0 1
833 1067 956 856 848 976 1016 817 523 472 498 436 416 484 494 440 452 563 647 897 1055 878 612 333 210 168 104 44 0 0 0 28 1 6 0 0 6 2 0 0 0 0 0
26 692 888 691 650 537 468 334 261 348 376 391 364 291 243 183 214 310 438 667 707 530 365 241 180 117 50 0 0 0 0 1 1 0 0 0 46 11 1 0 0 0 0
2 0 17 281 343 224 160 55 102 181 203 197 159 132 123 126 172 226 266 380 424 366 248 105 66 22 0 0 0 0 0 0 0 0 0 0 23 18 10 0 0 0 0
5 30 67 4 1 21 66 137 133 130 112 94 100 79 24 22 80 136 189 256 311 262 156 29 2 0 0 0 0 0 0 0 0 0 0 0 15 29 15 3 0 0 0
73 27 2 1 0 6 26 36 55 91 65 53 29 37 16 97 143 158 127 152 183 124 47 13 0 0 0 0 0 0 0 0 0 0 0 0 0 4 18 4 1 0 0
3 1 1 1 0 0 0 0 0 3 12 18 29 91 83 129 164 99 28 12 1 2 0 0 0 0 0 0 0 0 0 0 0 0 0 0 0 0 19 2 0 0 0
3 3 2 1 0 0 0 0 0 8 30 3 86 147 164 190 188 122 93 10 1 0 0 0 0 0 0 0 0 0 0 0 0 0 0 0 0 1 17 4 0 0 0
7 9 15 24 23 1 0 1 35 56 54 79 140 259 270 250 207 195 155 49 3 0 0 0 0 0 0 0 0 0 0 0 0 0 0 0 0 0 9 6 6 3 0
7 4 6 7 11 0 10 24 51 27 109 185 251 291 339 275 335 355 267 158 0 0 0 0 0 0 0 0 0 0 0 0 0 0 0 0 0 0 0 0 0 0 0
3 3 4 3 6 0 3 0 3 81 143 149 252 266 298 397 372 366 176 75 0 30 4 0 0 0 0 0 0 0 0 0 0 0 0 0 0 0 0 0 0 0 0
2 3 2 5 0 0 0 0 0 0 120 192 197 273 206 282 347 300 195 91 45 0 0 0 0 0 0 0 0 0 0 0 0 0 0 0 0 0 0 0 0 0 0
2 2 0 0 0 0 0 0 0 13 159 135 210 207 227 364 417 346 244 118 0 0 0 0 0 0 0 0 0 0 0 0 0 0 0 0 0 0 0 0 0 0 0
0 0 1 0 0 0 0 0 15 134 126 177 229 295 337 419 447 219 156 0 0 0 0 0 0 0 0 0 0 0 0 0 0 0 0 0 0 0 0 0 0 0 0
0 0 0 0 0 0 15 9 75 73 199 295 222 215 361 398 403 332 58 0 0 0 0 0 0 0 0 0 0 0 0 0 0 0 0 0 0 0 0 0 0 0 0
0 0 1 9 2 0 51 98 24 85 166 255 259 359 363 362 345 247 64 2 0 0 0 0 0 0 0 0 0 0 0 0 0 0 0 0 0 0 0 0 0 0 0
22 15 13 36 52 134 161 231 29 148 226 321 327 368 297 33 13 28 120 1 0 0 0 0 0 0 0 0 0 0 0 0 0 0 0 0 0 0 0 0 0 0 0
18 20 14 23 223 366 368 56 6 42 172 263 319 300 236 72 7 73 53 0 0 0 0 0 0 0 0 0 0 0 0 0 0 0 0 0 0 0 0 0 0 0 0
31 12 31 104 292 394 513 497 110 326 260 343 365 280 10 0 0 0 0 0 0 0 0 0 0 0 0 0 0 0 0 0 0 0 0 0 0 0 0 0 0 0 0
251 160 167 359 479 505 645 678 525 427 340 345 301 129 5 0 0 0 0 0 0 0 0 0 0 0 0 0 0 0 0 0 0 0 0 0 0 0 0 0 0 0 0

GFSSE_con_sbcape_081.txt.gz
CAPE
559 1698 1769 1775 1649 1431 1276 1235 1133 1090 1038 1016 1010 944 931 918 937 969 865 842 846 759 114 0 125 0 0 0 0 0 15 15 0 6 12 6 12 21 17 8 12 2 10
399 1774 1686 1694 1649 1456 1386 1309 1277 1190 1158 1092 968 816 781 807 882 979 1027 922 835 700 89 0 38 0 0 0 68 27 128 97 21 0 2 11 8 4 7 11 18 7 15
25 1 1648 1637 1626 1532 1457 1443 1439 1381 1314 1134 903 758 719 750 883 1027 1066 924 897 743 86 0 0 0 0 10 150 159 136 144 31 0 0 0 0 3 2 1 9 7 13
361 18 681 1513 1593 1651 1506 1503 1444 1417 1218 963 796 737 676 781 948 1180 1074 898 819 700 84 0 0 0 0 58 25 44 44 27 7 0 0 0 0 0 0 0 4 8 16
29 51 0 1080 1208 1576 1537 1440 1311 1156 920 776 645 684 692 857 1070 1168 1104 895 744 679 89 0 0 0 10 6 12 36 22 10 0 0 0 0 0 0 0 0 3 7 15
0 0 7 705 901 1474 1540 1420 1193 924 742 621 599 755 827 879 954 1014 1072 997 948 750 137 0 0 0 0 0 7 33 7 19 0 0 0 0 0 4 2 0 0 2 8
63 36 129 554 832 1392 1555 1290 929 758 681 636 701 775 888 1096 1102 977 1005 1047 907 654 176 10 0 21 0 0 0 19 12 0 0 0 0 0 0 2 1 0 0 6 8
0 289 358 350 772 1093 1104 792 638 629 597 585 702 810 1100 1028 974 1049 1021 997 799 518 247 142 83 44 0 0 0 0 1 0 0 0 0 0 5 3 1 0 0 3 6
1 1 2 569 518 582 457 414 421 450 446 496 449 467 510 519 687 995 1000 850 603 308 198 142 83 4 0 0 0 0 0 0 0 0 0 0 19 3 2 1 0 0 4
0 13 0 18 279 204 176 234 223 256 260 192 102 69 97 181 389 615 656 569 345 246 196 128 27 2 0 0 0 0 0 0 0 0 0 0 15 13 6 0 0 0 7
0 0 0 10 53 94 102 159 106 104 21 11 7 5 2 16 51 131 293 308 288 216 171 96 20 0 0 0 0 0 0 0 0 0 0 0 16 11 5 0 0 0 4
4 4 47 88 52 51 51 12 4 0 0 0 0 0 2 18 58 146 189 212 213 161 98 55 0 0 0 0 0 0 0 0 0 0 0 0 0 12 9 2 0 0 0
11 8 2 6 38 21 29 0 0 0 0 0 0 7 44 62 52 30 44 39 51 50 3 2 0 0 0 0 0 0 0 0 0 0 0 0 0 19 10 7 1 0 0
2 1 1 0 0 0 0 0 0 0 0 0 0 28 64 56 41 15 4 2 2 0 0 0 0 0 0 0 0 0 0 0 0 0 0 0 0 15 11 7 5 2 0
3 1 1 0 0 0 0 0 0 0 0 1 27 115 92 73 73 65 8 7 0 0 0 0 0 0 0 0 0 0 0 0 0 0 0 0 0 12 7 7 8 8 3
3 2 1 2 0 0 0 0 0 0 4 33 84 120 119 143 126 121 30 19 1 0 0 0 0 0 0 0 0 0 0 0 0 0 0 0 0 0 0 0 0 0 0
3 5 2 1 0 0 0 0 4 46 83 77 87 96 126 213 208 190 82 18 0 0 0 0 0 0 0 0 0 0 0 0 0 0 0 0 0 0 0 0 0 0 0
2 3 2 5 0 0 0 0 0 8 11 28 37 43 56 234 190 106 43 0 0 0 0 0 0 0 0 0 0 0 0 0 0 0 0 0 0 0 0 0 0 0 0
1 1 1 0 0 0 0 0 3 0 0 7 22 98 30 48 184 85 19 0 0 0 0 0 0 0 0 0 0 0 0 0 0 0 0 0 0 0 0 0 0 0 0
0 0 0 0 0 0 0 0 0 0 0 21 26 91 33 32 106 135 34 0 0 0 0 0 0 0 0 0 0 0 0 0 0 0 0 0 0 0 0 0 0 0 0
1 1 0 0 0 0 0 0 0 0 23 7 32 64 64 80 99 83 0 0 0 0 0 0 0 0 0 0 0 0 0 0 0 0 0 0 0 0 0 0 0 0 0
0 0 0 0 0 0 0 0 0 2 14 33 32 23 31 88 103 30 0 0 0 0 0 0 0 0 0 0 0 0 0 0 0 0 0 0 0 0 0 0 0 0 0
0 0 0 0 0 0 0 0 0 0 9 11 3 6 79 117 30 51 0 0 0 0 0 0 0 0 0 0 0 0 0 0 0 0 0 0 0 0 0 0 0 0 0
0 0 0 0 0 0 0 0 0 0 0 0 29 30 60 1 3 0 2 0 0 0 0 0 0 0 0 0 0 0 0 0 0 0 0 0 0 0 0 0 0 0 0
0 0 0 0 0 0 0 0 0 0 0 19 58 67 29 0 0 0 0 0 0 0 0 0 0 0 0 0 0 0 0 0 0 0 0 0 0 0 0 0 0 0 0
0 0 0 0 0 1 7 34 13 0 8 45 72 42 0 0 0 0 0 0 0 0 0 0 0 0 0 0 0 0 0 0 0 0 0 0 0 0 0 0 0 0 0

GFSSE_con_sbcape_084.txt.gz
CAPE
1281 1684 1596 1801 1829 1596 1510 1545 1362 1255 1230 1315 1357 1329 1203 1057 1056 985 913 686 482 271 0 0 117 22 0 0 0 11 18 12 15 15 6 8 12 10 7 6 4 2 12
978 1761 1749 1967 1745 1638 1494 1458 1341 1301 1303 1257 1156 1154 1152 1093 1014 1078 919 647 312 74 0 0 129 3 0 1 91 79 0 0 0 2 8 4 3 6 6 5 21 5 12
790 1846 1852 1663 1613 1664 1713 1593 1555 1506 1334 1214 1118 1157 1223 1213 1237 1121 992 669 338 97 42 0 0 0 0 13 177 114 15 0 0 0 0 0 0 5 6 8 21 22 21
476 1327 1619 1654 1716 1701 1683 1590 1529 1452 1237 1080 1050 1105 1215 1372 1322 1287 1087 596 360 178 154 0 0 0 0 18 29 21 4 0 0 0 0 0 0 3 6 8 14 18 23
376 303 1249 1323 1475 1403 1704 1599 1414 1190 996 856 855 1076 1235 1453 1382 1331 973 565 389 191 41 0 0 0 4 12 3 1 0 0 0 0 0 0 0 1 2 3 5 15 17
142 156 43 1039 714 1134 1733 1596 1282 976 730 676 764 1035 1317 1446 1424 1172 940 654 456 222 45 0 0 0 15 0 0 0 0 0 0 0 0 0 0 2 4 7 9 9 9
266 114 57 328 1111 1361 1589 1477 1006 717 624 658 779 992 1318 1553 1459 1227 972 748 396 209 31 0 0 7 8 0 0 0 0 0 0 0 0 0 0 4 4 7 7 8 7
72 246 161 92 468 829 1261 993 633 525 563 615 737 930 1180 1339 1392 1285 1061 730 403 200 95 54 1 0 0 0 0 0 0 0 0 0 0 0 6 3 1 3 7 8 8
1 1 0 0 195 290 706 472 339 412 492 522 662 860 923 955 1134 1125 929 699 337 106 82 66 4 0 0 0 0 3 0 0 0 0 0 0 5 3 0 1 6 6 7
1 4 0 0 0 185 291 191 120 360 386 506 496 430 568 824 954 796 606 382 154 121 138 64 8 2 0 0 0 0 0 0 0 0 0 0 6 7 2 1 9 10 10
1 0 0 27 63 44 130 147 151 172 165 129 98 70 305 627 666 404 233 187 166 154 109 60 18 0 0 0 0 0 0 0 0 0 0 18 11 11 6 0 4 5 9
0 0 4 30 32 41 108 77 81 10 0 0 0 0 0 46 215 223 151 172 176 112 70 55 10 0 0 0 0 0 0 0 0 0 0 9 14 17 11 2 2 1 3
2 2 40 34 11 6 58 61 0 0 0 0 0 0 0 13 46 67 118 73 44 27 4 1 0 0 0 0 0 0 0 0 0 0 0 0 17 11 6 10 3 0 0
9 6 1 2 19 39 4 0 0 0 0 0 0 0 0 0 0 0 16 7 0 0 0 0 0 0 0 0 0 0 0 0 0 0 0 0 1 10 8 9 8 2 0
1 1 1 0 0 0 0 0 0 0 0 2 0 0 0 0 1 2 0 0 0 0 0 0 0 0 0 0 0 0 0 0 0 0 0 0 20 21 5 5 9 9 1
2 1 0 0 0 0 0 0 0 0 0 0 1 0 0 2 7 0 0 0 0 0 0 0 0 0 0 0 0 0 0 0 0 0 0 0 0 0 0 1 5 2 0
3 2 1 0 0 0 0 0 0 0 0 13 10 14 18 23 29 1 0 0 0 0 0 0 0 0 0 0 0 0 0 0 0 0 0 0 0 0 0 0 0 0 0
3 4 0 1 0 0 0 0 0 0 0 9 35 49 64 65 75 11 7 6 0 0 0 0 0 0 0 0 0 0 0 0 0 0 0 0 0 0 0 0 0 0 0
1 2 3 1 0 0 0 0 0 0 0 0 16 35 27 92 81 23 11 0 0 0 0 0 0 0 0 0 0 0 0 0 0 0 0 0 0 0 0 0 0 0 0
2 1 2 3 0 0 0 0 0 0 0 0 0 21 27 31 62 15 3 0 0 0 0 0 0 0 0 0 0 0 0 0 0 0 0 0 0 0 0 0 0 0 0
3 3 1 0 0 0 0 0 0 0 0 0 5 4 24 0 51 46 8 0 0 0 0 0 0 0 0 0 0 0 0 0 0 0 0 0 0 0 0 0 0 0 0
1 1 1 0 0 0 0 0 0 0 0 0 4 6 1 0 14 34 2 0 0 0 0 0 0 0 0 0 0 0 0 0 0 0 0 0 0 0 0 0 0 0 0
0 0 0 0 0 0 0 0 0 0 1 12 8 0 0 0 4 39 0 0 0 0 0 0 0 0 0 0 0 0 0 0 0 0 0 0 0 0 0 0 0 0 0
0 0 0 0 0 0 0 0 0 0 0 0 0 0 0 19 30 41 0 0 0 0 0 0 0 0 0 0 0 0 0 0 0 0 0 0 0 0 0 0 0 0 0
0 0 0 0 0 0 0 0 0 0 0 0 0 0 0 0 0 0 0 0 0 0 0 0 0 0 0 0 0 0 0 0 0 0 0 0 0 0 0 0 0 0 0
0 0 0 0 0 0 0 0 0 0 0 0 0 0 0 0 0 0 0 0 0 0 0 0 0 0 0 0 0 0 0 0 0 0 0 0 0 0 0 0 0 0 0

GFSSE_con_sbcape_090.txt.gz
CAPE
660 1408 1604 1779 1937 1714 1563 1507 1592 1702 1803 1800 1650 1536 1521 1342 1225 1118 924 833 737 674 204 19 150 10 8 13 17 14 16 25 28 20 14 17 19 22 29 17 20 2 22
1031 1516 1605 1759 1880 1796 1674 1606 1635 1786 1881 1843 1712 1619 1553 1307 1162 979 687 468 374 290 6 7 7 9 8 11 11 10 4 13 16 18 19 17 25 26 31 51 87 59 53
1808 1604 1661 1796 1927 1927 1892 1873 1831 1904 1937 1918 1837 1655 1563 1299 1072 755 462 354 299 276 6 8 11 6 6 7 6 2 1 2 11 6 0 0 4 28 17 34 65 57 53
1805 1730 1662 1711 1915 1999 1963 1919 1895 1907 1878 1836 1817 1742 1526 1291 935 590 582 407 474 476 234 46 17 5 2 5 6 3 1 0 0 0 0 0 3 21 22 18 40 37 45
1079 1738 1788 1778 1867 1953 1952 2016 1904 1747 1640 1643 1673 1685 1468 1125 782 728 562 448 628 695 291 137 53 5 26 4 0 0 0 0 0 0 0 0 0 10 16 22 21 19 13
576 882 1587 1681 1801 1849 1936 1941 1797 1652 1499 1482 1488 1564 1413 1115 805 785 575 574 664 685 506 53 1 15 1 0 0 0 0 0 0 0 0 0 0 12 11 7 9 10 11
270 446 1453 1394 1769 1837 1775 1637 1495 1532 1421 1419 1466 1452 1263 1088 794 749 652 559 455 325 102 0 0 94 0 0 0 0 0 0 0 0 0 0 1 13 15 13 10 8 9
143 90 216 1160 940 1550 1474 1334 1204 1280 1259 1318 1385 1391 1235 929 673 619 522 329 191 34 15 130 127 19 0 0 0 0 0 0 0 0 0 0 10 15 14 12 8 8 8
116 74 215 497 892 914 917 938 840 856 887 1255 1325 1213 1026 678 517 444 347 245 16 11 51 119 65 0 0 0 0 0 0 0 0 0 0 0 19 14 12 9 7 7 6
25 13 0 0 163 561 405 584 430 362 402 639 892 963 737 566 394 298 161 20 0 0 13 69 22 0 0 0 0 0 0 0 0 0 0 2 15 12 11 9 9 9 8
12 19 0 0 0 65 313 404 308 226 228 333 682 684 555 409 174 49 0 0 0 0 0 52 57 0 0 0 0 0 0 0 0 0 0 16 14 16 16 12 11 10 10
0 0 0 0 0 0 136 102 129 103 17 106 540 622 496 210 28 0 0 0 0 0 1 71 21 0 0 0 0 0 0 0 0 0 0 18 16 16 12 11 9 8 6
0 0 34 57 45 1 5 151 79 42 0 5 279 372 315 194 26 0 0 0 0 0 0 0 0 0 0 0 0 0 0 0 0 0 5 21 9 9 12 8 5 4 3
0 6 0 0 3 11 1 103 30 1 1 7 124 252 300 160 12 0 0 0 0 0 0 0 0 0 0 0 0 0 0 0 0 0 4 14 13 15 12 9 4 3 4
7 1 2 0 2 1 7 9 0 2 0 6 49 156 242 135 8 0 0 0 0 0 0 0 0 0 0 0 0 0 0 0 0 0 0 8 7 11 12 9 5 0 0
1 1 0 0 4 1 2 3 5 8 0 14 26 60 136 90 33 2 0 0 0 0 0 0 0 0 0 0 0 0 0 0 0 0 0 0 3 16 11 7 8 4 0
2 0 0 0 0 1 1 0 0 1 13 21 30 0 14 28 9 1 0 0 0 0 0 0 0 0 0 0 0 0 0 0 0 0 0 0 0 0 2 8 1 0 0
1 1 0 0 0 0 0 0 0 0 1 0 0 12 18 22 9 0 0 0 0 0 0 0 0 0 0 0 0 0 0 0 0 0 0 0 0 0 0 0 0 0 0
1 1 0 0 0 0 0 0 1 2 0 1 0 13 28 11 4 0 0 0 0 0 0 0 0 0 0 0 0 0 0 0 0 0 0 0 0 0 0 0 0 0 0
3 2 2 1 0 0 0 1 0 0 5 19 20 24 24 32 14 2 0 0 0 0 0 0 0 0 0 0 0 0 0 0 0 0 0 0 0 0 0 0 0 0 0
3 1 2 3 0 0 0 0 0 0 0 20 26 24 27 34 17 7 1 0 0 0 0 0 0 0 0 0 0 0 0 0 0 0 0 0 0 0 0 0 0 0 0
3 2 1 2 3 0 0 0 1 2 5 0 6 28 34 42 65 27 12 0 0 0 0 0 0 0 0 0 0 0 0 0 0 0 0 0 0 0 0 0 0 0 0
1 1 0 0 1 0 0 0 0 0 2 0 15 12 17 16 54 66 19 2 0 0 0 0 0 0 0 0 0 0 0 0 0 0 0 0 0 0 0 0 0 0 0
1 0 0 0 0 0 0 0 0 0 0 0 0 19 20 28 19 56 26 0 0 0 0 0 0 0 0 0 0 0 0 0 0 0 0 0 0 0 0 0 0 0 0
0 0 0 0 0 0 0 0 0 0 0 0 0 1 7 6 12 14 17 1 0 0 0 0 0 0 0 0 0 0 0 0 0 0 0 0 0 0 0 0 0 0 0
0 0 0 0 0 0 0 0 0 0 0 0 0 0 0 0 0 0 0 0 0 0 0 0 0 0 0 0 0 0 0 0 0 0 0 0 0 0 0 0 0 0 0

GFSSE_con_sbcape_096.txt.gz
CAPE
1325 1412 1458 1866 1981 2021 1723 1655 1612 1587 1688 1684 1646 1528 1576 1670 1484 1433 1257 1052 956 937 411 61 370 137 21 21 16 22 28 30 27 35 25 13 6 0 0 35 27 26 29
1507 1299 1452 1954 2099 2151 1994 1783 1773 1834 1839 1873 1640 1626 1628 1736 1767 1405 1333 1182 1026 808 104 38 163 24 21 18 7 18 24 21 20 30 48 59 39 28 23 58 34 18 15
1653 1447 1575 1880 2096 2276 2189 2018 2017 2091 2044 1960 1790 1802 1748 1873 1766 1614 1383 1038 937 672 57 18 13 15 16 11 7 0 3 15 24 28 41 47 46 59 58 67 75 45 33
1821 1680 1608 1799 1959 2320 2219 2081 2218 2276 2151 1965 2029 1962 1918 1876 1748 1569 1195 822 714 534 15 12 8 12 9 7 10 8 0 0 3 30 11 25 49 60 57 44 30 31 25
1445 1932 1636 1733 1836 2157 2320 2226 2287 2263 2037 1974 1951 1976 1909 1759 1586 1324 914 569 540 435 51 11 7 3 3 11 11 3 0 0 0 10 11 34 17 30 16 12 14 13 16
1417 1929 1464 1598 1717 2069 2398 2364 2331 2166 1942 1907 1798 1839 1778 1605 1360 989 654 535 593 470 51 4 1 2 6 4 4 0 0 0 0 0 2 15 8 13 11 0 3 5 13
1360 1749 384 907 1376 1833 2477 2414 2227 2052 1913 1763 1725 1540 1468 1309 1080 748 592 587 472 354 128 4 1 1 1 0 0 0 0 0 0 0 0 2 6 10 12 11 11 11 10
951 1011 162 110 182 414 1946 2150 2015 1900 1730 1587 1473 1281 1297 1095 882 781 725 600 614 383 156 52 3 3 0 0 0 0 0 0 0 0 0 2 16 11 11 11 7 6 8
709 575 45 73 86 95 596 1596 1403 1634 1515 1381 1121 1017 983 854 742 825 660 850 626 377 346 57 1 0 0 0 0 0 0 0 0 0 0 1 10 5 10 7 7 7 6
476 626 258 15 29 1 295 153 84 862 1078 1039 806 812 635 629 637 648 520 396 336 409 231 63 10 0 0 0 0 0 0 0 0 0 1 3 17 12 12 6 6 6 5
166 286 426 8 0 2 382 255 23 31 664 673 639 573 420 1025 817 581 326 230 326 345 152 66 2 0 0 0 0 0 0 0 0 2 3 21 22 13 10 8 5 4 4
732 93 294 144 101 98 151 261 102 78 742 1199 811 1042 609 1000 724 348 175 254 374 290 106 68 29 0 0 0 0 0 0 0 0 2 4 27 16 12 9 9 5 4 3
456 474 67 335 253 586 646 878 450 215 514 761 698 520 601 909 757 330 75 162 386 162 128 23 0 0 0 0 0 0 0 0 2 2 3 24 15 8 9 7 7 6 5
455 256 277 146 402 486 386 470 302 202 638 458 706 462 1077 902 651 154 16 93 235 161 143 63 23 38 9 0 0 0 0 0 2 0 4 14 24 12 14 8 5 5 4
257 84 191 250 301 236 424 466 215 665 149 462 321 371 561 348 86 66 74 111 119 169 168 138 100 48 11 0 0 0 0 1 1 2 5 11 19 22 13 13 9 5 3
0 31 123 175 107 153 189 178 90 67 169 317 444 220 221 163 34 30 59 38 104 179 184 138 82 9 0 0 0 0 0 0 0 2 6 12 16 26 21 10 8 6 2
6 6 14 14 43 14 31 40 137 61 39 190 184 150 45 13 4 9 69 2 1 50 76 77 24 0 0 0 0 0 0 0 0 0 6 7 12 11 17 17 4 3 1
7 4 6 5 9 12 3 9 35 66 38 62 163 141 27 4 33 70 36 2 0 10 29 3 0 0 0 0 0 0 0 0 0 5 7 14 9 9 15 30 17 3 0
17 5 7 17 12 2 1 9 12 16 36 43 92 86 19 27 44 82 79 7 0 0 0 0 0 0 0 0 0 0 0 0 0 0 6 18 13 4 8 13 20 11 9
10 5 7 12 9 5 1 7 6 11 15 22 28 59 21 24 46 76 38 33 3 0 0 1 0 5 6 0 0 0 0 0 0 0 2 3 3 2 0 4 2 0 0
9 7 5 6 7 5 2 4 6 3 1 4 0 1 15 27 79 98 42 50 25 10 16 9 2 1 4 0 0 0 0 0 0 0 0 0 0 0 0 0 0 0 0
12 13 6 4 5 3 3 2 3 7 3 3 1 5 7 43 100 84 58 90 87 46 37 20 5 1 2 0 0 0 0 0 0 0 0 0 0 0 0 0 0 0 0
6 8 7 7 3 2 2 0 1 1 6 8 17 23 13 33 81 78 79 84 109 109 71 53 2 3 2 0 0 0 0 0 0 0 0 0 0 0 0 0 0 0 0
5 18 16 4 8 7 2 1 0 1 1 17 27 29 24 15 35 93 101 111 123 113 107 73 14 27 7 0 0 0 0 0 0 0 0 0 0 0 0 0 0 0 0
4 11 10 11 9 4 6 7 2 6 3 8 14 62 44 25 44 31 61 62 93 107 131 139 75 55 45 66 0 0 0 0 0 0 0 0 0 0 0 0 0 0 0
10 13 9 9 13 5 4 6 0 2 0 1 0 5 53 47 105 56 40 63 71 131 157 193 212 167 86 54 79 26 4 5 0 0 0 0 0 0 0 0 0 0 0

GFSSE_con_sbcape_099.txt.gz
CAPE
1202 1785 1822 2003 2135 1907 1687 1632 1625 1594 1654 1668 1679 1738 1675 1732 1584 1401 1178 942 864 803 301 86 289 124 11 7 2 100 33 18 24 29 17 12 2 4 32 172 67 32 35
1348 2000 1566 1925 2106 2170 1906 1820 1786 1743 1854 1860 1808 1815 1729 1706 1597 1469 1243 1134 1062 784 198 109 29 20 20 13 42 53 67 53 15 18 21 31 46 15 14 32 44 18 20
1709 1716 1583 1925 2060 2305 2188 2049 2020 2054 2121 2042 1920 1978 1833 1814 1681 1498 1390 1212 1027 699 144 74 21 21 20 8 43 55 17 10 107 48 73 27 31 27 20 38 44 20 18
1828 1818 1962 1828 2070 2349 2264 2105 2114 2304 2258 2007 2002 2113 2063 1871 1803 1704 1377 1070 855 803 178 143 20 19 17 13 9 3 0 0 4 34 23 30 38 43 30 16 11 7 11
1274 1692 1888 1766 1966 2335 2284 2138 2137 2212 2104 1933 2006 2203 2238 2006 1941 1625 1207 892 798 643 101 36 18 17 12 1 0 0 0 0 0 29 21 29 18 16 12 6 5 10 27
1069 1372 1335 1618 1825 2112 2273 2143 2181 2101 1798 1853 1958 2184 2233 2022 1704 1415 918 760 697 542 170 10 9 10 4 0 0 0 0 0 11 13 10 20 21 22 4 0 0 8 28
1013 1488 2168 543 1592 1839 1900 1770 2022 1924 1715 1828 1929 2031 1946 1506 1508 1052 728 592 494 351 190 7 7 5 1 0 0 0 0 0 0 1 4 5 13 13 6 10 12 11 12
1134 1623 1516 350 668 345 230 141 1268 1638 1572 1622 1745 1770 1735 1417 1168 863 709 520 304 206 118 12 9 2 0 0 0 0 0 0 2 2 2 2 14 13 12 11 12 13 15
1207 1138 1101 426 173 52 170 40 87 1278 1362 1430 1475 1402 1239 944 759 838 723 461 245 152 59 4 3 0 0 0 0 0 0 0 6 1 0 3 19 13 14 11 12 13 14
906 777 832 45 3 146 169 10 3 763 941 1047 1086 934 742 624 662 652 678 490 257 140 64 2 0 0 0 0 0 0 0 0 3 1 1 4 14 14 10 9 9 10 10
787 638 677 330 27 16 119 113 190 422 532 771 728 560 458 941 735 660 457 432 346 90 46 24 2 0 0 0 0 0 0 12 12 2 0 21 12 11 12 6 9 8 6
1136 496 595 384 27 11 150 1 89 10 161 820 1227 1053 882 928 668 469 386 331 213 48 34 15 0 0 0 0 0 0 2 3 15 3 1 20 15 13 10 8 8 7 5
674 608 258 404 110 15 103 278 574 14 27 207 990 1081 525 918 832 928 643 460 248 22 0 0 0 0 0 0 0 6 0 0 18 6 2 21 16 16 13 10 7 4 5
491 381 403 415 417 401 374 754 684 208 1 183 1258 909 981 903 656 954 636 284 287 71 0 0 0 6 3 0 0 0 0 10 14 4 8 21 24 13 11 11 9 7 4
373 275 287 351 493 554 431 810 713 331 579 218 452 926 660 475 551 275 312 318 204 172 34 41 0 51 43 2 0 0 1 3 2 2 5 11 23 23 12 12 9 7 6
359 280 156 180 194 309 513 529 663 168 222 204 207 513 858 847 497 108 282 367 312 267 125 98 92 62 43 1 0 0 0 0 6 9 6 7 15 24 22 13 10 7 5
231 168 49 48 130 148 161 274 512 502 383 355 81 218 630 251 255 146 211 340 220 288 431 229 160 36 2 0 0 0 0 2 13 21 7 13 6 11 18 27 25 7 2
268 80 32 3 13 57 66 171 299 108 398 149 130 85 70 64 175 139 99 103 243 232 297 202 115 5 0 0 0 0 0 4 6 13 15 26 12 11 8 21 19 8 1
118 8 5 3 22 35 17 18 112 152 128 169 112 81 75 7 17 9 32 56 240 237 224 178 70 23 0 0 0 0 0 0 0 1 14 31 23 14 7 5 6 7 1
22 9 12 2 10 7 16 23 22 15 89 79 118 27 6 1 11 28 16 84 168 184 181 74 52 10 0 0 0 0 0 0 0 0 2 10 10 13 1 15 0 1 5
12 9 6 13 12 18 7 15 20 18 50 58 89 19 0 0 19 50 42 102 176 74 35 40 61 129 19 24 0 0 0 0 0 0 0 2 2 0 4 1 7 1 0
7 9 2 5 12 10 7 5 10 2 13 29 11 1 0 0 6 47 86 129 144 82 84 115 160 61 34 8 4 0 0 0 0 0 0 0 1 0 0 0 0 1 0
2 6 5 5 17 7 1 2 2 0 1 1 2 3 4 0 4 28 66 147 161 161 149 174 177 126 54 7 38 11 0 0 0 0 0 0 0 0 0 0 0 0 0
40 11 16 8 3 3 1 0 2 0 0 3 2 5 7 8 32 67 88 172 208 193 176 157 128 156 148 35 1 3 26 14 83 36 0 0 0 0 0 0 0 0 0
138 10 11 11 9 13 1 5 0 3 3 3 5 8 16 57 65 85 121 190 252 180 223 231 175 151 125 139 31 3 0 1 32 3 28 0 0 0 0 0 0 2 0
67 2 0 6 2 10 4 4 2 0 3 11 13 6 9 23 48 82 94 179 197 217 218 209 172 117 163 223 190 150 10 18 6 9 4 4 0 0 0 0 0 0 0

GFSSE_con_sbcape_102.txt.gz
CAPE
1801 1468 1893 2001 1800 1703 1614 1617 1593 1587 1562 1635 1753 1762 1727 1535 1343 1170 998 832 777 758 397 317 348 197 120 35 0 144 81 36 30 130 64 70 33 36 147 166 37 15 137
1822 1579 1863 2119 2010 1819 1783 1781 1743 1763 1768 1858 1840 1796 1718 1553 1386 1198 1071 986 947 870 326 249 128 70 58 27 130 5 1 0 4 17 93 136 42 13 4 33 42 20 24
1695 1720 1621 1960 2249 2049 2006 2014 2023 2014 1960 1996 1949 1902 1845 1700 1517 1368 1338 1175 963 913 353 196 69 14 11 7 117 72 43 29 7 72 21 0 0 16 12 25 44 28 35
1220 1826 1808 1802 2094 2282 2134 2087 2062 2217 2080 2061 2086 1910 1813 1816 1640 1634 1401 1058 877 858 269 126 71 15 14 116 58 106 171 104 159 55 11 11 18 24 21 18 16 10 14
1112 1209 2272 1729 1906 2265 2216 2114 2080 2177 2039 2011 1959 1588 1602 1485 1699 1682 1239 921 934 887 157 102 89 50 16 19 34 11 4 1 12 13 8 13 13 18 19 17 12 14 31
899 1720 1245 1620 1804 2119 2149 2178 2077 1835 1933 1759 1338 758 1527 1448 1706 1484 1065 904 868 661 118 107 74 11 5 0 0 0 0 0 1 0 2 11 5 23 12 6 2 7 29
899 1906 1940 1286 1560 2040 2267 2107 2030 1828 1792 1691 1566 1429 1350 1186 1297 1243 960 801 598 463 163 41 9 0 0 0 0 0 0 0 0 0 0 0 7 17 8 10 11 14 13
1229 2118 2168 664 782 1535 1969 1820 1699 1654 1182 1520 1660 1333 920 953 786 868 847 706 410 183 107 55 21 0 0 0 0 0 0 0 0 0 0 0 18 13 12 13 13 15 17
1662 1546 1652 1359 736 609 402 434 304 57 5 879 1264 581 307 472 684 783 723 507 231 124 91 48 13 0 0 0 0 0 0 0 0 0 0 1 26 13 15 17 18 15 15
1311 1231 1214 886 386 187 289 4 45 21 0 0 797 550 597 600 518 533 337 252 124 83 4 0 0 0 0 0 0 0 0 0 0 0 0 1 12 18 16 17 17 12 10
1122 1086 1055 775 368 209 32 69 70 39 15 0 450 477 398 456 506 314 186 118 85 26 4 0 0 0 0 0 0 0 0 1 0 0 0 20 23 19 20 14 9 6 7
1523 998 1072 820 369 58 28 1 35 18 0 0 330 364 440 455 410 276 130 86 29 4 0 0 0 0 0 0 0 0 0 10 0 0 0 27 18 20 12 7 6 7 7
1216 1257 722 605 194 0 96 20 62 0 5 12 185 197 331 472 259 260 181 7 0 0 0 0 0 0 0 0 0 0 0 16 0 0 2 21 17 12 9 6 6 9 9
1166 888 680 469 66 6 123 15 61 39 8 8 320 269 392 277 219 251 139 1 0 0 0 0 0 0 0 0 0 2 3 12 0 0 1 12 16 12 12 9 8 8 8
732 653 543 431 365 219 127 89 93 15 0 8 63 239 223 122 259 186 140 53 0 0 0 0 0 0 0 0 0 0 3 12 0 0 0 3 12 20 15 11 8 7 8
576 554 415 345 412 443 278 129 103 19 0 16 139 219 220 178 267 153 115 102 1 0 0 0 0 6 0 0 0 0 0 5 0 0 0 0 10 19 21 11 6 7 6
445 343 77 269 296 267 178 251 208 151 18 104 64 122 241 236 183 57 68 110 70 8 8 0 0 13 3 0 0 0 0 0 2 0 0 0 0 6 16 24 7 4 4
376 146 39 5 55 113 130 244 222 189 153 66 7 63 79 172 108 51 61 73 99 69 83 36 49 4 0 0 0 0 0 0 12 0 0 0 0 0 4 11 8 13 7
301 44 9 10 8 36 32 13 156 161 113 92 12 20 26 62 35 76 71 100 149 110 107 103 22 0 0 0 0 0 0 0 1 0 0 0 0 0 0 0 0 9 6
190 22 6 3 11 8 1 0 16 64 135 132 28 5 2 2 1 6 25 98 33 66 103 42 25 0 0 0 0 0 0 0 0 2 0 4 0 0 0 0 0 0 0
30 3 0 6 6 7 8 12 10 1 1 82 76 1 0 1 0 0 17 12 3 37 57 68 19 10 0 0 0 0 0 0 0 0 0 0 0 0 0 0 0 0 0
0 0 1 9 4 8 11 11 12 9 4 32 71 7 2 0 0 0 1 22 16 0 12 31 19 22 23 14 7 0 0 0 0 0 0 0 0 0 0 0 0 0 0
0 1 1 0 4 5 5 7 1 11 28 51 88 4 1 0 0 0 7 5 18 17 39 44 58 51 50 26 8 1 0 0 0 0 0 0 0 0 0 0 0 0 0
1 1 3 2 1 7 3 8 0 1 2 2 52 2 1 0 0 0 12 13 8 24 57 62 99 121 66 23 1 0 1 8 13 0 0 0 0 0 0 0 0 0 0
1 0 1 4 3 1 3 2 1 1 2 1 2 1 0 0 0 0 0 6 22 51 95 92 117 113 78 28 10 4 0 0 7 0 0 0 0 0 0 0 0 0 0
62 0 2 4 5 3 1 4 2 1 3 1 2 4 3 1 4 0 0 20 27 45 75 93 116 99 111 62 15 11 0 0 0 0 0 0 0 0 0 0 0 0 0

GFSSE_con_sbcape_105.txt.gz
CAPE
1404 1658 1608 1732 1710 1681 1631 1601 1546 1535 1758 1881 1862 1699 1600 1500 1369 1236 1136 1009 1006 1120 803 661 673 465 401 348 366 520 481 369 342 411 444 347 154 94 52 93 82 33 111
1404 1846 1746 1801 1772 1763 1786 1752 1723 1760 1957 2010 1942 1725 1590 1457 1315 1191 1102 1070 1100 1118 698 617 404 382 221 110 238 136 98 100 89 135 242 260 171 47 38 40 59 55 60
1505 1940 2032 1809 1844 1922 2023 1969 1954 1959 2110 2102 2003 1829 1716 1552 1396 1279 1195 1118 1073 1027 577 507 419 246 29 122 84 55 69 82 4 8 12 0 6 26 26 41 63 47 44
1543 1748 2044 1993 1934 2017 2071 2105 2070 2109 2184 2121 2107 1986 1820 1682 1598 1500 1288 1107 1002 958 348 238 231 71 58 109 58 15 40 181 0 7 0 1 3 24 36 38 31 35 27
1540 1471 1793 2016 2014 2054 2099 2127 2115 2086 2117 2007 1984 2045 1814 1729 1760 1650 1253 1077 1010 910 272 192 138 116 228 134 180 190 198 49 30 0 0 0 8 14 15 13 11 23 28
1111 1816 1572 1738 2072 2077 2169 2154 2153 2171 1997 1852 1743 1780 1635 1575 1460 1325 1213 1054 959 814 502 146 107 235 71 28 0 0 1 0 0 0 0 15 2 14 12 19 19 39 38
1168 1379 1346 1561 1817 2212 2317 2244 2043 2114 1905 1830 1031 1047 660 1009 1067 714 815 1121 840 691 548 249 130 66 30 0 0 0 0 0 0 0 0 0 3 10 21 18 16 10 8
1168 1318 1051 1317 1572 1938 2278 2176 1934 1870 1744 1453 1014 689 646 546 559 710 638 801 658 448 284 148 66 32 33 0 0 0 0 0 0 0 0 0 17 16 21 13 14 13 14
927 1274 1168 653 572 1067 1476 1064 1668 1611 1379 1066 426 661 679 403 522 773 801 693 416 220 185 131 35 15 15 0 0 0 0 0 0 0 0 0 24 15 14 13 11 14 15
746 697 786 492 225 0 83 55 164 952 830 660 475 350 306 356 476 576 534 394 234 183 158 121 22 0 0 0 0 0 0 0 0 0 0 3 19 9 11 9 12 15 11
627 537 502 265 0 0 0 0 11 52 127 195 31 2 139 168 339 347 222 215 188 134 95 36 9 0 0 0 0 0 0 0 0 0 0 15 10 7 7 11 10 10 11
556 507 467 253 94 4 0 0 1 5 23 14 9 0 114 143 176 137 154 162 106 58 31 3 0 0 0 0 0 0 0 0 0 0 0 13 10 11 12 8 10 14 9
765 503 485 314 53 0 0 0 0 4 16 0 0 0 123 244 196 75 30 25 10 2 0 0 0 0 0 0 0 0 0 0 0 0 0 12 20 13 12 11 10 8 9
746 369 275 127 0 0 0 0 0 0 0 6 0 17 147 208 168 29 2 1 0 0 0 0 0 0 0 0 0 0 0 0 0 0 0 8 20 15 15 11 7 7 6
618 376 180 54 0 0 0 0 7 9 6 20 0 103 166 156 145 10 0 0 0 0 0 0 0 0 0 0 0 0 0 0 0 0 0 4 16 19 13 10 7 5 6
98 173 121 132 2 0 0 0 4 0 1 4 0 96 127 91 99 18 0 0 0 0 0 0 0 0 0 0 0 0 0 0 0 0 0 0 6 24 21 7 5 6 7
71 63 126 158 74 5 14 0 9 0 1 9 77 134 126 155 90 26 0 0 0 0 0 0 0 0 0 0 0 0 0 0 0 0 0 0 0 3 10 11 8 5 9
0 0 22 118 21 9 45 15 37 0 0 33 37 117 100 167 94 56 13 0 0 0 0 0 0 0 0 0 0 0 0 0 0 0 0 0 0 0 0 4 12 11 7
0 0 0 0 6 2 0 7 10 7 7 50 48 99 82 84 26 31 32 6 9 0 0 0 0 0 0 0 0 0 0 0 0 0 0 0 0 0 0 0 0 1 12
0 0 0 0 0 0 0 0 0 21 37 0 0 53 23 33 1 0 22 20 14 6 37 0 0 0 0 0 0 0 0 0 0 0 0 0 0 0 0 0 0 0 0
0 0 0 0 0 0 0 0 0 0 16 38 0 5 0 0 2 0 17 22 60 38 40 0 0 0 0 0 0 0 0 0 0 0 0 0 0 0 0 0 0 0 0
0 0 0 0 0 0 0 0 0 0 0 63 16 7 1 0 0 0 1 5 30 24 20 2 0 0 0 0 0 0 0 0 0 0 0 0 0 0 0 0 0 0 0
0 0 0 0 0 0 4 0 0 0 2 1 36 5 2 0 0 0 0 0 10 4 2 0 0 2 0 0 0 0 0 0 0 0 0 0 0 0 0 0 0 0 0
0 0 0 0 0 1 3 0 5 4 3 4 0 1 0 0 0 0 0 0 0 1 0 0 0 1 1 1 0 0 0 0 0 0 0 0 0 0 0 0 0 0 0
0 0 0 0 0 0 2 0 0 0 0 3 25 2 2 0 0 0 0 0 0 0 0 0 4 35 2 1 0 0 0 0 0 0 0 0 0 0 0 0 0 0 0
0 0 0 2 0 0 3 0 0 0 1 0 5 0 1 1 0 0 0 0 0 3 2 1 19 33 24 11 11 2 0 0 0 0 0 0 0 0 0 0 0 0 0

GFSSE_con_sbcape_108.txt.gz
CAPE
1458 1419 1569 1768 1767 1625 1578 1471 1508 1714 1734 1766 1710 1654 1630 1613 1545 1514 1460 1341 1364 1425 1109 1013 1211 1372 1125 798 858 891 811 675 604 627 601 276 168 120 109 107 143 57 123
1384 1529 1583 1773 1791 1712 1731 1640 1722 1897 1967 1919 1824 1669 1536 1472 1410 1377 1372 1386 1442 1352 957 847 880 917 859 591 682 475 400 366 393 405 368 274 85 79 65 58 125 51 64
1596 1627 1582 1687 1868 1892 1911 1864 1973 2159 2208 2023 1855 1686 1592 1520 1402 1335 1349 1389 1397 1274 654 468 530 642 524 519 460 376 143 49 18 13 0 0 22 52 41 43 123 54 57
1679 1718 1618 1654 1857 2001 2006 2009 2137 2248 2248 2037 1894 1735 1625 1536 1513 1518 1358 1215 1262 1170 741 795 486 362 370 417 327 228 60 16 0 0 0 0 13 35 35 32 36 43 38
1591 1893 1728 1620 1782 1988 2095 2086 2151 2246 2136 2017 1897 1835 1721 1703 1650 1506 1247 1077 1111 1062 631 621 420 175 258 140 184 224 69 2 0 0 0 0 0 25 25 32 27 15 21
1342 1652 1856 1548 1681 1952 2176 2220 2207 2231 2007 1915 1927 1855 1917 1889 1764 1487 1254 1169 1095 954 600 406 307 414 299 245 288 17 35 0 0 0 0 9 10 28 24 25 24 20 21
1229 1410 1615 1602 1688 1973 2273 2296 2179 2127 1951 1887 1783 1289 883 1351 1549 1335 1184 1071 933 850 692 593 527 330 129 28 10 0 0 0 0 0 0 5 13 12 14 17 6 8 9
1106 1131 1267 1500 1861 2026 2166 2147 2061 1826 1861 1588 1052 593 465 856 1234 1147 1105 992 774 657 466 439 241 52 2 0 0 0 0 0 0 0 0 0 23 17 14 9 9 14 10
1130 899 1024 1283 1522 1757 2168 2128 1851 1722 1371 1054 559 334 653 594 539 826 878 901 698 483 396 292 99 31 4 0 0 7 0 0 0 0 0 0 30 19 14 14 14 12 10
926 811 583 379 400 403 972 864 1151 1567 1025 710 230 145 90 34 173 577 632 725 568 390 283 189 67 15 0 0 6 0 0 0 0 0 0 2 27 15 13 17 14 13 16
415 330 335 198 0 0 0 16 157 161 546 341 214 57 35 3 129 576 445 354 318 205 178 146 54 22 1 0 1 0 0 0 0 0 0 22 17 16 18 15 12 11 9
456 182 164 32 0 0 0 0 0 0 95 250 114 102 139 39 164 284 235 173 166 141 121 86 26 0 0 0 0 0 0 0 0 0 0 19 17 15 19 12 8 7 7
385 230 153 35 0 0 0 0 1 1 0 42 38 124 168 140 156 180 145 74 41 53 1 4 0 0 0 0 0 0 0 0 0 0 0 11 11 11 11 6 5 6 7
403 254 162 75 0 0 0 0 1 1 1 12 27 35 63 102 82 142 85 4 0 0 0 0 0 0 0 0 0 0 0 0 0 0 0 5 9 7 4 6 6 7 8
473 207 56 0 0 0 0 0 0 1 1 2 3 2 7 105 92 67 12 0 0 0 0 0 0 0 0 0 0 0 0 0 0 0 0 0 10 7 4 4 7 7 12
373 160 0 0 0 0 0 0 0 1 2 6 7 1 0 75 91 28 0 0 0 0 0 0 0 0 0 0 0 0 0 0 0 0 0 0 0 9 9 6 6 8 12
333 72 0 0 0 0 0 0 1 0 1 13 14 3 11 73 58 0 0 0 0 0 0 0 0 0 0 0 0 0 0 0 0 0 0 0 0 0 7 10 9 9 11
67 5 0 53 1 0 0 0 2 0 0 18 7 81 76 50 62 0 0 0 0 0 0 0 0 0 0 0 0 0 0 0 0 0 0 0 0 0 0 7 16 17 14
18 0 0 1 0 0 3 0 1 0 0 34 0 80 110 103 42 0 0 0 0 0 0 0 0 0 0 0 0 0 0 0 0 0 0 0 0 0 0 0 7 11 12
0 0 0 0 0 0 0 2 2 1 1 31 66 42 107 108 42 0 0 0 0 0 0 0 0 0 0 0 0 0 0 0 0 0 0 0 0 0 0 0 0 0 0
0 0 0 0 0 0 0 0 2 3 2 1 16 35 68 58 43 9 0 0 0 0 0 0 0 0 0 0 0 0 0 0 0 0 0 0 0 0 0 0 0 0 0
0 0 0 0 0 0 0 0 0 0 3 1 1 32 60 27 6 9 0 0 0 0 1 0 0 0 0 0 0 0 0 0 0 0 0 0 0 0 0 0 0 0 0
0 0 0 0 0 0 0 0 0 0 1 12 2 2 19 2 0 1 3 0 1 0 1 0 0 0 0 0 0 0 0 0 0 0 0 0 0 0 0 0 0 0 0
0 0 0 0 0 0 0 0 0 0 0 0 27 4 34 0 0 3 3 0 10 6 6 0 0 0 0 0 0 0 0 0 0 0 0 0 0 0 0 0 0 0 0
0 0 0 0 0 0 0 0 0 0 0 0 0 10 12 1 0 0 0 0 9 3 2 0 0 0 0 0 0 0 0 0 0 0 0 0 0 0 0 0 0 0 0
0 0 0 0 0 0 0 0 0 0 6 3 7 2 5 5 1 0 0 0 1 0 0 0 0 0 0 0 0 0 0 0 0 0 0 0 0 0 0 0 0 0 0

GFSSE_con_sbcape_111.txt.gz
CAPE
1180 1060 1469 1706 1692 1576 1461 1598 1610 1658 1728 1943 1941 1859 1786 1719 1615 1593 1558 1564 1616 1705 1437 1323 1632 1583 1166 1058 1011 1051 865 676 633 599 470 292 178 141 203 173 168 53 251
1114 1197 1455 1759 1720 1639 1580 1742 1760 1831 1921 2014 2009 1930 1835 1750 1739 1691 1716 1674 1687 1664 1165 1374 1648 1151 967 889 1071 934 834 646 521 445 450 391 168 93 177 139 171 70 223
1305 1296 1452 1718 1781 1780 1770 1959 1978 2063 2049 1952 1998 1945 1907 1863 1772 1717 1778 1729 1700 1285 1134 1051 1155 1162 890 776 794 733 614 452 286 208 53 0 14 88 98 92 166 77 60
1347 1312 1423 1646 1786 1921 1878 2019 2127 2164 2077 2002 1975 1937 1892 1853 1786 1785 1748 1642 1582 1462 1011 1186 1216 991 706 747 541 409 234 96 27 10 0 0 15 46 53 49 31 24 36
1511 1379 1393 1580 1736 1956 1982 2113 2191 2165 2045 1964 1906 1937 1859 1832 1857 1870 1654 1470 1386 1265 810 841 904 826 756 434 321 198 48 16 0 0 0 0 0 24 20 13 20 23 35
1530 1569 1402 1436 1687 1938 2048 2155 2271 2142 1991 1875 1822 1850 1890 1939 1876 1767 1503 1438 1375 976 860 896 690 692 424 327 191 36 1 0 0 0 0 0 0 15 12 12 17 29 34
1230 1560 1381 1251 1618 1988 2203 2201 2225 2069 1931 1830 1780 1740 1671 1720 1401 1338 1372 1350 1203 1225 1250 907 626 417 457 178 188 0 0 0 0 0 0 0 0 17 27 14 10 13 11
995 1065 1407 1267 1533 1875 2112 2084 2067 1959 1837 1693 1423 1535 1423 1001 918 865 1309 1238 1029 957 779 622 500 427 120 1 1 0 0 0 0 0 0 0 27 12 11 12 9 13 11
848 935 1159 1374 1533 1733 1980 1952 1831 1750 1628 1434 908 691 768 474 515 758 949 826 950 735 674 541 278 52 3 0 0 0 0 0 0 0 0 0 29 21 16 18 13 11 10
605 695 730 978 1286 1499 1708 1772 1749 1471 1464 890 314 160 353 375 323 424 541 744 781 592 571 333 75 5 0 0 0 0 0 0 0 0 0 1 26 22 20 15 16 15 17
568 441 344 408 559 646 899 1051 1258 1476 441 473 198 299 261 231 236 215 503 650 684 482 370 158 33 4 0 0 0 0 0 0 0 0 0 19 19 20 14 12 17 17 15
521 221 178 15 7 0 1 67 155 408 517 351 112 222 62 6 18 112 361 483 354 311 244 82 18 2 1 0 0 0 0 0 0 0 0 18 15 16 18 13 14 14 16
450 92 4 0 0 0 0 0 0 0 34 150 40 33 33 9 33 265 245 266 164 157 71 8 2 0 0 0 0 0 0 0 0 0 0 17 25 16 13 13 9 10 6
138 125 0 0 0 0 0 0 1 0 0 57 71 18 33 19 108 61 108 95 56 12 0 0 0 0 0 0 0 0 0 0 0 0 0 12 24 17 12 15 12 12 11
258 96 9 0 0 0 0 0 0 0 0 2 1 49 83 43 48 53 131 66 0 0 0 0 0 0 0 0 0 0 0 0 0 0 0 2 14 18 11 14 13 11 8
204 140 42 0 0 0 0 0 0 0 0 0 10 30 145 56 61 121 65 18 0 0 0 0 0 0 0 0 0 0 0 0 0 0 0 0 7 11 12 10 11 6 5
227 138 71 11 0 0 0 0 0 1 2 1 1 8 27 42 50 78 32 0 0 0 0 0 0 0 0 0 0 0 0 0 0 0 0 0 0 0 6 16 11 4 2
259 137 69 31 0 0 0 0 0 0 1 2 4 5 4 24 72 8 0 0 0 0 0 0 0 0 0 0 0 0 0 0 0 0 0 0 0 0 1 8 13 11 3
288 70 42 14 0 0 0 0 1 0 0 3 3 7 9 41 0 2 0 0 0 0 0 0 0 0 0 0 0 0 0 0 0 0 0 0 0 0 0 0 3 6 8
173 26 20 4 0 0 1 1 1 0 1 1 14 8 10 41 1 0 0 0 0 0 0 0 0 0 0 0 0 0 0 0 0 0 0 0 0 0 0 0 0 0 0
22 17 11 0 0 0 0 1 1 1 4 5 12 12 29 42 2 0 0 0 0 0 0 0 0 0 0 0 0 0 0 0 0 0 0 0 0 0 0 0 0 0 0
15 18 0 0 0 0 0 0 0 0 3 5 25 58 55 61 7 0 0 0 0 0 0 0 0 0 0 0 0 0 0 0 0 0 0 0 0 0 0 0 0 0 0
0 1 0 0 0 0 0 0 0 0 1 1 1 15 65 74 17 1 0 0 0 0 0 0 0 0 0 0 0 0 0 0 0 0 0 0 0 0 0 0 0 0 0
0 0 0 0 0 0 0 0 0 0 1 1 0 13 38 50 60 22 0 0 0 0 0 0 0 0 0 0 0 0 0 0 0 0 0 0 0 0 0 0 0 0 0
0 0 0 0 0 0 0 0 0 0 0 0 4 1 35 29 51 32 7 0 0 0 0 0 0 0 0 0 0 0 0 0 0 0 0 0 0 0 0 0 0 0 0
0 0 0 0 0 0 0 0 0 0 0 0 0 1 14 39 22 15 15 0 0 0 4 2 0 0 0 0 0 0 0 0 0 0 0 0 0 0 0 0 0 0 0

GFSSE_con_sbcape_114.txt.gz
CAPE
1062 895 1376 1456 1088 1200 1501 1521 1570 1736 1923 1863 1890 1879 1867 1862 1734 1683 1718 1760 1624 1676 1739 1616 1719 1597 1506 1135 1225 1106 884 778 761 713 676 493 253 205 346 329 279 150 556
781 845 1264 1140 1336 1097 1580 1626 1347 1528 2095 2157 2052 1984 1933 1866 1840 1895 1918 1897 1888 1823 1460 1735 1752 1665 1344 1160 1131 1030 891 720 690 670 716 664 505 158 224 215 327 231 393
954 984 1287 1418 1529 1585 1743 1823 1638 1703 1888 2266 2191 2088 2002 1986 1980 2053 2006 1953 1885 1700 1270 1495 1665 1472 1273 1111 1090 961 807 661 571 526 390 58 96 230 211 258 274 345 173
1100 1121 1279 1508 1611 1720 1809 1897 2035 1876 1762 1799 2074 2182 2117 2047 2023 2096 2052 1869 1804 1814 1374 1541 1495 1326 1172 1076 916 730 563 416 220 49 3 11 67 177 119 86 107 119 113
1272 1183 1285 1595 1606 1735 1894 1937 2094 1954 1668 1699 1915 2254 2198 2096 2020 1949 1722 1696 1820 1865 1583 1571 1457 1234 1043 726 560 376 180 24 4 0 0 0 1 84 57 44 27 15 76
1332 1233 1275 1481 1618 1785 1964 2056 2059 2045 1932 1885 1956 1893 2175 2139 2059 1916 1758 1705 1701 1594 1418 1516 1387 1035 680 433 239 78 2 0 0 0 0 0 0 27 8 4 17 19 40
1360 1261 1171 1368 1622 1873 2098 2147 2043 1880 1800 1787 1753 1283 1576 1408 1748 1674 1496 1311 1488 1356 1324 1236 1157 768 503 271 116 7 0 0 0 0 0 0 0 14 2 4 7 21 31
1279 1325 1195 1296 1588 1842 1992 2066 1965 1852 1683 1621 1478 1415 1265 891 1071 993 1217 1191 1340 1206 1036 1102 818 658 395 159 28 0 0 0 0 0 0 0 22 14 7 8 14 10 19
928 1121 1158 1204 1533 1759 1842 1896 1768 1705 1592 1562 1306 1013 893 802 754 776 782 932 1015 919 961 788 635 225 275 80 1 0 0 0 0 0 0 0 30 18 19 13 13 15 17
752 817 1098 1120 1320 1534 1683 1678 1539 1488 1441 1274 1030 942 675 273 272 684 550 650 898 939 818 725 254 99 144 14 0 0 0 0 0 0 0 0 36 12 12 14 12 11 13
596 617 653 917 1027 1247 1517 1492 1472 1346 1245 892 786 558 117 31 76 385 419 570 707 612 599 401 119 40 43 8 0 0 0 0 0 0 0 16 15 16 17 11 8 9 8
738 470 401 601 771 792 998 1011 1544 1552 1186 641 243 220 130 96 106 127 210 363 426 431 352 208 38 21 10 0 0 0 0 0 0 0 0 10 25 19 11 12 5 9 6
795 524 162 164 113 125 336 508 266 427 878 491 89 65 132 75 103 70 153 213 205 243 99 25 0 0 0 0 0 0 0 0 0 0 0 11 30 17 17 10 8 8 8
329 404 138 4 0 0 0 1 0 0 122 598 190 65 21 0 15 89 204 204 158 76 16 0 0 0 0 0 0 0 0 0 0 0 0 10 23 12 20 9 9 17 10
165 125 55 13 0 0 0 0 0 0 1 136 169 69 18 1 4 76 123 101 72 41 36 0 0 0 0 0 0 0 0 0 0 0 0 10 22 25 16 17 17 15 11
98 83 36 43 0 0 0 0 1 0 0 1 34 28 16 11 27 23 54 49 1 1 5 0 0 0 0 0 0 0 0 0 0 0 0 1 7 16 20 14 14 11 11
86 74 64 6 0 0 0 0 1 0 1 2 3 34 20 16 14 11 72 31 0 0 0 0 0 0 0 0 0 0 0 0 0 0 0 0 0 2 14 28 21 11 8
28 91 97 116 0 0 0 0 0 1 0 0 2 3 65 46 13 41 75 0 0 0 0 0 0 0 0 0 0 0 0 0 0 0 0 0 0 0 5 15 24 15 8
0 117 145 124 0 0 0 0 0 0 2 1 1 0 1 69 29 47 59 1 0 0 0 0 0 0 0 0 0 0 0 0 0 0 0 0 0 0 0 4 4 6 14
18 149 146 97 2 0 0 0 4 1 0 1 5 3 2 5 14 33 0 0 0 0 0 0 0 0 0 0 0 0 0 0 0 0 0 0 0 0 0 0 0 0 1
82 130 113 51 0 0 4 9 2 1 1 8 1 1 1 7 3 0 0 0 0 0 0 0 0 0 0 0 0 0 0 0 0 0 0 0 0 0 0 0 0 0 0
113 136 64 33 0 5 12 0 0 0 3 2 1 2 3 13 1 0 0 0 0 0 0 0 0 0 0 0 0 0 0 0 0 0 0 0 0 0 0 0 0 0 0
88 99 54 0 0 0 0 0 0 0 1 1 10 5 15 2 0 0 0 0 0 0 0 0 0 0 0 0 0 0 0 0 0 0 0 0 0 0 0 0 0 0 0
19 2 4 0 0 0 0 0 0 0 0 1 3 10 8 9 2 0 0 0 0 0 0 0 0 0 0 0 0 0 0 0 0 0 0 0 0 0 0 0 0 0 0
0 0 0 0 0 0 0 0 0 0 0 1 3 0 18 22 4 1 0 0 0 0 0 0 0 0 0 0 0 0 0 0 0 0 0 0 0 0 0 0 0 0 0
0 0 0 0 1 0 0 0 0 0 0 2 1 6 5 24 38 12 0 0 0 0 0 0 0 0 0 0 0 0 0 0 0 0 0 0 0 0 0 0 0 0 0

GFSSE_con_sbcape_117.txt.gz
CAPE
1202 1236 1338 1165 1055 1500 1575 1592 1663 1842 1793 1840 1895 1924 1934 1959 1917 1901 1924 1944 1801 1754 1647 1512 1720 1650 1477 1293 1338 1154 1061 1002 900 958 924 750 528 475 472 661 487 230 705
1301 1400 1309 1299 1020 1535 1667 1703 1542 1978 2046 2085 2049 2050 1999 1932 1902 1915 1866 1852 1839 1905 1646 1702 1915 1802 1491 1293 1244 1112 996 905 803 787 798 707 362 298 399 537 419 400 624
1463 1480 1459 1085 1233 1317 1770 1705 1525 1926 2375 2309 2234 2158 2065 2013 2057 2115 2018 1853 1889 2012 1792 1728 1948 1556 1295 1325 1181 1062 954 818 741 741 628 286 343 338 327 476 487 470 304
1465 1495 1514 1215 1319 1422 1870 1721 1603 1825 2227 2395 2331 2234 2132 2122 2162 2215 2153 1928 1890 1918 1886 1674 1482 1507 1301 1209 1063 941 783 599 348 353 190 179 266 297 195 149 407 363 229
1480 1428 1572 1376 1455 1710 1890 1997 1721 1881 2061 2276 2227 2256 2215 2215 2230 2164 1989 1914 1818 1914 1918 1673 1511 1444 1308 1002 825 694 429 216 99 175 198 214 243 237 187 143 154 173 164
1664 1563 1320 1461 1499 1665 1939 2150 1725 1743 1778 1846 2127 2229 2293 1991 1455 1213 1210 1517 1408 1581 1951 1605 1500 1272 922 671 486 301 142 52 84 140 184 234 82 80 16 6 67 86 89
1862 1695 1648 1451 1553 1819 2080 2163 2019 1631 1605 1819 2168 2005 2049 1390 899 1161 859 1412 1484 1425 1493 1493 1169 1011 705 449 285 124 5 2 115 75 82 71 19 14 1 0 3 31 41
1929 1740 1868 1314 1632 1731 2002 2008 1960 1842 1558 1830 1979 1782 1619 1299 1127 954 1096 1146 1245 1490 1253 1044 1013 863 565 309 116 7 0 0 6 13 16 27 22 15 1 0 0 13 22
1955 1851 1853 1748 1714 1664 1823 1899 1719 1726 1733 1630 1628 1199 1357 1003 819 971 961 1027 1048 992 1042 857 861 689 446 172 20 0 0 0 1 10 10 28 29 18 2 4 8 14 19
1872 2062 1769 1576 1467 2202 2002 1713 1655 1557 1452 1480 1267 1094 794 677 767 911 863 991 951 899 878 912 669 538 271 26 0 0 0 0 0 3 9 23 33 18 26 7 14 24 18
1640 1817 1780 1307 1390 1475 1925 1873 1516 1491 1321 1253 1043 695 584 856 920 631 326 586 795 754 755 518 428 268 63 0 0 0 0 0 0 3 7 24 37 21 22 9 16 12 19
1868 1663 1553 1228 1330 1385 1510 1706 2095 1562 2176 2013 1653 1195 1303 782 626 473 296 464 743 569 455 266 179 138 39 31 2 0 0 0 0 1 7 22 34 28 25 20 14 20 12
1303 1649 1443 1082 1177 1191 1328 1540 1985 1854 1793 1625 1675 1531 997 361 314 652 613 851 922 506 335 201 110 251 151 81 16 0 3 0 6 1 9 26 42 29 21 10 9 14 23
749 1175 1352 1325 983 1017 1099 1345 1495 1731 1370 1101 875 1004 613 391 558 451 771 846 787 536 326 180 159 103 139 64 0 0 0 0 0 5 8 15 45 31 17 17 16 16 12
528 873 1186 1229 1306 948 686 755 782 920 968 978 489 137 216 398 504 87 174 323 384 241 266 103 46 0 23 0 0 1 0 0 0 5 23 14 24 22 14 13 15 13 11
435 655 878 1154 1203 1113 1050 670 399 252 291 520 428 124 174 271 353 200 120 183 217 115 149 37 13 0 0 1 5 0 0 0 0 5 10 12 2 7 26 12 14 10 16
17 258 616 825 1116 904 806 567 156 61 108 555 745 164 87 55 20 119 57 77 80 28 0 3 10 0 0 0 0 0 0 0 4 5 8 8 6 7 17 30 25 15 11
0 0 264 416 798 894 681 398 11 12 10 46 102 163 111 120 35 37 66 45 2 0 0 0 4 0 0 0 0 0 0 0 5 4 5 9 14 18 8 19 20 19 13
0 0 34 456 692 799 623 280 11 7 4 4 7 47 118 74 87 94 52 10 0 0 0 0 0 0 0 0 0 0 0 0 4 2 6 7 10 11 10 9 4 5 12
0 0 14 563 573 623 485 150 7 7 5 5 8 8 9 38 41 64 70 1 0 0 0 0 0 0 0 0 0 0 1 0 7 4 4 3 6 7 5 10 11 4 1
0 0 182 489 522 456 212 63 5 5 5 7 15 10 16 8 39 65 5 1 0 0 1 2 0 0 0 0 2 7 4 2 10 3 3 3 3 3 2 4 0 1 1
0 114 289 482 293 562 407 234 127 10 8 2 8 12 10 10 4 24 20 0 0 0 0 0 0 0 0 0 0 3 9 6 9 3 2 3 2 2 0 0 0 0 1
0 83 300 423 196 525 485 260 159 23 26 67 22 9 4 1 10 1 1 0 0 0 0 0 0 0 0 1 0 0 12 32 2 2 2 2 2 0 0 0 0 0 0
0 124 337 301 221 258 318 249 137 56 5 27 47 4 10 3 1 1 1 1 0 0 0 0 0 0 0 0 0 0 0 0 1 0 0 0 0 0 0 0 3 1 0
0 85 291 265 122 16 66 148 222 4 3 154 89 10 36 28 3 3 1 1 0 0 0 0 0 0 2 1 0 0 0 0 0 1 33 1 0 0 0 4 26 9 0
3 13 98 194 17 0 14 50 94 10 4 77 84 32 65 24 5 6 1 1 0 0 0 0 0 0 0 0 0 0 0 0 0 2 0 16 34 0 8 1 19 15 8

GFSSE_con_sbcape_120.txt.gz
CAPE
797 1451 1438 1450 1436 1623 1672 1731 1839 1982 1904 1922 1725 2037 2045 2049 2042 2053 1993 1967 1955 1882 1622 1568 1593 1525 1191 1171 1514 1419 1247 1177 1092 991 942 893 803 662 546 704 715 390 711
620 1431 1282 1415 1349 1603 1710 1794 1951 2069 2092 2171 1980 2120 2108 2096 2090 2125 2104 2063 1933 1943 1643 1571 1588 1506 1426 1371 1407 1271 1179 1072 1003 955 964 825 803 495 504 716 685 544 663
813 1478 1575 1307 1377 1696 1774 1837 2114 2291 2368 2347 2284 2113 2033 2174 2153 2180 2206 2034 1986 1807 1820 1644 1545 1506 1316 1437 1311 1214 1117 979 912 856 854 414 380 536 538 718 714 714 539
1174 1522 1684 1228 1432 1701 1968 1856 2034 2417 2502 2370 1999 2329 2233 2201 2167 2143 2085 1906 1750 1626 1657 1669 1641 1467 1436 1390 1230 1140 1002 859 740 735 359 346 402 485 482 440 548 577 446
1332 1473 1725 1222 1349 1470 1967 1864 1927 2133 2425 2247 2177 2371 2276 2296 2317 2207 1828 1604 1716 1856 1745 1625 1546 1552 1447 1181 1032 902 683 574 518 381 80 165 344 427 435 432 382 361 372
1339 1338 1264 1218 1368 1648 2101 2030 1927 2084 2384 2331 2288 2332 2375 2011 2000 1045 748 752 1069 1510 1527 1375 1298 1421 1140 926 750 615 456 380 221 81 95 507 187 294 280 236 373 302 198
1546 1652 2165 1307 1413 1833 2236 2210 1876 1977 2090 2288 2281 2287 2294 1858 928 339 742 491 536 791 1683 1595 1438 1092 882 690 554 372 283 281 250 79 79 422 176 112 37 32 86 174 100
2066 2254 2322 1462 1378 1666 2112 2153 1698 1728 1784 2001 2209 2197 2035 1324 924 948 937 813 975 861 1517 1303 1168 904 685 560 325 128 83 115 62 49 59 165 79 29 6 0 8 41 36
2495 2531 2538 2087 1897 1498 1933 2006 1779 1577 1636 1816 2032 1942 1345 1010 964 917 1005 1220 1169 1157 1262 1123 916 687 572 376 126 23 5 41 71 35 41 78 70 26 2 0 2 0 1
2659 2737 2580 2492 2108 2296 2084 1772 1744 1625 1502 1669 1685 1399 996 999 735 935 992 1090 1134 1169 1111 971 670 540 396 144 16 0 0 0 38 27 28 36 46 14 7 0 0 1 7
2434 2794 2784 2739 2345 2457 2314 2128 1529 1547 1548 1495 1485 1062 1014 1526 1330 964 787 754 1089 954 925 755 479 323 169 36 2 0 0 17 24 17 36 13 33 15 16 11 9 8 5
2213 2561 2841 2769 2589 2385 2301 2253 2382 2270 2486 2543 2470 2046 1526 1516 1441 931 677 731 841 735 697 507 269 161 142 365 78 0 30 40 16 13 27 29 35 28 25 17 5 15 20
1640 2237 2492 2594 2622 2478 2168 2264 2391 2291 2533 2299 2332 2386 1950 1520 1608 1004 702 876 936 680 380 530 336 489 580 225 63 57 102 36 15 13 17 28 53 30 16 20 20 14 26
943 1747 2433 2479 2203 2323 2014 2157 2237 2860 2414 2809 2363 2496 2297 1721 1213 893 707 357 813 885 770 654 419 469 213 73 123 163 124 31 12 8 16 28 38 33 26 28 26 25 19
554 1214 1816 2416 2276 2014 1895 2012 2089 2426 2655 2628 2561 2340 2026 1599 1154 888 777 730 738 983 871 421 287 214 231 273 131 214 116 36 15 5 13 25 34 39 24 28 17 9 12
52 371 1183 1881 2303 2151 1748 1740 1808 2007 2259 2327 2109 1999 2063 1501 1018 462 428 1278 445 631 550 233 245 215 287 266 223 193 95 17 10 6 19 29 19 18 54 23 21 8 9
0 0 152 867 1839 2320 2133 1547 1391 1554 1647 2092 1767 1673 1768 1298 1075 489 291 490 316 153 154 136 184 154 200 216 237 207 67 16 6 6 7 24 22 19 37 42 27 9 10
0 0 0 11 809 1891 2129 2316 1685 1321 1109 1464 1882 1329 1431 1070 830 577 407 237 302 118 43 42 132 164 220 240 200 194 48 15 13 17 37 41 25 19 13 19 21 22 24
0 0 0 0 381 1201 1786 2038 2077 1734 1143 1019 1669 1465 859 690 747 321 296 122 192 38 0 1 92 221 238 226 201 143 30 30 30 17 42 46 27 15 9 13 17 18 22
0 0 0 0 79 865 1458 1886 1597 936 506 566 931 857 933 682 257 294 177 81 58 3 0 0 42 161 225 235 115 46 60 67 64 40 30 45 20 16 16 12 15 8 1
0 0 17 64 323 957 1393 1517 873 536 196 147 239 301 171 414 271 154 112 25 1 1 1 0 24 233 181 186 173 116 64 107 87 25 27 50 22 14 14 16 10 4 0
42 107 230 410 720 946 943 958 779 621 461 271 71 132 45 117 304 155 122 42 2 1 1 1 35 131 135 207 88 65 47 43 38 34 32 48 33 19 11 7 5 2 2
39 280 296 425 742 740 915 756 940 628 517 106 116 64 75 250 347 242 98 16 3 2 1 0 14 37 138 143 144 16 25 20 35 44 25 42 47 29 22 8 6 5 2
105 399 371 531 613 373 730 695 1032 955 902 598 407 391 357 312 212 43 10 9 7 3 2 0 0 33 179 139 144 54 45 22 27 40 27 41 45 36 50 26 2 0 33
31 432 516 558 299 306 690 1106 1206 1213 901 617 257 326 312 35 8 48 16 1 1 0 1 1 8 154 162 155 137 80 58 72 59 38 30 29 57 59 71 63 8 19 70
0 63 200 235 243 296 541 1043 1134 1167 730 692 550 527 367 10 8 7 2 2 0 1 1 0 0 69 143 194 126 130 80 40 64 61 28 37 59 86 74 66 91 129 153

GFSSE_con_sbcape_126.txt.gz
CAPE
550 1199 1553 1709 1774 1847 1883 2013 1801 1814 1839 1927 1994 2093 2105 2188 2127 2095 2056 2021 1986 2056 1710 1484 1605 1530 1359 1396 1393 1311 1212 1154 1107 1160 1161 1125 820 598 834 670 539 299 845
898 1227 1456 1647 1780 1837 1867 2012 2003 1939 1985 2041 2089 2169 2182 2223 2178 2209 2125 2075 2002 1786 1614 1362 1297 1357 1382 1286 1364 1179 1097 964 887 907 983 1082 1018 915 767 610 668 691 912
864 1227 1305 1462 1753 1853 1927 2055 2268 2157 2182 2186 2245 2259 2241 2242 2285 2305 2170 1955 1820 1782 1559 1601 1558 1484 1288 1283 1322 1217 1134 963 870 851 892 363 382 689 538 751 836 874 872
1397 1328 1292 1377 1676 1912 1986 2089 2327 2354 2318 2247 2352 2310 2314 2238 2338 2334 2073 1638 1216 764 1251 1589 1670 1320 1361 1304 1263 1187 1104 988 896 811 202 254 384 651 712 799 752 736 727
1114 1322 1435 1246 1496 1889 2002 2165 2350 2389 2291 2233 2304 2352 2412 2415 2175 2308 1698 1179 215 20 12 668 1293 1339 1132 1155 1058 994 928 883 491 471 137 97 220 669 737 654 721 733 538
449 1961 931 1123 1402 1862 1969 2162 2386 2353 2242 2201 2172 2323 2457 2472 2162 1716 1124 884 172 48 168 371 456 928 1081 919 858 806 765 564 273 63 183 438 223 587 572 558 604 520 436
1049 1919 1294 1040 1335 1920 2054 2143 2110 2278 1938 2051 2072 2206 2344 2244 2204 958 897 652 45 1 14 207 662 602 973 795 732 621 532 344 184 128 194 198 274 487 545 433 312 323 145
2557 2423 1566 1129 1274 1816 1973 1921 1923 2145 1897 1976 1826 2155 2131 2131 1499 270 293 518 206 101 410 801 993 964 795 719 579 417 304 209 118 139 185 107 469 444 283 196 22 78 32
2576 2924 2004 1572 1438 1570 1811 1754 1729 1971 1665 2062 2060 2105 2024 1541 796 472 569 427 360 595 808 1011 959 717 674 564 389 258 190 182 87 223 147 113 509 317 115 23 2 0 2
3164 3271 2520 2121 1764 1841 1800 1681 1549 1658 1559 1684 2039 1972 1651 1002 420 421 798 851 949 944 866 1068 697 524 345 234 218 178 152 133 36 144 84 89 326 62 19 16 5 1 1
3174 3291 3070 2539 2162 2216 2099 1890 1236 1405 1488 1579 1814 1712 1143 1435 604 855 725 673 1000 981 1106 667 400 261 140 105 99 106 75 99 51 152 47 154 311 44 30 27 8 1 1
2619 3337 3335 2931 2616 2619 2206 2145 1989 1843 1709 1814 2020 1689 1958 1881 1413 942 833 560 1096 1070 902 511 260 104 119 144 57 26 67 98 73 37 24 117 179 3 38 32 22 8 9
2215 2689 3056 3309 2978 2804 2091 2533 2051 2105 2015 2024 2189 2356 2060 2067 1769 1158 1212 808 1100 806 732 459 132 149 488 264 186 156 129 114 21 2 5 30 0 6 30 25 22 11 11
1160 2363 2793 3145 3130 2743 2574 2212 2206 2242 2154 2155 2056 2317 2283 2136 1845 1607 1078 1078 918 706 750 487 195 327 361 290 220 221 72 89 17 0 0 0 0 15 15 21 23 19 22
10 1592 2532 3047 3221 2858 2861 2244 2004 2222 2252 2262 2268 2244 2415 2136 1795 1483 1260 986 762 643 613 534 415 274 321 282 182 41 40 78 13 0 0 0 0 26 33 19 18 29 21
0 364 2563 2721 3172 2951 2660 2430 1973 2121 2375 2406 2397 2310 2474 2160 1820 1617 1492 1139 690 553 581 497 360 222 187 96 4 30 37 42 6 0 0 0 0 22 41 28 26 20 11
0 195 1767 2557 3002 2955 2794 2849 2107 1970 2581 2274 2237 2717 2442 2503 2163 1614 1411 1117 835 505 500 365 123 139 78 76 59 73 38 18 2 0 0 0 1 13 20 41 39 22 14
0 0 636 1270 1882 3015 2654 2438 1881 1751 2265 2567 2305 2450 2592 2587 2132 1776 1441 1253 942 481 155 103 70 60 71 34 43 68 77 14 6 1 0 0 0 0 10 13 23 25 29
0 0 0 7 1237 1829 2614 2241 1932 1798 1851 2099 2586 2467 2458 2579 2129 1813 1437 1188 865 305 45 16 49 39 42 41 49 66 52 12 0 11 1 0 0 0 0 2 5 9 21
0 0 0 0 0 299 1618 2393 2147 1918 1785 1773 1850 2419 2103 2017 2243 1899 1469 1221 786 225 46 10 4 16 47 73 67 81 41 7 0 0 1 0 0 0 0 0 0 0 4
0 0 0 7 27 20 325 1191 1765 2102 1895 1680 1472 1554 2086 1644 1792 1819 1306 859 644 245 72 19 3 17 13 38 43 65 54 25 11 9 10 1 0 0 0 0 0 0 0
0 0 1 281 313 381 8 11 739 1589 2400 1735 1366 1312 1427 1847 1726 1527 1052 678 631 213 47 7 1 0 1 1 35 51 24 39 60 34 20 13 3 0 0 0 0 0 0
0 344 357 507 502 514 296 83 945 1224 882 644 797 981 1202 1405 1323 1298 1027 501 352 90 30 2 0 0 0 0 29 25 14 17 26 31 16 8 6 0 1 0 0 0 0
20 37 356 631 881 720 927 594 1047 941 645 543 574 507 675 914 893 859 713 348 161 58 6 0 1 0 0 0 22 44 17 0 0 26 17 25 28 0 0 0 0 0 3
20 38 180 246 531 933 1054 1023 1367 890 784 504 416 304 434 626 584 644 547 393 113 71 7 1 1 1 0 0 7 4 29 28 12 0 2 7 24 1 5 1 0 0 13
162 219 391 193 125 267 335 340 1116 996 572 440 421 436 406 465 601 488 347 484 86 42 17 1 2 3 0 0 17 14 11 44 5 0 0 0 0 5 8 11 9 5 3

GFSSE_con_sbcape_129.txt.gz
CAPE
754 1214 1381 1612 1692 1787 1691 1529 1494 1568 1747 1924 2000 2010 2101 2074 2047 2041 2098 2136 2056 2136 1790 1599 1820 1466 1461 1449 1503 1481 1366 1256 1179 1192 1160 1090 835 789 724 844 712 514 791
866 1222 1351 1547 1622 1644 1817 1690 1669 1693 1892 2043 2083 2073 2111 2100 2125 2150 2150 2176 1859 1925 1729 1538 1632 1339 1407 1351 1367 1300 1201 1052 934 903 968 1031 1007 935 587 684 762 673 812
974 1246 1336 1424 1605 1700 1892 2020 1976 2041 2134 2128 2192 2157 2225 2237 2264 2239 2184 1975 1584 1608 1383 1293 1426 1397 1414 1402 1337 1232 1124 925 764 649 594 257 407 879 598 548 893 932 862
794 1056 1092 1366 1560 1716 1780 2041 2105 2247 2279 2221 2288 2279 2309 2366 2335 2299 2027 818 608 843 1032 917 1111 1245 1219 1348 1258 1207 1078 927 857 623 227 160 359 705 697 758 874 808 747
779 983 1142 1275 1517 1692 1754 1948 2141 2224 2141 2163 2209 2349 2361 2444 2470 2234 1536 1034 499 542 980 810 735 1115 1255 1191 1063 943 915 799 639 148 149 174 433 679 730 661 660 656 565
1116 1062 901 1146 1445 1650 1811 2031 2166 2184 2018 2036 2110 2355 2434 2441 2467 2088 1146 1069 664 400 1030 886 691 769 908 1004 911 835 626 363 242 109 219 497 384 684 556 500 479 446 433
1330 853 822 1039 1402 1666 1947 2149 2137 2149 2030 1976 2031 2229 2351 2371 2120 1603 1123 637 566 448 1072 808 753 800 828 932 822 642 462 328 346 217 134 167 435 681 576 426 386 460 357
1192 811 835 1051 1412 1612 1796 1950 2036 1976 1826 1935 1958 2109 2131 2114 1523 1280 984 456 516 721 772 734 829 924 794 833 740 485 284 221 393 340 119 240 632 536 393 314 98 176 102
1370 883 783 902 1378 1475 1524 1737 1918 1857 1645 1794 1525 1991 2006 1608 793 568 955 495 407 368 768 640 768 884 834 808 630 295 138 80 111 210 161 271 700 622 320 105 33 5 8
1546 1077 761 756 978 1066 1150 1389 1633 1512 1527 1719 1601 1809 1663 1042 253 470 564 541 587 627 988 1049 834 760 742 593 417 215 91 18 36 46 106 302 572 410 138 36 10 8 8
2157 1502 1064 972 956 1069 1095 1124 1318 1413 1315 1551 1523 1650 1049 641 173 462 443 657 943 928 1003 937 667 530 416 288 268 203 82 3 20 38 133 325 495 199 110 16 11 10 18
2325 2082 1493 1266 1206 1239 1548 1229 861 1140 1125 1182 1547 1659 1049 698 252 289 536 618 853 835 1015 722 474 252 167 132 115 133 55 0 15 34 139 299 492 252 103 17 16 18 21
2325 2547 2010 1741 1508 1528 1702 1169 1178 1075 1124 1131 1276 1570 1679 1396 688 501 436 478 666 831 649 428 151 113 177 128 84 82 56 0 4 38 146 240 410 229 82 22 28 25 27
1812 2422 2399 2151 1877 1795 1287 1368 1289 1385 1218 1342 1424 1540 1589 1585 1141 667 549 500 729 664 385 241 89 113 189 156 117 105 64 0 0 2 14 1 156 160 27 35 28 33 26
1402 2144 2405 2273 2126 2105 1609 1604 1455 1467 1447 1470 1482 1763 1579 1687 1431 958 629 739 753 540 406 150 90 163 270 205 137 106 53 0 0 0 0 0 0 11 14 27 21 33 26
0 1516 2215 2589 2337 1996 1932 1526 1542 1408 1434 1483 1479 1588 1813 1573 1266 1035 597 693 567 484 433 314 175 177 185 140 117 24 20 0 0 0 0 0 0 4 19 23 22 30 37
0 50 1945 2474 2546 2288 2094 1585 1404 1330 1511 1600 1654 1416 1721 1678 1226 968 849 616 424 348 300 249 183 78 56 60 82 78 16 0 0 2 0 0 0 2 15 23 32 29 20
0 0 1928 2617 2635 2564 2084 1835 1491 1274 1490 1630 1519 1619 1765 1753 1387 994 948 753 411 338 300 209 25 6 19 24 46 49 33 0 0 0 0 0 0 0 5 14 18 37 35
0 0 162 1348 2505 2244 2107 2008 1695 1363 1567 1557 1867 1632 1764 1914 1486 1150 947 637 330 331 191 45 1 0 5 29 43 55 57 3 1 0 0 0 0 0 0 5 3 14 18
0 0 0 0 403 1425 1854 1745 1450 1163 1244 1285 1310 1964 1708 1979 1466 1243 795 702 359 123 67 38 1 0 0 3 95 38 24 0 3 0 0 0 0 0 0 0 0 0 1
0 0 0 0 0 0 707 1768 1550 1519 1218 1135 1247 1351 1847 1805 1613 1217 861 743 370 159 94 0 0 3 2 3 16 9 4 0 0 5 0 0 0 0 0 0 0 0 0
0 26 23 16 1 0 0 243 1301 1787 1431 1375 1202 977 1492 1544 1495 1214 1141 895 639 288 63 0 0 6 0 3 12 1 19 3 1 0 0 0 0 0 0 0 0 0 0
29 50 46 41 104 129 1 0 6 469 886 1235 1240 1088 1010 1331 1315 1451 985 817 617 363 145 37 3 6 2 2 3 0 0 2 5 4 0 0 0 0 0 0 0 0 0
12 10 61 65 16 56 217 0 96 357 583 614 1041 1157 963 963 1288 1328 884 724 609 336 127 55 2 0 0 1 3 0 0 0 0 11 5 0 0 0 0 0 0 0 0
21 0 44 60 33 37 145 203 320 395 164 61 153 483 655 675 977 904 735 416 445 259 143 55 11 0 0 0 4 0 0 0 0 1 0 5 24 0 0 0 0 0 0
24 13 20 0 0 3 59 86 43 490 289 157 170 281 313 415 483 687 553 301 215 168 23 10 0 5 0 0 0 4 0 0 0 0 0 0 0 2 0 0 0 0 0

GFSSE_con_sbcape_132.txt.gz
CAPE
759 1035 1428 1695 1622 1455 1357 1381 1445 1515 1742 1843 1935 2029 2061 2100 2181 2217 2237 2218 2199 2117 1745 1705 1616 1272 1411 1267 1293 1372 1149 992 1185 1361 1326 1315 1135 1042 974 1012 805 542 850
705 1073 1343 1615 1696 1557 1499 1485 1534 1661 1921 2002 2022 1999 1987 2063 2127 2197 2199 2153 2163 1952 1533 1585 1659 1606 1403 1469 1389 1168 1184 978 1025 1013 1252 1317 1189 954 848 921 807 733 829
943 1139 1281 1402 1654 1772 1756 1753 1800 1967 2069 2052 2143 2113 2141 2166 2178 2231 2105 1965 2157 2045 1627 1514 1538 1582 1479 1451 1274 1233 1127 890 771 819 888 606 711 913 811 1027 926 929 846
1053 1143 1186 1320 1542 1815 1874 1870 1952 2152 2184 2198 2234 2274 2301 2254 2221 2158 1500 1469 1667 1897 1692 1360 1449 1516 1544 1328 1276 1200 1037 856 626 466 226 428 658 833 834 837 846 801 663
968 1026 1159 1287 1456 1672 1866 1915 1996 2131 2050 2122 2165 2363 2418 2373 2284 1892 1224 1261 1590 1667 1285 1391 1493 1653 1175 1050 1004 983 1002 716 425 275 252 396 554 749 811 767 700 644 549
713 812 1093 1192 1401 1602 1829 2030 2053 2006 1889 1951 2027 2332 2531 2511 2323 1741 1059 1132 1528 1574 1237 1097 1648 1438 989 831 838 791 601 344 143 123 335 618 470 849 788 575 595 614 447
648 732 906 1134 1399 1667 1935 2085 2034 1918 1831 1880 2031 2230 2439 2512 2239 1476 1211 1009 1040 1603 1545 1312 1024 1029 872 768 731 486 275 270 274 148 177 259 512 793 533 492 404 493 373
480 598 839 1111 1374 1623 1902 1927 1938 1891 1799 1821 2006 2113 2267 2277 1758 1212 807 838 794 1285 1371 1095 822 789 810 747 587 213 183 244 209 266 147 312 675 610 498 385 353 386 281
443 570 736 1068 1299 1451 1732 1795 1817 1811 1799 1763 1901 2023 2047 1735 1292 1054 602 703 880 822 1094 936 784 791 781 718 475 261 59 149 207 249 280 400 786 627 414 241 217 121 62
675 538 569 845 1116 1117 1336 1567 1684 1401 1692 1698 1739 1861 1639 1108 994 762 449 511 273 817 749 840 789 718 703 537 357 176 0 72 100 94 220 315 760 554 332 155 44 30 27
891 658 460 685 864 770 882 1259 1465 1217 1505 1500 1400 1606 1038 524 266 515 230 345 319 800 870 867 814 778 752 522 296 101 0 0 40 102 83 518 693 430 354 155 28 4 20
1208 912 582 565 674 718 1046 1030 1199 1071 1378 1471 1389 1222 1058 304 8 38 65 251 651 763 881 868 754 698 570 226 174 81 0 0 20 46 168 392 595 483 289 57 8 26 21
1522 1240 901 655 601 853 1151 891 856 985 889 1071 1219 1411 1132 417 163 72 73 341 408 625 656 635 428 195 171 139 116 17 4 13 0 51 205 363 579 432 178 53 31 27 27
1730 1703 1269 863 788 918 1092 770 806 1050 981 918 1087 1462 1434 1058 359 142 102 83 226 491 394 369 205 66 89 97 90 28 4 0 0 35 163 329 427 443 208 62 25 38 29
1805 2002 1671 1323 1085 1145 1071 897 818 831 733 768 1029 1229 1224 1524 965 357 180 148 270 354 160 198 26 45 89 91 121 43 2 0 0 7 24 168 281 432 236 31 31 33 30
1620 2115 2065 1777 1539 1478 1270 1284 1005 979 876 921 1059 1267 1384 1295 1252 536 286 309 356 366 253 164 0 42 187 151 84 19 0 0 0 0 0 1 112 118 140 34 35 23 31
38 1485 2173 2052 1831 1868 1670 1446 1337 1067 1119 1128 1149 1243 1288 1428 1201 838 476 479 403 384 263 86 22 51 100 82 98 50 1 0 0 0 0 0 0 0 12 24 34 28 31
0 233 2001 2513 2084 1883 2127 1543 1454 1256 1191 1269 1271 1152 1559 1427 1011 767 534 498 309 251 293 192 67 32 4 7 22 12 1 0 0 0 0 0 0 0 1 11 36 47 47
0 0 1576 2431 2368 2132 2044 1638 1314 1078 1219 1238 1358 1355 1281 1510 1105 810 732 472 154 213 243 207 24 0 6 4 16 0 0 0 0 0 0 0 0 0 0 9 19 26 35
0 0 945 2146 2563 2257 1657 1647 1145 916 1051 936 1330 1488 1390 1554 1282 958 801 516 246 226 241 122 8 0 2 5 32 3 12 0 0 1 0 0 0 0 0 0 6 10 12
0 0 0 780 1472 1132 1170 1354 1106 1327 852 794 688 1446 1368 1684 1470 1017 738 381 333 384 224 71 1 0 0 0 3 30 21 0 0 0 0 0 0 0 0 0 0 0 2
0 0 0 0 0 70 317 1361 1306 1468 1080 1128 910 656 1301 1458 1397 892 619 386 292 260 111 60 22 0 0 1 8 9 2 2 0 0 0 0 0 0 0 0 0 0 0
34 63 57 57 54 2 0 0 210 764 763 1002 797 786 641 1132 1164 904 518 421 245 210 141 90 34 7 0 9 1 0 0 2 0 0 0 0 0 0 0 0 0 0 0
59 57 61 52 43 152 63 0 197 965 1505 1389 1407 1159 831 484 798 901 651 521 396 282 171 114 55 27 1 0 5 0 0 0 0 0 0 0 0 0 0 0 0 0 0
16 41 23 35 26 53 137 128 88 58 2 38 840 1088 914 667 997 988 747 562 469 441 279 151 81 24 0 1 4 1 0 0 0 0 0 0 0 0 0 0 0 0 0
0 0 0 37 154 142 132 49 30 102 180 84 211 648 582 420 839 981 848 732 591 410 196 184 99 27 0 0 2 1 0 0 0 0 0 0 0 0 0 0 0 0 0